Wetterdaten: Mittwoch, 26.12.2018
Datum Zeit Temp. A. Pool Temp. Temp. 5cm Feuchte A. Luftdruck Regen Wind Richtung Richtung Sonnenschein ET UV Solar Taupunkt Windchill Windben Empfang
26.12.2018 00:00 0,9 C 4,4 C 0,6 C 84 % 1032,9 hPa 0,0 l/m 10,0 km/h (2 Bft) W-SW 242 0 min 0,000 mm 0,0 UV-I 0 W/m -1,5 C -2,5 C 16,1 km/h (3 Bft) 97,87 %
26.12.2018 00:02 1,0 C 4,4 C 0,6 C 84 % 1032,9 hPa 0,0 l/m 9,7 km/h (2 Bft) W-SW 244 0 min 0,000 mm 0,0 UV-I 0 W/m -1,4 C -2,1 C 16,1 km/h (3 Bft) 100,00 %
26.12.2018 00:04 1,0 C 4,4 C 0,6 C 84 % 1032,9 hPa 0,0 l/m 11,6 km/h (2 Bft) W 278 0 min 0,000 mm 0,0 UV-I 0 W/m -1,4 C -3,6 C 16,1 km/h (3 Bft) 96,77 %
26.12.2018 00:06 1,0 C 4,4 C 0,6 C 84 % 1032,9 hPa 0,0 l/m 12,2 km/h (2 Bft) W-SW 240 0 min 0,000 mm 0,0 UV-I 0 W/m -1,4 C -4,0 C 20,9 km/h (4 Bft) 100,00 %
26.12.2018 00:08 1,1 C 4,4 C 0,6 C 84 % 1032,9 hPa 0,0 l/m 10,5 km/h (2 Bft) W 273 0 min 0,000 mm 0,0 UV-I 0 W/m -1,3 C -2,6 C 16,1 km/h (3 Bft) 100,00 %
26.12.2018 00:10 1,1 C 4,4 C 0,6 C 84 % 1033,0 hPa 0,0 l/m 8,2 km/h (2 Bft) W 263 0 min 0,000 mm 0,0 UV-I 0 W/m -1,3 C -0,7 C 12,9 km/h (3 Bft) 98,00 %
26.12.2018 00:12 1,0 C 4,4 C 0,6 C 84 % 1032,9 hPa 0,0 l/m 10,9 km/h (2 Bft) SW 227 0 min 0,000 mm 0,0 UV-I 0 W/m -1,4 C -3,0 C 14,5 km/h (3 Bft) 93,62 %
26.12.2018 00:14 1,1 C 4,4 C 0,0 C 84 % 1032,9 hPa 0,0 l/m 11,0 km/h (2 Bft) W 260 0 min 0,000 mm 0,0 UV-I 0 W/m -1,3 C -3,0 C 19,3 km/h (3 Bft) 97,87 %
26.12.2018 00:16 1,1 C 4,4 C 0,0 C 84 % 1033,0 hPa 0,0 l/m 11,7 km/h (2 Bft) W-SW 252 0 min 0,000 mm 0,0 UV-I 0 W/m -1,3 C -3,5 C 17,7 km/h (3 Bft) 100,00 %
26.12.2018 00:18 1,0 C 4,4 C 0,0 C 84 % 1033,0 hPa 0,0 l/m 8,7 km/h (2 Bft) W 265 0 min 0,000 mm 0,0 UV-I 0 W/m -1,4 C -1,2 C 12,9 km/h (3 Bft) 100,00 %
26.12.2018 00:20 1,0 C 4,4 C 0,0 C 84 % 1033,0 hPa 0,0 l/m 11,2 km/h (2 Bft) SW 222 0 min 0,000 mm 0,0 UV-I 0 W/m -1,4 C -3,3 C 16,1 km/h (3 Bft) 95,74 %
26.12.2018 00:22 0,9 C 4,4 C 0,0 C 84 % 1033,0 hPa 0,0 l/m 12,1 km/h (2 Bft) W-SW 252 0 min 0,000 mm 0,0 UV-I 0 W/m -1,5 C -4,0 C 20,9 km/h (4 Bft) 97,87 %
26.12.2018 00:24 0,9 C 4,4 C 0,0 C 84 % 1033,0 hPa 0,0 l/m 11,5 km/h (2 Bft) W-SW 249 0 min 0,000 mm 0,0 UV-I 0 W/m -1,5 C -3,6 C 17,7 km/h (3 Bft) 98,00 %
26.12.2018 00:26 0,9 C 4,4 C 0,0 C 84 % 1033,1 hPa 0,0 l/m 12,1 km/h (2 Bft) W-SW 238 0 min 0,000 mm 0,0 UV-I 0 W/m -1,5 C -4,0 C 19,3 km/h (3 Bft) 93,62 %
26.12.2018 00:28 1,0 C 4,4 C 0,0 C 84 % 1033,1 hPa 0,0 l/m 11,0 km/h (2 Bft) W-SW 254 0 min 0,000 mm 0,0 UV-I 0 W/m -1,4 C -3,1 C 17,7 km/h (3 Bft) 97,87 %
26.12.2018 00:30 1,0 C 4,4 C 0,0 C 85 % 1033,1 hPa 0,0 l/m 7,0 km/h (2 Bft) W-SW 245 0 min 0,000 mm 0,0 UV-I 0 W/m -1,2 C 0,4 C 11,3 km/h (2 Bft) 98,00 %
26.12.2018 00:32 0,9 C 4,4 C 0,0 C 85 % 1033,0 hPa 0,0 l/m 11,6 km/h (2 Bft) W 265 0 min 0,000 mm 0,0 UV-I 0 W/m -1,3 C -3,7 C 16,1 km/h (3 Bft) 97,22 %
26.12.2018 00:34 0,9 C 4,4 C 0,0 C 85 % 1033,0 hPa 0,0 l/m 9,6 km/h (2 Bft) W-SW 246 0 min 0,000 mm 0,0 UV-I 0 W/m -1,3 C -2,1 C 14,5 km/h (3 Bft) 95,74 %
26.12.2018 00:36 0,9 C 4,4 C 0,0 C 85 % 1033,1 hPa 0,0 l/m 10,3 km/h (2 Bft) SW 235 0 min 0,000 mm 0,0 UV-I 0 W/m -1,3 C -2,7 C 16,1 km/h (3 Bft) 95,74 %
26.12.2018 00:38 0,9 C 4,4 C 0,0 C 85 % 1033,0 hPa 0,0 l/m 9,6 km/h (2 Bft) W-SW 249 0 min 0,000 mm 0,0 UV-I 0 W/m -1,3 C -2,1 C 17,7 km/h (3 Bft) 97,87 %
26.12.2018 00:40 0,9 C 4,4 C 0,0 C 85 % 1033,1 hPa 0,0 l/m 9,1 km/h (2 Bft) W-SW 240 0 min 0,000 mm 0,0 UV-I 0 W/m -1,3 C -1,7 C 12,9 km/h (3 Bft) 96,00 %
26.12.2018 00:42 0,9 C 4,4 C 0,0 C 85 % 1033,0 hPa 0,0 l/m 10,6 km/h (2 Bft) W-SW 258 0 min 0,000 mm 0,0 UV-I 0 W/m -1,3 C -2,9 C 17,7 km/h (3 Bft) 95,74 %
26.12.2018 00:44 0,9 C 4,4 C 0,0 C 85 % 1033,1 hPa 0,0 l/m 11,0 km/h (2 Bft) W-SW 245 0 min 0,000 mm 0,0 UV-I 0 W/m -1,3 C -3,2 C 16,1 km/h (3 Bft) 95,74 %
26.12.2018 00:46 0,9 C 4,4 C 0,0 C 85 % 1033,1 hPa 0,0 l/m 11,1 km/h (2 Bft) W 259 0 min 0,000 mm 0,0 UV-I 0 W/m -1,3 C -3,3 C 17,7 km/h (3 Bft) 98,00 %
26.12.2018 00:48 0,9 C 4,4 C 0,6 C 85 % 1033,0 hPa 0,0 l/m 11,4 km/h (2 Bft) W 262 0 min 0,000 mm 0,0 UV-I 0 W/m -1,3 C -3,5 C 16,1 km/h (3 Bft) 96,00 %
26.12.2018 00:50 0,9 C 4,4 C 0,6 C 85 % 1033,1 hPa 0,0 l/m 8,5 km/h (2 Bft) W-SW 237 0 min 0,000 mm 0,0 UV-I 0 W/m -1,3 C -1,2 C 12,9 km/h (3 Bft) 95,74 %
26.12.2018 00:52 0,9 C 4,4 C 0,0 C 85 % 1033,1 hPa 0,0 l/m 11,4 km/h (2 Bft) W-SW 240 0 min 0,000 mm 0,0 UV-I 0 W/m -1,3 C -3,5 C 17,7 km/h (3 Bft) 95,74 %
26.12.2018 00:54 0,9 C 4,4 C 0,0 C 85 % 1033,1 hPa 0,0 l/m 11,6 km/h (2 Bft) SW 236 0 min 0,000 mm 0,0 UV-I 0 W/m -1,3 C -3,7 C 16,1 km/h (3 Bft) 97,87 %
26.12.2018 00:56 0,9 C 4,4 C 0,6 C 85 % 1033,1 hPa 0,0 l/m 13,6 km/h (3 Bft) SW 224 0 min 0,000 mm 0,0 UV-I 0 W/m -1,3 C -5,0 C 17,7 km/h (3 Bft) 94,29 %
26.12.2018 00:58 0,9 C 4,4 C 0,0 C 85 % 1033,0 hPa 0,0 l/m 11,1 km/h (2 Bft) W-SW 245 0 min 0,000 mm 0,0 UV-I 0 W/m -1,3 C -3,3 C 14,5 km/h (3 Bft) 93,75 %
26.12.2018 01:00 0,9 C 4,4 C 0,0 C 85 % 1033,1 hPa 0,0 l/m 9,8 km/h (2 Bft) W-SW 246 0 min 0,025 mm 0,0 UV-I 0 W/m -1,3 C -2,3 C 17,7 km/h (3 Bft) 95,74 %
26.12.2018 01:02 1,0 C 4,4 C 0,6 C 85 % 1033,0 hPa 0,0 l/m 11,1 km/h (2 Bft) W-SW 239 0 min 0,000 mm 0,0 UV-I 0 W/m -1,2 C -3,2 C 14,5 km/h (3 Bft) 93,62 %
26.12.2018 01:04 0,9 C 4,4 C 0,6 C 85 % 1033,1 hPa 0,0 l/m 11,3 km/h (2 Bft) W-NW 282 0 min 0,000 mm 0,0 UV-I 0 W/m -1,3 C -3,5 C 14,5 km/h (3 Bft) 95,83 %
26.12.2018 01:06 0,9 C 4,4 C 0,0 C 85 % 1033,1 hPa 0,0 l/m 11,6 km/h (2 Bft) W 267 0 min 0,000 mm 0,0 UV-I 0 W/m -1,3 C -3,7 C 20,9 km/h (4 Bft) 95,74 %
26.12.2018 01:08 0,9 C 4,4 C 0,0 C 85 % 1033,2 hPa 0,0 l/m 12,3 km/h (3 Bft) W-SW 257 0 min 0,000 mm 0,0 UV-I 0 W/m -1,3 C -4,2 C 19,3 km/h (3 Bft) 95,74 %
26.12.2018 01:10 0,9 C 4,4 C 0,0 C 85 % 1033,1 hPa 0,0 l/m 16,1 km/h (3 Bft) W-SW 250 0 min 0,000 mm 0,0 UV-I 0 W/m -1,3 C -6,5 C 20,9 km/h (4 Bft) 95,74 %
26.12.2018 01:12 0,9 C 4,4 C 0,0 C 85 % 1033,1 hPa 0,0 l/m 15,5 km/h (3 Bft) W-SW 249 0 min 0,000 mm 0,0 UV-I 0 W/m -1,3 C -6,2 C 20,9 km/h (4 Bft) 93,62 %
26.12.2018 01:14 0,9 C 4,4 C 0,0 C 85 % 1033,1 hPa 0,0 l/m 12,5 km/h (3 Bft) W 270 0 min 0,000 mm 0,0 UV-I 0 W/m -1,3 C -4,3 C 19,3 km/h (3 Bft) 92,00 %
26.12.2018 01:16 0,9 C 4,4 C 0,0 C 85 % 1032,9 hPa 0,0 l/m 13,8 km/h (3 Bft) W-NW 284 0 min 0,000 mm 0,0 UV-I 0 W/m -1,3 C -5,2 C 19,3 km/h (3 Bft) 90,00 %
26.12.2018 01:18 0,9 C 4,4 C 0,0 C 85 % 1032,9 hPa 0,0 l/m 12,7 km/h (3 Bft) SW 233 0 min 0,000 mm 0,0 UV-I 0 W/m -1,3 C -4,4 C 17,7 km/h (3 Bft) 92,11 %
26.12.2018 01:20 0,9 C 4,4 C 0,0 C 85 % 1032,8 hPa 0,0 l/m 13,6 km/h (3 Bft) SW 225 0 min 0,000 mm 0,0 UV-I 0 W/m -1,3 C -5,0 C 20,9 km/h (4 Bft) 95,74 %
26.12.2018 01:22 0,9 C 4,4 C 0,0 C 85 % 1032,9 hPa 0,0 l/m 14,8 km/h (3 Bft) SW 235 0 min 0,000 mm 0,0 UV-I 0 W/m -1,3 C -5,8 C 19,3 km/h (3 Bft) 94,00 %
26.12.2018 01:24 0,8 C 4,4 C 0,0 C 85 % 1032,9 hPa 0,0 l/m 15,5 km/h (3 Bft) W 264 0 min 0,000 mm 0,0 UV-I 0 W/m -1,4 C -6,3 C 20,9 km/h (4 Bft) 93,62 %
26.12.2018 01:26 0,8 C 4,4 C -0,6 C 85 % 1032,9 hPa 0,0 l/m 14,3 km/h (3 Bft) W 265 0 min 0,000 mm 0,0 UV-I 0 W/m -1,4 C -5,6 C 19,3 km/h (3 Bft) 94,34 %
26.12.2018 01:28 0,8 C 4,4 C -0,6 C 85 % 1032,9 hPa 0,0 l/m 15,4 km/h (3 Bft) SW 230 0 min 0,000 mm 0,0 UV-I 0 W/m -1,4 C -6,2 C 24,1 km/h (4 Bft) 95,74 %
26.12.2018 01:30 0,8 C 4,4 C -0,6 C 85 % 1032,9 hPa 0,0 l/m 16,1 km/h (3 Bft) W-NW 290 0 min 0,000 mm 0,0 UV-I 0 W/m -1,4 C -6,6 C 20,9 km/h (4 Bft) 95,74 %
26.12.2018 01:32 0,7 C 4,4 C -0,6 C 85 % 1032,9 hPa 0,0 l/m 15,1 km/h (3 Bft) W 273 0 min 0,000 mm 0,0 UV-I 0 W/m -1,5 C -6,2 C 24,1 km/h (4 Bft) 97,87 %
26.12.2018 01:34 0,7 C 4,4 C -0,6 C 85 % 1032,9 hPa 0,0 l/m 15,9 km/h (3 Bft) SW 236 0 min 0,000 mm 0,0 UV-I 0 W/m -1,5 C -6,7 C 25,7 km/h (4 Bft) 94,44 %
26.12.2018 01:36 0,7 C 4,4 C -0,6 C 85 % 1032,9 hPa 0,0 l/m 16,5 km/h (3 Bft) W-SW 254 0 min 0,000 mm 0,0 UV-I 0 W/m -1,5 C -7,0 C 24,1 km/h (4 Bft) 95,83 %
26.12.2018 01:38 0,7 C 4,4 C -0,6 C 85 % 1032,9 hPa 0,0 l/m 16,2 km/h (3 Bft) SW 225 0 min 0,000 mm 0,0 UV-I 0 W/m -1,5 C -6,8 C 24,1 km/h (4 Bft) 97,87 %
26.12.2018 01:40 0,7 C 4,4 C -0,6 C 85 % 1033,0 hPa 0,0 l/m 17,9 km/h (3 Bft) W-SW 255 0 min 0,000 mm 0,0 UV-I 0 W/m -1,5 C -7,7 C 24,1 km/h (4 Bft) 95,74 %
26.12.2018 01:42 0,7 C 4,4 C -0,6 C 85 % 1033,1 hPa 0,0 l/m 13,1 km/h (3 Bft) W 260 0 min 0,000 mm 0,0 UV-I 0 W/m -1,5 C -4,9 C 22,5 km/h (4 Bft) 95,83 %
26.12.2018 01:44 0,7 C 4,4 C -0,6 C 85 % 1033,1 hPa 0,0 l/m 14,7 km/h (3 Bft) W 265 0 min 0,000 mm 0,0 UV-I 0 W/m -1,5 C -6,0 C 19,3 km/h (3 Bft) 96,00 %
26.12.2018 01:46 0,6 C 4,4 C -0,6 C 85 % 1033,1 hPa 0,0 l/m 17,3 km/h (3 Bft) W 269 0 min 0,000 mm 0,0 UV-I 0 W/m -1,6 C -7,5 C 27,4 km/h (4 Bft) 95,74 %
26.12.2018 01:48 0,6 C 4,4 C -0,6 C 85 % 1033,1 hPa 0,0 l/m 14,1 km/h (3 Bft) SW 221 0 min 0,000 mm 0,0 UV-I 0 W/m -1,6 C -5,7 C 19,3 km/h (3 Bft) 95,83 %
26.12.2018 01:50 0,6 C 4,4 C -0,6 C 85 % 1033,0 hPa 0,0 l/m 14,9 km/h (3 Bft) SW 229 0 min 0,000 mm 0,0 UV-I 0 W/m -1,6 C -6,2 C 24,1 km/h (4 Bft) 97,87 %
26.12.2018 01:52 0,6 C 4,4 C -0,6 C 85 % 1033,0 hPa 0,0 l/m 15,0 km/h (3 Bft) W-SW 252 0 min 0,000 mm 0,0 UV-I 0 W/m -1,6 C -6,3 C 20,9 km/h (4 Bft) 97,87 %
26.12.2018 01:54 0,6 C 4,4 C -0,6 C 85 % 1033,0 hPa 0,0 l/m 14,3 km/h (3 Bft) SW 235 0 min 0,000 mm 0,0 UV-I 0 W/m -1,6 C -5,8 C 20,9 km/h (4 Bft) 97,92 %
26.12.2018 01:56 0,6 C 4,4 C -0,6 C 86 % 1032,9 hPa 0,0 l/m 13,0 km/h (3 Bft) W-SW 255 0 min 0,000 mm 0,0 UV-I 0 W/m -1,5 C -5,0 C 19,3 km/h (3 Bft) 100,00 %
26.12.2018 01:58 0,5 C 4,4 C -0,6 C 86 % 1032,9 hPa 0,0 l/m 18,0 km/h (3 Bft) W 264 0 min 0,000 mm 0,0 UV-I 0 W/m -1,6 C -8,0 C 27,4 km/h (4 Bft) 95,74 %
26.12.2018 02:00 0,6 C 4,4 C -0,6 C 86 % 1032,9 hPa 0,0 l/m 17,4 km/h (3 Bft) W-SW 252 0 min 0,026 mm 0,0 UV-I 0 W/m -1,5 C -7,6 C 24,1 km/h (4 Bft) 100,00 %
26.12.2018 02:02 0,5 C 4,4 C -0,6 C 86 % 1032,9 hPa 0,0 l/m 16,5 km/h (3 Bft) SW 229 0 min 0,000 mm 0,0 UV-I 0 W/m -1,6 C -7,2 C 24,1 km/h (4 Bft) 95,74 %
26.12.2018 02:04 0,5 C 4,4 C -0,6 C 86 % 1032,9 hPa 0,0 l/m 14,4 km/h (3 Bft) W-SW 255 0 min 0,000 mm 0,0 UV-I 0 W/m -1,6 C -6,0 C 22,5 km/h (4 Bft) 100,00 %
26.12.2018 02:06 0,5 C 4,4 C -0,6 C 86 % 1032,9 hPa 0,0 l/m 16,2 km/h (3 Bft) W-SW 256 0 min 0,000 mm 0,0 UV-I 0 W/m -1,6 C -7,1 C 20,9 km/h (4 Bft) 97,87 %
26.12.2018 02:08 0,4 C 4,4 C -0,6 C 86 % 1032,9 hPa 0,0 l/m 14,0 km/h (3 Bft) SW 227 0 min 0,000 mm 0,0 UV-I 0 W/m -1,7 C -5,9 C 19,3 km/h (3 Bft) 100,00 %
26.12.2018 02:10 0,4 C 4,4 C -1,1 C 86 % 1032,8 hPa 0,0 l/m 15,2 km/h (3 Bft) W-SW 252 0 min 0,000 mm 0,0 UV-I 0 W/m -1,7 C -6,6 C 22,5 km/h (4 Bft) 97,87 %
26.12.2018 02:12 0,4 C 4,4 C -1,1 C 86 % 1032,8 hPa 0,0 l/m 15,1 km/h (3 Bft) SW 236 0 min 0,000 mm 0,0 UV-I 0 W/m -1,7 C -6,6 C 24,1 km/h (4 Bft) 97,87 %
26.12.2018 02:14 0,4 C 4,4 C -1,1 C 86 % 1032,8 hPa 0,0 l/m 14,6 km/h (3 Bft) W-SW 238 0 min 0,000 mm 0,0 UV-I 0 W/m -1,7 C -6,3 C 20,9 km/h (4 Bft) 93,62 %
26.12.2018 02:16 0,4 C 4,4 C -0,6 C 87 % 1032,9 hPa 0,0 l/m 15,4 km/h (3 Bft) SW 231 0 min 0,000 mm 0,0 UV-I 0 W/m -1,5 C -6,7 C 22,5 km/h (4 Bft) 93,62 %
26.12.2018 02:18 0,4 C 4,4 C -1,1 C 87 % 1032,8 hPa 0,0 l/m 11,7 km/h (2 Bft) W 259 0 min 0,000 mm 0,0 UV-I 0 W/m -1,5 C -4,3 C 19,3 km/h (3 Bft) 95,74 %
26.12.2018 02:20 0,4 C 4,4 C -1,1 C 87 % 1032,8 hPa 0,0 l/m 12,7 km/h (3 Bft) W 265 0 min 0,000 mm 0,0 UV-I 0 W/m -1,5 C -5,0 C 25,7 km/h (4 Bft) 97,87 %
26.12.2018 02:22 0,4 C 4,4 C -1,1 C 87 % 1032,8 hPa 0,0 l/m 16,1 km/h (3 Bft) W-SW 249 0 min 0,000 mm 0,0 UV-I 0 W/m -1,5 C -7,1 C 24,1 km/h (4 Bft) 95,74 %
26.12.2018 02:24 0,4 C 4,4 C -0,6 C 87 % 1032,9 hPa 0,0 l/m 16,2 km/h (3 Bft) SW 221 0 min 0,000 mm 0,0 UV-I 0 W/m -1,5 C -7,2 C 24,1 km/h (4 Bft) 97,22 %
26.12.2018 02:26 0,4 C 4,4 C -0,6 C 87 % 1032,9 hPa 0,0 l/m 15,7 km/h (3 Bft) W 269 0 min 0,000 mm 0,0 UV-I 0 W/m -1,5 C -6,9 C 24,1 km/h (4 Bft) 98,11 %
26.12.2018 02:28 0,4 C 4,4 C -0,6 C 87 % 1032,8 hPa 0,0 l/m 13,2 km/h (3 Bft) W 273 0 min 0,000 mm 0,0 UV-I 0 W/m -1,5 C -5,4 C 24,1 km/h (4 Bft) 97,87 %
26.12.2018 02:30 0,4 C 4,4 C -0,6 C 87 % 1032,9 hPa 0,0 l/m 14,1 km/h (3 Bft) W-SW 243 0 min 0,000 mm 0,0 UV-I 0 W/m -1,5 C -5,9 C 20,9 km/h (4 Bft) 97,87 %
26.12.2018 02:32 0,4 C 4,4 C -0,6 C 87 % 1032,9 hPa 0,0 l/m 12,0 km/h (2 Bft) W 262 0 min 0,000 mm 0,0 UV-I 0 W/m -1,5 C -4,5 C 19,3 km/h (3 Bft) 100,00 %
26.12.2018 02:34 0,4 C 4,4 C -0,6 C 86 % 1032,9 hPa 0,0 l/m 12,0 km/h (2 Bft) W 266 0 min 0,000 mm 0,0 UV-I 0 W/m -1,7 C -4,5 C 17,7 km/h (3 Bft) 97,87 %
26.12.2018 02:36 0,4 C 4,4 C -0,6 C 86 % 1032,9 hPa 0,0 l/m 15,4 km/h (3 Bft) W-SW 245 0 min 0,000 mm 0,0 UV-I 0 W/m -1,7 C -6,7 C 25,7 km/h (4 Bft) 100,00 %
26.12.2018 02:38 0,5 C 4,4 C -0,6 C 86 % 1032,9 hPa 0,0 l/m 13,8 km/h (3 Bft) W-SW 252 0 min 0,000 mm 0,0 UV-I 0 W/m -1,6 C -5,6 C 19,3 km/h (3 Bft) 100,00 %
26.12.2018 02:40 0,4 C 4,4 C -0,6 C 86 % 1032,9 hPa 0,0 l/m 13,8 km/h (3 Bft) W-SW 242 0 min 0,000 mm 0,0 UV-I 0 W/m -1,7 C -5,8 C 20,9 km/h (4 Bft) 95,74 %
26.12.2018 02:42 0,4 C 4,4 C -0,6 C 86 % 1032,9 hPa 0,0 l/m 14,9 km/h (3 Bft) W-SW 245 0 min 0,000 mm 0,0 UV-I 0 W/m -1,7 C -6,4 C 20,9 km/h (4 Bft) 100,00 %
26.12.2018 02:44 0,5 C 4,4 C -0,6 C 86 % 1033,0 hPa 0,0 l/m 14,6 km/h (3 Bft) W-SW 257 0 min 0,000 mm 0,0 UV-I 0 W/m -1,6 C -6,1 C 19,3 km/h (3 Bft) 98,00 %
26.12.2018 02:46 0,5 C 4,4 C -0,6 C 86 % 1033,0 hPa 0,0 l/m 14,2 km/h (3 Bft) W-SW 249 0 min 0,000 mm 0,0 UV-I 0 W/m -1,6 C -5,9 C 19,3 km/h (3 Bft) 97,87 %
26.12.2018 02:48 0,5 C 4,4 C -0,6 C 86 % 1033,0 hPa 0,0 l/m 14,8 km/h (3 Bft) SW 235 0 min 0,000 mm 0,0 UV-I 0 W/m -1,6 C -6,3 C 22,5 km/h (4 Bft) 95,74 %
26.12.2018 02:50 0,5 C 4,4 C -0,6 C 86 % 1033,0 hPa 0,0 l/m 12,6 km/h (3 Bft) W 268 0 min 0,000 mm 0,0 UV-I 0 W/m -1,6 C -4,8 C 17,7 km/h (3 Bft) 100,00 %
26.12.2018 02:52 0,5 C 4,4 C -0,6 C 86 % 1033,1 hPa 0,0 l/m 12,0 km/h (2 Bft) W 277 0 min 0,000 mm 0,0 UV-I 0 W/m -1,6 C -4,4 C 17,7 km/h (3 Bft) 97,87 %
26.12.2018 02:54 0,5 C 4,4 C -0,6 C 86 % 1033,1 hPa 0,0 l/m 13,5 km/h (3 Bft) W-SW 248 0 min 0,000 mm 0,0 UV-I 0 W/m -1,6 C -5,4 C 17,7 km/h (3 Bft) 100,00 %
26.12.2018 02:56 0,6 C 4,4 C -0,6 C 86 % 1033,1 hPa 0,0 l/m 14,1 km/h (3 Bft) W-SW 239 0 min 0,000 mm 0,0 UV-I 0 W/m -1,5 C -5,7 C 19,3 km/h (3 Bft) 95,74 %
26.12.2018 02:58 0,6 C 4,4 C -0,6 C 86 % 1033,0 hPa 0,0 l/m 13,1 km/h (3 Bft) W-SW 258 0 min 0,000 mm 0,0 UV-I 0 W/m -1,5 C -5,1 C 19,3 km/h (3 Bft) 97,87 %
26.12.2018 03:00 0,6 C 4,4 C -0,6 C 86 % 1033,0 hPa 0,0 l/m 11,0 km/h (2 Bft) SW 223 0 min 0,025 mm 0,0 UV-I 0 W/m -1,5 C -3,6 C 16,1 km/h (3 Bft) 100,00 %
26.12.2018 03:02 0,5 C 4,4 C -0,6 C 86 % 1032,9 hPa 0,0 l/m 14,4 km/h (3 Bft) W-SW 245 0 min 0,000 mm 0,0 UV-I 0 W/m -1,6 C -6,0 C 20,9 km/h (4 Bft) 98,00 %
26.12.2018 03:04 0,6 C 4,4 C -0,6 C 86 % 1032,9 hPa 0,0 l/m 14,3 km/h (3 Bft) SW 234 0 min 0,000 mm 0,0 UV-I 0 W/m -1,5 C -5,8 C 20,9 km/h (4 Bft) 100,00 %
26.12.2018 03:06 0,5 C 4,4 C -0,6 C 86 % 1032,8 hPa 0,0 l/m 11,7 km/h (2 Bft) W-SW 238 0 min 0,000 mm 0,0 UV-I 0 W/m -1,6 C -4,2 C 19,3 km/h (3 Bft) 100,00 %
26.12.2018 03:08 0,5 C 4,4 C -0,6 C 86 % 1032,8 hPa 0,0 l/m 12,7 km/h (3 Bft) W-SW 238 0 min 0,000 mm 0,0 UV-I 0 W/m -1,6 C -4,9 C 22,5 km/h (4 Bft) 100,00 %
26.12.2018 03:10 0,5 C 4,4 C -0,6 C 86 % 1032,7 hPa 0,0 l/m 13,3 km/h (3 Bft) W-SW 244 0 min 0,000 mm 0,0 UV-I 0 W/m -1,6 C -5,3 C 20,9 km/h (4 Bft) 100,00 %
26.12.2018 03:12 0,4 C 4,4 C -0,6 C 86 % 1032,8 hPa 0,0 l/m 14,4 km/h (3 Bft) W-SW 255 0 min 0,000 mm 0,0 UV-I 0 W/m -1,7 C -6,1 C 22,5 km/h (4 Bft) 94,34 %
26.12.2018 03:14 0,4 C 4,4 C -0,6 C 86 % 1032,7 hPa 0,0 l/m 10,5 km/h (2 Bft) W-SW 249 0 min 0,000 mm 0,0 UV-I 0 W/m -1,7 C -3,4 C 17,7 km/h (3 Bft) 97,87 %
26.12.2018 03:16 0,4 C 4,4 C -0,6 C 86 % 1032,7 hPa 0,0 l/m 13,7 km/h (3 Bft) W-SW 246 0 min 0,000 mm 0,0 UV-I 0 W/m -1,7 C -5,7 C 20,9 km/h (4 Bft) 97,87 %
26.12.2018 03:18 0,4 C 4,4 C -0,6 C 86 % 1032,7 hPa 0,0 l/m 18,1 km/h (3 Bft) SW 235 0 min 0,000 mm 0,0 UV-I 0 W/m -1,7 C -8,2 C 27,4 km/h (4 Bft) 100,00 %
26.12.2018 03:20 0,3 C 4,4 C -1,1 C 86 % 1032,7 hPa 0,0 l/m 13,0 km/h (3 Bft) W-SW 251 0 min 0,000 mm 0,0 UV-I 0 W/m -1,8 C -5,4 C 24,1 km/h (4 Bft) 97,87 %
26.12.2018 03:22 0,3 C 4,4 C -1,1 C 86 % 1032,7 hPa 0,0 l/m 12,0 km/h (2 Bft) SW 234 0 min 0,000 mm 0,0 UV-I 0 W/m -1,8 C -4,7 C 22,5 km/h (4 Bft) 97,87 %
26.12.2018 03:24 0,3 C 4,4 C -1,1 C 86 % 1032,7 hPa 0,0 l/m 15,3 km/h (3 Bft) W-SW 246 0 min 0,000 mm 0,0 UV-I 0 W/m -1,8 C -6,8 C 22,5 km/h (4 Bft) 94,74 %
26.12.2018 03:26 0,3 C 4,4 C -0,6 C 86 % 1032,7 hPa 0,0 l/m 13,5 km/h (3 Bft) W-SW 258 0 min 0,000 mm 0,0 UV-I 0 W/m -1,8 C -5,7 C 17,7 km/h (3 Bft) 95,74 %
26.12.2018 03:28 0,3 C 4,4 C -0,6 C 86 % 1032,7 hPa 0,0 l/m 13,7 km/h (3 Bft) SW 229 0 min 0,000 mm 0,0 UV-I 0 W/m -1,8 C -5,8 C 22,5 km/h (4 Bft) 93,62 %
26.12.2018 03:30 0,3 C 4,4 C -0,6 C 86 % 1032,6 hPa 0,0 l/m 14,5 km/h (3 Bft) W-SW 248 0 min 0,000 mm 0,0 UV-I 0 W/m -1,8 C -6,3 C 19,3 km/h (3 Bft) 93,62 %
26.12.2018 03:32 0,4 C 4,4 C -0,6 C 86 % 1032,6 hPa 0,0 l/m 14,8 km/h (3 Bft) SW 232 0 min 0,000 mm 0,0 UV-I 0 W/m -1,7 C -6,4 C 20,9 km/h (4 Bft) 96,00 %
26.12.2018 03:34 0,4 C 4,4 C -0,6 C 86 % 1032,6 hPa 0,0 l/m 15,2 km/h (3 Bft) W-SW 238 0 min 0,000 mm 0,0 UV-I 0 W/m -1,7 C -6,6 C 20,9 km/h (4 Bft) 93,62 %
26.12.2018 03:36 0,3 C 4,4 C -0,6 C 86 % 1032,6 hPa 0,0 l/m 13,6 km/h (3 Bft) W-SW 240 0 min 0,000 mm 0,0 UV-I 0 W/m -1,8 C -5,7 C 20,9 km/h (4 Bft) 95,74 %
26.12.2018 03:38 0,3 C 4,4 C -0,6 C 86 % 1032,6 hPa 0,0 l/m 12,2 km/h (2 Bft) W-SW 247 0 min 0,000 mm 0,0 UV-I 0 W/m -1,8 C -4,8 C 17,7 km/h (3 Bft) 95,74 %
26.12.2018 03:40 0,3 C 4,4 C -0,6 C 86 % 1032,6 hPa 0,0 l/m 12,3 km/h (3 Bft) W-SW 248 0 min 0,000 mm 0,0 UV-I 0 W/m -1,8 C -4,9 C 20,9 km/h (4 Bft) 87,23 %
26.12.2018 03:42 0,3 C 4,4 C -0,6 C 86 % 1032,5 hPa 0,0 l/m 10,2 km/h (2 Bft) SW 224 0 min 0,000 mm 0,0 UV-I 0 W/m -1,8 C -3,3 C 16,1 km/h (3 Bft) 95,83 %
26.12.2018 03:44 0,3 C 4,4 C -0,6 C 86 % 1032,5 hPa 0,0 l/m 12,2 km/h (2 Bft) SW 225 0 min 0,000 mm 0,0 UV-I 0 W/m -1,8 C -4,8 C 19,3 km/h (3 Bft) 93,62 %
26.12.2018 03:46 0,3 C 4,4 C -0,6 C 86 % 1032,4 hPa 0,0 l/m 11,5 km/h (2 Bft) SW 221 0 min 0,000 mm 0,0 UV-I 0 W/m -1,8 C -4,3 C 19,3 km/h (3 Bft) 97,87 %
26.12.2018 03:48 0,3 C 4,4 C -0,6 C 86 % 1032,4 hPa 0,0 l/m 11,3 km/h (2 Bft) SW 226 0 min 0,000 mm 0,0 UV-I 0 W/m -1,8 C -4,1 C 19,3 km/h (3 Bft) 97,87 %
26.12.2018 03:50 0,3 C 4,4 C -0,6 C 86 % 1032,2 hPa 0,0 l/m 11,1 km/h (2 Bft) SW 215 0 min 0,000 mm 0,0 UV-I 0 W/m -1,8 C -4,0 C 20,9 km/h (4 Bft) 97,87 %
26.12.2018 03:52 0,3 C 4,4 C -0,6 C 86 % 1032,3 hPa 0,0 l/m 7,2 km/h (2 Bft) W-SW 243 0 min 0,000 mm 0,0 UV-I 0 W/m -1,8 C -0,5 C 12,9 km/h (3 Bft) 93,62 %
26.12.2018 03:54 0,3 C 4,4 C -0,6 C 86 % 1032,2 hPa 0,0 l/m 6,7 km/h (2 Bft) W-SW 243 0 min 0,000 mm 0,0 UV-I 0 W/m -1,8 C 0,0 C 12,9 km/h (3 Bft) 97,87 %
26.12.2018 03:56 0,3 C 4,4 C -0,6 C 86 % 1032,2 hPa 0,0 l/m 11,2 km/h (2 Bft) SW 218 0 min 0,000 mm 0,0 UV-I 0 W/m -1,8 C -4,1 C 17,7 km/h (3 Bft) 98,00 %
26.12.2018 03:58 0,3 C 4,4 C -0,6 C 86 % 1032,1 hPa 0,0 l/m 10,5 km/h (2 Bft) SW 219 0 min 0,000 mm 0,0 UV-I 0 W/m -1,8 C -3,5 C 16,1 km/h (3 Bft) 97,87 %
26.12.2018 04:00 0,3 C 4,4 C -0,6 C 86 % 1032,1 hPa 0,0 l/m 9,9 km/h (2 Bft) SW 227 0 min 0,026 mm 0,0 UV-I 0 W/m -1,8 C -3,0 C 17,7 km/h (3 Bft) 91,49 %
26.12.2018 04:02 0,3 C 4,4 C -0,6 C 86 % 1032,1 hPa 0,0 l/m 10,4 km/h (2 Bft) SW 219 0 min 0,000 mm 0,0 UV-I 0 W/m -1,8 C -3,4 C 14,5 km/h (3 Bft) 95,24 %
26.12.2018 04:04 0,3 C 4,4 C -0,6 C 86 % 1032,1 hPa 0,0 l/m 7,8 km/h (2 Bft) W-SW 239 0 min 0,000 mm 0,0 UV-I 0 W/m -1,8 C -1,1 C 12,9 km/h (3 Bft) 97,87 %
26.12.2018 04:06 0,3 C 4,4 C -0,6 C 86 % 1032,1 hPa 0,0 l/m 8,5 km/h (2 Bft) SW 233 0 min 0,000 mm 0,0 UV-I 0 W/m -1,8 C -1,8 C 16,1 km/h (3 Bft) 100,00 %
26.12.2018 04:08 0,3 C 4,4 C -0,6 C 86 % 1032,2 hPa 0,0 l/m 8,8 km/h (2 Bft) W-SW 244 0 min 0,000 mm 0,0 UV-I 0 W/m -1,8 C -2,1 C 14,5 km/h (3 Bft) 100,00 %
26.12.2018 04:10 0,3 C 4,4 C -0,6 C 86 % 1032,2 hPa 0,0 l/m 10,9 km/h (2 Bft) SW 229 0 min 0,000 mm 0,0 UV-I 0 W/m -1,8 C -3,8 C 17,7 km/h (3 Bft) 97,87 %
26.12.2018 04:12 0,3 C 4,4 C -0,6 C 86 % 1032,2 hPa 0,0 l/m 10,0 km/h (2 Bft) SW 229 0 min 0,000 mm 0,0 UV-I 0 W/m -1,8 C -3,1 C 16,1 km/h (3 Bft) 97,87 %
26.12.2018 04:14 0,3 C 4,4 C -0,6 C 86 % 1032,2 hPa 0,0 l/m 7,5 km/h (2 Bft) SW 227 0 min 0,000 mm 0,0 UV-I 0 W/m -1,8 C -0,8 C 12,9 km/h (3 Bft) 97,14 %
26.12.2018 04:16 0,3 C 4,4 C -0,6 C 86 % 1032,1 hPa 0,0 l/m 8,4 km/h (2 Bft) SW 227 0 min 0,000 mm 0,0 UV-I 0 W/m -1,8 C -1,7 C 12,9 km/h (3 Bft) 97,87 %
26.12.2018 04:18 0,3 C 4,4 C -0,6 C 86 % 1032,1 hPa 0,0 l/m 8,4 km/h (2 Bft) W 262 0 min 0,000 mm 0,0 UV-I 0 W/m -1,8 C -1,7 C 12,9 km/h (3 Bft) 100,00 %
26.12.2018 04:20 0,3 C 4,4 C -1,1 C 86 % 1032,2 hPa 0,0 l/m 11,2 km/h (2 Bft) W-SW 252 0 min 0,000 mm 0,0 UV-I 0 W/m -1,8 C -4,1 C 14,5 km/h (3 Bft) 97,87 %
26.12.2018 04:22 0,3 C 4,4 C -1,1 C 86 % 1032,2 hPa 0,0 l/m 11,4 km/h (2 Bft) W-SW 254 0 min 0,000 mm 0,0 UV-I 0 W/m -1,8 C -4,2 C 17,7 km/h (3 Bft) 97,87 %
26.12.2018 04:24 0,3 C 4,4 C -1,1 C 86 % 1032,2 hPa 0,0 l/m 13,0 km/h (3 Bft) W 276 0 min 0,000 mm 0,0 UV-I 0 W/m -1,8 C -5,4 C 17,7 km/h (3 Bft) 97,87 %
26.12.2018 04:26 0,3 C 4,4 C -1,1 C 86 % 1032,2 hPa 0,0 l/m 12,1 km/h (2 Bft) W 281 0 min 0,000 mm 0,0 UV-I 0 W/m -1,8 C -4,7 C 17,7 km/h (3 Bft) 95,74 %
26.12.2018 04:28 0,3 C 4,4 C -1,1 C 86 % 1032,2 hPa 0,0 l/m 10,8 km/h (2 Bft) W 265 0 min 0,000 mm 0,0 UV-I 0 W/m -1,8 C -3,8 C 16,1 km/h (3 Bft) 95,74 %
26.12.2018 04:30 0,3 C 4,4 C -1,1 C 86 % 1032,2 hPa 0,0 l/m 11,6 km/h (2 Bft) W 272 0 min 0,000 mm 0,0 UV-I 0 W/m -1,8 C -4,4 C 16,1 km/h (3 Bft) 95,74 %
26.12.2018 04:32 0,3 C 4,4 C -1,1 C 86 % 1032,1 hPa 0,0 l/m 11,1 km/h (2 Bft) W-SW 250 0 min 0,000 mm 0,0 UV-I 0 W/m -1,8 C -4,0 C 17,7 km/h (3 Bft) 93,62 %
26.12.2018 04:34 0,3 C 4,4 C -1,1 C 85 % 1032,1 hPa 0,0 l/m 9,9 km/h (2 Bft) W 266 0 min 0,000 mm 0,0 UV-I 0 W/m -1,9 C -3,0 C 12,9 km/h (3 Bft) 98,00 %
26.12.2018 04:36 0,3 C 4,4 C -1,1 C 85 % 1032,0 hPa 0,0 l/m 13,2 km/h (3 Bft) W-SW 241 0 min 0,000 mm 0,0 UV-I 0 W/m -1,9 C -5,5 C 20,9 km/h (4 Bft) 97,87 %
26.12.2018 04:38 0,4 C 4,4 C -1,1 C 85 % 1031,9 hPa 0,0 l/m 12,2 km/h (2 Bft) W 264 0 min 0,000 mm 0,0 UV-I 0 W/m -1,8 C -4,7 C 22,5 km/h (4 Bft) 95,74 %
26.12.2018 04:40 0,5 C 4,4 C -0,6 C 85 % 1031,9 hPa 0,0 l/m 14,4 km/h (3 Bft) W-SW 238 0 min 0,000 mm 0,0 UV-I 0 W/m -1,7 C -6,0 C 22,5 km/h (4 Bft) 93,62 %
26.12.2018 04:42 0,6 C 4,4 C -0,6 C 85 % 1031,8 hPa 0,0 l/m 15,5 km/h (3 Bft) W 271 0 min 0,000 mm 0,0 UV-I 0 W/m -1,6 C -6,5 C 22,5 km/h (4 Bft) 94,00 %
26.12.2018 04:44 0,6 C 4,4 C -0,6 C 84 % 1031,7 hPa 0,0 l/m 9,7 km/h (2 Bft) W-SW 238 0 min 0,000 mm 0,0 UV-I 0 W/m -1,8 C -2,5 C 24,1 km/h (4 Bft) 94,29 %
26.12.2018 04:46 0,6 C 4,4 C -0,6 C 84 % 1031,6 hPa 0,0 l/m 11,6 km/h (2 Bft) W 260 0 min 0,000 mm 0,0 UV-I 0 W/m -1,8 C -4,0 C 16,1 km/h (3 Bft) 92,00 %
26.12.2018 04:48 0,6 C 4,4 C -0,6 C 84 % 1031,5 hPa 0,0 l/m 13,7 km/h (3 Bft) W-SW 242 0 min 0,000 mm 0,0 UV-I 0 W/m -1,8 C -5,5 C 22,5 km/h (4 Bft) 95,74 %
26.12.2018 04:50 0,6 C 4,4 C -0,6 C 84 % 1031,5 hPa 0,0 l/m 13,6 km/h (3 Bft) W-SW 242 0 min 0,000 mm 0,0 UV-I 0 W/m -1,8 C -5,4 C 17,7 km/h (3 Bft) 90,57 %
26.12.2018 04:52 0,6 C 4,4 C -0,6 C 84 % 1031,5 hPa 0,0 l/m 15,0 km/h (3 Bft) SW 223 0 min 0,000 mm 0,0 UV-I 0 W/m -1,8 C -6,3 C 20,9 km/h (4 Bft) 94,44 %
26.12.2018 04:54 0,6 C 4,4 C -0,6 C 84 % 1031,4 hPa 0,0 l/m 13,5 km/h (3 Bft) W-SW 243 0 min 0,000 mm 0,0 UV-I 0 W/m -1,8 C -5,3 C 19,3 km/h (3 Bft) 94,55 %
26.12.2018 04:56 0,5 C 4,4 C -0,6 C 84 % 1031,6 hPa 0,0 l/m 13,7 km/h (3 Bft) W 261 0 min 0,000 mm 0,0 UV-I 0 W/m -1,9 C -5,6 C 20,9 km/h (4 Bft) 94,00 %
26.12.2018 04:58 0,6 C 4,4 C -0,6 C 84 % 1031,5 hPa 0,0 l/m 15,2 km/h (3 Bft) W 266 0 min 0,000 mm 0,0 UV-I 0 W/m -1,8 C -6,4 C 24,1 km/h (4 Bft) 95,74 %
26.12.2018 05:00 0,6 C 4,4 C -0,6 C 84 % 1031,5 hPa 0,0 l/m 14,6 km/h (3 Bft) W-SW 244 0 min 0,025 mm 0,0 UV-I 0 W/m -1,8 C -6,0 C 24,1 km/h (4 Bft) 97,92 %
26.12.2018 05:02 0,5 C 4,4 C -0,6 C 84 % 1031,5 hPa 0,0 l/m 13,5 km/h (3 Bft) W-SW 240 0 min 0,000 mm 0,0 UV-I 0 W/m -1,9 C -5,4 C 17,7 km/h (3 Bft) 95,74 %
26.12.2018 05:04 0,6 C 4,4 C -0,6 C 85 % 1031,5 hPa 0,0 l/m 15,4 km/h (3 Bft) W 260 0 min 0,000 mm 0,0 UV-I 0 W/m -1,6 C -6,5 C 27,4 km/h (4 Bft) 97,87 %
26.12.2018 05:06 0,6 C 4,4 C -0,6 C 84 % 1031,6 hPa 0,0 l/m 17,9 km/h (3 Bft) W 278 0 min 0,000 mm 0,0 UV-I 0 W/m -1,8 C -7,8 C 22,5 km/h (4 Bft) 95,74 %
26.12.2018 05:08 0,5 C 4,4 C -0,6 C 84 % 1031,4 hPa 0,0 l/m 15,5 km/h (3 Bft) W-SW 253 0 min 0,000 mm 0,0 UV-I 0 W/m -1,9 C -6,7 C 24,1 km/h (4 Bft) 94,74 %
26.12.2018 05:10 0,6 C 4,4 C -0,6 C 84 % 1031,4 hPa 0,0 l/m 13,8 km/h (3 Bft) SW 227 0 min 0,000 mm 0,0 UV-I 0 W/m -1,8 C -5,5 C 24,1 km/h (4 Bft) 97,87 %
26.12.2018 05:12 0,5 C 4,4 C -0,6 C 84 % 1031,4 hPa 0,0 l/m 14,1 km/h (3 Bft) W 259 0 min 0,000 mm 0,0 UV-I 0 W/m -1,9 C -5,8 C 19,3 km/h (3 Bft) 90,00 %
26.12.2018 05:14 0,4 C 4,4 C -0,6 C 85 % 1031,3 hPa 0,0 l/m 14,4 km/h (3 Bft) SW 227 0 min 0,000 mm 0,0 UV-I 0 W/m -1,8 C -6,1 C 22,5 km/h (4 Bft) 100,00 %
26.12.2018 05:16 0,4 C 4,4 C -0,6 C 85 % 1031,4 hPa 0,0 l/m 15,9 km/h (3 Bft) W-SW 243 0 min 0,000 mm 0,0 UV-I 0 W/m -1,8 C -7,0 C 24,1 km/h (4 Bft) 97,87 %
26.12.2018 05:18 0,3 C 4,4 C -1,1 C 85 % 1031,4 hPa 0,0 l/m 12,3 km/h (3 Bft) SW 227 0 min 0,000 mm 0,0 UV-I 0 W/m -1,9 C -4,9 C 19,3 km/h (3 Bft) 98,00 %
26.12.2018 05:20 0,3 C 4,4 C -1,1 C 85 % 1031,5 hPa 0,0 l/m 14,2 km/h (3 Bft) W-SW 254 0 min 0,000 mm 0,0 UV-I 0 W/m -1,9 C -6,1 C 20,9 km/h (4 Bft) 97,14 %
26.12.2018 05:22 0,3 C 4,4 C -0,6 C 85 % 1031,5 hPa 0,0 l/m 14,9 km/h (3 Bft) SW 229 0 min 0,000 mm 0,0 UV-I 0 W/m -1,9 C -6,6 C 19,3 km/h (3 Bft) 96,00 %
26.12.2018 05:24 0,3 C 4,4 C -0,6 C 85 % 1031,5 hPa 0,0 l/m 13,4 km/h (3 Bft) W-SW 249 0 min 0,000 mm 0,0 UV-I 0 W/m -1,9 C -5,6 C 22,5 km/h (4 Bft) 98,00 %
26.12.2018 05:26 0,3 C 4,4 C -0,6 C 85 % 1031,4 hPa 0,0 l/m 17,0 km/h (3 Bft) W-SW 255 0 min 0,000 mm 0,0 UV-I 0 W/m -1,9 C -7,8 C 25,7 km/h (4 Bft) 97,87 %
26.12.2018 05:28 0,4 C 4,4 C 0,0 C 85 % 1031,4 hPa 0,0 l/m 13,3 km/h (3 Bft) W 261 0 min 0,000 mm 0,0 UV-I 0 W/m -1,8 C -5,4 C 20,9 km/h (4 Bft) 93,62 %
26.12.2018 05:30 0,4 C 4,4 C 0,0 C 85 % 1031,4 hPa 0,0 l/m 14,5 km/h (3 Bft) SW 236 0 min 0,000 mm 0,0 UV-I 0 W/m -1,8 C -6,2 C 20,9 km/h (4 Bft) 95,74 %
26.12.2018 05:32 0,4 C 4,4 C 0,0 C 85 % 1031,4 hPa 0,0 l/m 15,9 km/h (3 Bft) W-SW 240 0 min 0,000 mm 0,0 UV-I 0 W/m -1,8 C -7,0 C 25,7 km/h (4 Bft) 98,11 %
26.12.2018 05:34 0,4 C 4,4 C 0,0 C 85 % 1031,4 hPa 0,0 l/m 13,2 km/h (3 Bft) SW 234 0 min 0,000 mm 0,0 UV-I 0 W/m -1,8 C -5,4 C 22,5 km/h (4 Bft) 100,00 %
26.12.2018 05:36 0,4 C 4,4 C 0,0 C 86 % 1031,4 hPa 0,0 l/m 15,4 km/h (3 Bft) SW 236 0 min 0,000 mm 0,0 UV-I 0 W/m -1,7 C -6,7 C 22,5 km/h (4 Bft) 100,00 %
26.12.2018 05:38 0,4 C 4,4 C 0,0 C 86 % 1031,4 hPa 0,0 l/m 14,6 km/h (3 Bft) W-SW 245 0 min 0,000 mm 0,0 UV-I 0 W/m -1,7 C -6,3 C 25,7 km/h (4 Bft) 97,92 %
26.12.2018 05:40 0,4 C 4,4 C 0,0 C 85 % 1031,4 hPa 0,0 l/m 13,4 km/h (3 Bft) W-SW 238 0 min 0,000 mm 0,0 UV-I 0 W/m -1,8 C -5,5 C 19,3 km/h (3 Bft) 97,87 %
26.12.2018 05:42 0,5 C 4,4 C 0,0 C 85 % 1031,4 hPa 0,0 l/m 13,8 km/h (3 Bft) SW 235 0 min 0,000 mm 0,0 UV-I 0 W/m -1,7 C -5,6 C 19,3 km/h (3 Bft) 98,00 %
26.12.2018 05:44 0,5 C 4,4 C 0,0 C 85 % 1031,4 hPa 0,0 l/m 14,4 km/h (3 Bft) SW 216 0 min 0,000 mm 0,0 UV-I 0 W/m -1,7 C -6,0 C 24,1 km/h (4 Bft) 95,74 %
26.12.2018 05:46 0,6 C 4,4 C 0,0 C 85 % 1031,4 hPa 0,0 l/m 14,3 km/h (3 Bft) W 269 0 min 0,000 mm 0,0 UV-I 0 W/m -1,6 C -5,8 C 24,1 km/h (4 Bft) 95,74 %
26.12.2018 05:48 0,6 C 4,4 C 0,0 C 85 % 1031,4 hPa 0,0 l/m 16,0 km/h (3 Bft) W 261 0 min 0,000 mm 0,0 UV-I 0 W/m -1,6 C -6,8 C 22,5 km/h (4 Bft) 94,74 %
26.12.2018 05:50 0,6 C 4,4 C 0,0 C 85 % 1031,4 hPa 0,0 l/m 16,6 km/h (3 Bft) W 275 0 min 0,000 mm 0,0 UV-I 0 W/m -1,6 C -7,2 C 22,5 km/h (4 Bft) 93,62 %
26.12.2018 05:52 0,6 C 4,4 C 0,0 C 85 % 1031,4 hPa 0,0 l/m 14,6 km/h (3 Bft) W-NW 300 0 min 0,000 mm 0,0 UV-I 0 W/m -1,6 C -6,0 C 20,9 km/h (4 Bft) 96,00 %
26.12.2018 05:54 0,6 C 4,4 C 0,0 C 85 % 1031,4 hPa 0,0 l/m 10,6 km/h (2 Bft) W-SW 250 0 min 0,000 mm 0,0 UV-I 0 W/m -1,6 C -3,3 C 17,7 km/h (3 Bft) 96,00 %
26.12.2018 05:56 0,6 C 4,4 C 0,0 C 85 % 1031,4 hPa 0,0 l/m 9,8 km/h (2 Bft) SW 217 0 min 0,000 mm 0,0 UV-I 0 W/m -1,6 C -2,6 C 16,1 km/h (3 Bft) 95,74 %
26.12.2018 05:58 0,5 C 4,4 C 0,0 C 85 % 1031,3 hPa 0,0 l/m 11,6 km/h (2 Bft) W-SW 248 0 min 0,000 mm 0,0 UV-I 0 W/m -1,7 C -4,1 C 17,7 km/h (3 Bft) 95,74 %
26.12.2018 06:00 0,5 C 4,4 C 0,0 C 85 % 1031,3 hPa 0,0 l/m 13,8 km/h (3 Bft) W-SW 246 0 min 0,025 mm 0,0 UV-I 0 W/m -1,7 C -5,6 C 20,9 km/h (4 Bft) 94,29 %
26.12.2018 06:02 0,5 C 4,4 C 0,0 C 85 % 1031,3 hPa 0,0 l/m 12,3 km/h (3 Bft) W-SW 254 0 min 0,000 mm 0,0 UV-I 0 W/m -1,7 C -4,6 C 17,7 km/h (3 Bft) 96,15 %
26.12.2018 06:04 0,5 C 4,4 C 0,0 C 86 % 1031,4 hPa 0,0 l/m 12,5 km/h (3 Bft) W 267 0 min 0,000 mm 0,0 UV-I 0 W/m -1,6 C -4,8 C 17,7 km/h (3 Bft) 92,00 %
26.12.2018 06:06 0,4 C 4,4 C -0,6 C 86 % 1031,4 hPa 0,0 l/m 7,8 km/h (2 Bft) W 269 0 min 0,000 mm 0,0 UV-I 0 W/m -1,7 C -1,0 C 14,5 km/h (3 Bft) 95,74 %
26.12.2018 06:08 0,4 C 4,4 C -0,6 C 86 % 1031,5 hPa 0,0 l/m 11,9 km/h (2 Bft) W-SW 254 0 min 0,000 mm 0,0 UV-I 0 W/m -1,7 C -4,5 C 19,3 km/h (3 Bft) 91,49 %
26.12.2018 06:10 0,4 C 4,4 C -0,6 C 86 % 1031,5 hPa 0,0 l/m 11,7 km/h (2 Bft) W 279 0 min 0,000 mm 0,0 UV-I 0 W/m -1,7 C -4,3 C 16,1 km/h (3 Bft) 95,74 %
26.12.2018 06:12 0,4 C 4,4 C -0,6 C 86 % 1031,5 hPa 0,0 l/m 13,4 km/h (3 Bft) W 279 0 min 0,000 mm 0,0 UV-I 0 W/m -1,7 C -5,5 C 19,3 km/h (3 Bft) 95,74 %
26.12.2018 06:14 0,4 C 4,4 C -0,6 C 86 % 1031,5 hPa 0,0 l/m 11,9 km/h (2 Bft) SW 234 0 min 0,000 mm 0,0 UV-I 0 W/m -1,7 C -4,5 C 17,7 km/h (3 Bft) 97,92 %
26.12.2018 06:16 0,4 C 4,4 C -0,6 C 86 % 1031,5 hPa 0,0 l/m 12,1 km/h (2 Bft) W-SW 242 0 min 0,000 mm 0,0 UV-I 0 W/m -1,7 C -4,6 C 17,7 km/h (3 Bft) 97,87 %
26.12.2018 06:18 0,4 C 4,4 C -0,6 C 86 % 1031,5 hPa 0,0 l/m 8,8 km/h (2 Bft) SW 236 0 min 0,000 mm 0,0 UV-I 0 W/m -1,7 C -2,0 C 16,1 km/h (3 Bft) 100,00 %
26.12.2018 06:20 0,4 C 4,4 C -0,6 C 86 % 1031,5 hPa 0,0 l/m 10,8 km/h (2 Bft) W 275 0 min 0,000 mm 0,0 UV-I 0 W/m -1,7 C -3,6 C 16,1 km/h (3 Bft) 97,87 %
26.12.2018 06:22 0,4 C 4,4 C -0,6 C 86 % 1031,6 hPa 0,0 l/m 12,2 km/h (2 Bft) SW 227 0 min 0,000 mm 0,0 UV-I 0 W/m -1,7 C -4,7 C 16,1 km/h (3 Bft) 97,87 %
26.12.2018 06:24 0,4 C 4,4 C -0,6 C 86 % 1031,7 hPa 0,0 l/m 12,2 km/h (2 Bft) W-SW 247 0 min 0,000 mm 0,0 UV-I 0 W/m -1,7 C -4,7 C 20,9 km/h (4 Bft) 100,00 %
26.12.2018 06:26 0,4 C 4,4 C -0,6 C 86 % 1031,7 hPa 0,0 l/m 15,1 km/h (3 Bft) W 270 0 min 0,000 mm 0,0 UV-I 0 W/m -1,7 C -6,6 C 20,9 km/h (4 Bft) 100,00 %
26.12.2018 06:28 0,4 C 4,4 C -0,6 C 86 % 1031,7 hPa 0,0 l/m 12,5 km/h (3 Bft) W 269 0 min 0,000 mm 0,0 UV-I 0 W/m -1,7 C -4,9 C 19,3 km/h (3 Bft) 97,37 %
26.12.2018 06:30 0,4 C 4,4 C -0,6 C 86 % 1031,7 hPa 0,0 l/m 11,4 km/h (2 Bft) W-SW 242 0 min 0,000 mm 0,0 UV-I 0 W/m -1,7 C -4,1 C 16,1 km/h (3 Bft) 100,00 %
26.12.2018 06:32 0,4 C 4,4 C -1,1 C 86 % 1031,7 hPa 0,0 l/m 11,5 km/h (2 Bft) SW 223 0 min 0,000 mm 0,0 UV-I 0 W/m -1,7 C -4,2 C 16,1 km/h (3 Bft) 100,00 %
26.12.2018 06:34 0,4 C 4,4 C -1,1 C 86 % 1031,7 hPa 0,0 l/m 10,0 km/h (2 Bft) W-SW 254 0 min 0,000 mm 0,0 UV-I 0 W/m -1,7 C -3,0 C 16,1 km/h (3 Bft) 100,00 %
26.12.2018 06:36 0,4 C 4,4 C -1,1 C 86 % 1031,7 hPa 0,0 l/m 12,1 km/h (2 Bft) W 269 0 min 0,000 mm 0,0 UV-I 0 W/m -1,7 C -4,6 C 17,7 km/h (3 Bft) 97,87 %
26.12.2018 06:38 0,4 C 4,4 C -0,6 C 86 % 1031,6 hPa 0,0 l/m 11,5 km/h (2 Bft) W-SW 241 0 min 0,000 mm 0,0 UV-I 0 W/m -1,7 C -4,2 C 17,7 km/h (3 Bft) 100,00 %
26.12.2018 06:40 0,4 C 4,4 C -0,6 C 86 % 1031,6 hPa 0,0 l/m 15,0 km/h (3 Bft) W 265 0 min 0,000 mm 0,0 UV-I 0 W/m -1,7 C -6,5 C 22,5 km/h (4 Bft) 97,87 %
26.12.2018 06:42 0,5 C 4,4 C -0,6 C 86 % 1031,5 hPa 0,0 l/m 12,0 km/h (2 Bft) W-SW 255 0 min 0,000 mm 0,0 UV-I 0 W/m -1,6 C -4,4 C 20,9 km/h (4 Bft) 100,00 %
26.12.2018 06:44 0,5 C 4,4 C -0,6 C 85 % 1031,6 hPa 0,0 l/m 11,0 km/h (2 Bft) W 265 0 min 0,000 mm 0,0 UV-I 0 W/m -1,7 C -3,7 C 17,7 km/h (3 Bft) 95,74 %
26.12.2018 06:46 0,5 C 4,4 C -0,6 C 85 % 1031,6 hPa 0,0 l/m 9,7 km/h (2 Bft) W-SW 239 0 min 0,000 mm 0,0 UV-I 0 W/m -1,7 C -2,6 C 14,5 km/h (3 Bft) 100,00 %
26.12.2018 06:48 0,5 C 4,4 C -0,6 C 85 % 1031,6 hPa 0,0 l/m 9,9 km/h (2 Bft) W 271 0 min 0,000 mm 0,0 UV-I 0 W/m -1,7 C -2,8 C 12,9 km/h (3 Bft) 97,87 %
26.12.2018 06:50 0,5 C 4,4 C -0,6 C 85 % 1031,7 hPa 0,0 l/m 9,4 km/h (2 Bft) W 278 0 min 0,000 mm 0,0 UV-I 0 W/m -1,7 C -2,4 C 14,5 km/h (3 Bft) 98,00 %
26.12.2018 06:52 0,5 C 4,4 C -0,6 C 86 % 1031,8 hPa 0,0 l/m 11,2 km/h (2 Bft) W 269 0 min 0,000 mm 0,0 UV-I 0 W/m -1,6 C -3,8 C 19,3 km/h (3 Bft) 100,00 %
26.12.2018 06:54 0,5 C 4,4 C -0,6 C 85 % 1031,8 hPa 0,0 l/m 11,9 km/h (2 Bft) W 277 0 min 0,000 mm 0,0 UV-I 0 W/m -1,7 C -4,4 C 17,7 km/h (3 Bft) 100,00 %
26.12.2018 06:56 0,6 C 4,4 C -0,6 C 85 % 1031,8 hPa 0,0 l/m 10,0 km/h (2 Bft) W-SW 258 0 min 0,000 mm 0,0 UV-I 0 W/m -1,6 C -2,8 C 17,7 km/h (3 Bft) 100,00 %
26.12.2018 06:58 0,6 C 4,4 C -0,6 C 85 % 1031,9 hPa 0,0 l/m 13,0 km/h (3 Bft) W 273 0 min 0,000 mm 0,0 UV-I 0 W/m -1,6 C -5,0 C 19,3 km/h (3 Bft) 97,87 %
26.12.2018 07:00 0,6 C 4,4 C -0,6 C 85 % 1031,9 hPa 0,0 l/m 9,2 km/h (2 Bft) W 270 0 min 0,026 mm 0,0 UV-I 0 W/m -1,6 C -2,1 C 16,1 km/h (3 Bft) 100,00 %
26.12.2018 07:02 0,7 C 4,4 C 0,0 C 85 % 1031,9 hPa 0,0 l/m 11,7 km/h (2 Bft) W 274 0 min 0,000 mm 0,0 UV-I 0 W/m -1,5 C -4,0 C 19,3 km/h (3 Bft) 97,37 %
26.12.2018 07:04 0,7 C 4,4 C 0,0 C 85 % 1031,8 hPa 0,0 l/m 7,3 km/h (2 Bft) W 261 0 min 0,000 mm 0,0 UV-I 0 W/m -1,5 C -0,2 C 14,5 km/h (3 Bft) 95,74 %
26.12.2018 07:06 0,7 C 4,4 C 0,0 C 84 % 1031,8 hPa 0,0 l/m 8,6 km/h (2 Bft) W 279 0 min 0,000 mm 0,0 UV-I 0 W/m -1,7 C -1,5 C 12,9 km/h (3 Bft) 98,00 %
26.12.2018 07:08 0,7 C 4,4 C -0,6 C 84 % 1031,8 hPa 0,0 l/m 12,4 km/h (3 Bft) W-SW 257 0 min 0,000 mm 0,0 UV-I 0 W/m -1,7 C -4,5 C 17,7 km/h (3 Bft) 98,00 %
26.12.2018 07:10 0,7 C 4,4 C 0,0 C 84 % 1031,8 hPa 0,0 l/m 9,3 km/h (2 Bft) W 262 0 min 0,000 mm 0,0 UV-I 0 W/m -1,7 C -2,1 C 12,9 km/h (3 Bft) 97,87 %
26.12.2018 07:12 0,6 C 4,4 C -0,6 C 84 % 1031,7 hPa 0,0 l/m 7,7 km/h (2 Bft) W 259 0 min 0,000 mm 0,0 UV-I 0 W/m -1,8 C -0,7 C 12,9 km/h (3 Bft) 93,62 %
26.12.2018 07:14 0,6 C 4,4 C -0,6 C 85 % 1031,7 hPa 0,0 l/m 10,6 km/h (2 Bft) W 264 0 min 0,000 mm 0,0 UV-I 0 W/m -1,6 C -3,3 C 17,7 km/h (3 Bft) 93,62 %
26.12.2018 07:16 0,6 C 4,4 C -0,6 C 85 % 1031,7 hPa 0,0 l/m 10,5 km/h (2 Bft) W-SW 240 0 min 0,000 mm 0,0 UV-I 0 W/m -1,6 C -3,2 C 14,5 km/h (3 Bft) 97,87 %
26.12.2018 07:18 0,6 C 4,4 C 0,0 C 85 % 1031,7 hPa 0,0 l/m 8,7 km/h (2 Bft) W-SW 249 0 min 0,000 mm 0,0 UV-I 0 W/m -1,6 C -1,7 C 12,9 km/h (3 Bft) 97,87 %
26.12.2018 07:20 0,6 C 4,4 C 0,0 C 85 % 1031,7 hPa 0,0 l/m 9,0 km/h (2 Bft) W-SW 254 0 min 0,000 mm 0,0 UV-I 0 W/m -1,6 C -1,9 C 12,9 km/h (3 Bft) 93,62 %
26.12.2018 07:22 0,6 C 4,4 C 0,0 C 85 % 1031,8 hPa 0,0 l/m 9,3 km/h (2 Bft) W-SW 256 0 min 0,000 mm 0,0 UV-I 0 W/m -1,6 C -2,2 C 14,5 km/h (3 Bft) 97,87 %
26.12.2018 07:24 0,6 C 4,4 C 0,0 C 85 % 1031,8 hPa 0,0 l/m 7,1 km/h (2 Bft) W 267 0 min 0,000 mm 0,0 UV-I 0 W/m -1,6 C -0,1 C 11,3 km/h (2 Bft) 97,87 %
26.12.2018 07:26 0,6 C 4,4 C 0,0 C 85 % 1031,7 hPa 0,0 l/m 7,0 km/h (2 Bft) W 264 0 min 0,000 mm 0,0 UV-I 0 W/m -1,6 C -0,0 C 11,3 km/h (2 Bft) 100,00 %
26.12.2018 07:28 0,6 C 4,4 C 0,0 C 85 % 1031,7 hPa 0,0 l/m 8,9 km/h (2 Bft) W 273 0 min 0,000 mm 0,0 UV-I 0 W/m -1,6 C -1,8 C 14,5 km/h (3 Bft) 100,00 %
26.12.2018 07:30 0,6 C 4,4 C 0,0 C 85 % 1031,8 hPa 0,0 l/m 8,0 km/h (2 Bft) W 262 0 min 0,000 mm 0,0 UV-I 0 W/m -1,6 C -1,0 C 12,9 km/h (3 Bft) 100,00 %
26.12.2018 07:32 0,6 C 4,4 C 0,0 C 85 % 1031,9 hPa 0,0 l/m 9,3 km/h (2 Bft) W-NW 286 0 min 0,000 mm 0,0 UV-I 0 W/m -1,6 C -2,2 C 14,5 km/h (3 Bft) 100,00 %
26.12.2018 07:34 0,6 C 4,4 C 0,0 C 85 % 1031,9 hPa 0,0 l/m 5,1 km/h (1 Bft) W 278 0 min 0,000 mm 0,0 UV-I 0 W/m -1,6 C 0,6 C 6,4 km/h (2 Bft) 100,00 %
26.12.2018 07:36 0,6 C 4,4 C 0,0 C 85 % 1031,9 hPa 0,0 l/m 5,7 km/h (1 Bft) W 272 0 min 0,000 mm 0,0 UV-I 0 W/m -1,6 C 0,6 C 9,7 km/h (2 Bft) 100,00 %
26.12.2018 07:38 0,6 C 4,4 C 0,0 C 85 % 1031,9 hPa 0,0 l/m 6,0 km/h (2 Bft) W 280 0 min 0,000 mm 0,0 UV-I 0 W/m -1,6 C 0,6 C 12,9 km/h (3 Bft) 100,00 %
26.12.2018 07:40 0,6 C 4,4 C 0,0 C 85 % 1032,0 hPa 0,0 l/m 4,5 km/h (1 Bft) W 279 0 min 0,000 mm 0,0 UV-I 3 W/m -1,6 C 0,6 C 6,4 km/h (2 Bft) 97,87 %
26.12.2018 07:42 0,6 C 4,4 C 0,0 C 85 % 1032,0 hPa 0,0 l/m 3,6 km/h (1 Bft) W-NW 283 0 min 0,000 mm 0,0 UV-I 5 W/m -1,6 C 0,6 C 4,8 km/h (1 Bft) 97,87 %
26.12.2018 07:44 0,5 C 4,4 C 0,0 C 85 % 1032,0 hPa 0,0 l/m 2,7 km/h (1 Bft) NW 305 0 min 0,000 mm 0,0 UV-I 6 W/m -1,7 C 0,5 C 4,8 km/h (1 Bft) 100,00 %
26.12.2018 07:46 0,4 C 4,4 C 0,0 C 86 % 1032,1 hPa 0,0 l/m 4,2 km/h (1 Bft) W-NW 303 0 min 0,000 mm 0,0 UV-I 7 W/m -1,7 C 0,4 C 6,4 km/h (2 Bft) 97,37 %
26.12.2018 07:48 0,4 C 4,4 C 0,0 C 86 % 1032,1 hPa 0,0 l/m 3,4 km/h (1 Bft) NW 304 0 min 0,000 mm 0,0 UV-I 5 W/m -1,7 C 0,4 C 4,8 km/h (1 Bft) 97,87 %
26.12.2018 07:50 0,4 C 4,4 C -0,6 C 86 % 1032,1 hPa 0,0 l/m 2,3 km/h (1 Bft) W-NW 303 0 min 0,000 mm 0,0 UV-I 0 W/m -1,7 C 0,4 C 3,2 km/h (1 Bft) 98,00 %
26.12.2018 07:52 0,3 C 4,4 C -0,6 C 86 % 1032,0 hPa 0,0 l/m 3,5 km/h (1 Bft) W 281 0 min 0,000 mm 0,0 UV-I 3 W/m -1,8 C 0,3 C 6,4 km/h (2 Bft) 97,87 %
26.12.2018 07:54 0,3 C 4,4 C -0,6 C 86 % 1031,9 hPa 0,0 l/m 4,2 km/h (1 Bft) W 279 0 min 0,000 mm 0,0 UV-I 5 W/m -1,8 C 0,3 C 6,4 km/h (2 Bft) 95,74 %
26.12.2018 07:56 0,3 C 4,4 C -0,6 C 86 % 1031,9 hPa 0,0 l/m 5,7 km/h (1 Bft) W 275 0 min 0,000 mm 0,0 UV-I 5 W/m -1,8 C 0,3 C 6,4 km/h (2 Bft) 97,87 %
26.12.2018 07:58 0,3 C 4,4 C 0,0 C 86 % 1031,9 hPa 0,0 l/m 6,5 km/h (2 Bft) W 272 0 min 0,000 mm 0,0 UV-I 5 W/m -1,8 C 0,2 C 9,7 km/h (2 Bft) 95,74 %
26.12.2018 08:00 0,3 C 4,4 C 0,0 C 86 % 1031,9 hPa 0,0 l/m 6,9 km/h (2 Bft) W 265 0 min 0,000 mm 0,0 UV-I 5 W/m -1,8 C -0,2 C 9,7 km/h (2 Bft) 95,74 %
26.12.2018 08:02 0,3 C 4,4 C 0,0 C 86 % 1032,0 hPa 0,0 l/m 5,6 km/h (1 Bft) W 281 0 min 0,000 mm 0,0 UV-I 5 W/m -1,8 C 0,3 C 9,7 km/h (2 Bft) 93,62 %
26.12.2018 08:04 0,3 C 4,4 C 0,0 C 86 % 1032,0 hPa 0,0 l/m 4,1 km/h (1 Bft) W 279 0 min 0,000 mm 0,0 UV-I 7 W/m -1,8 C 0,3 C 6,4 km/h (2 Bft) 95,74 %
26.12.2018 08:06 0,3 C 4,4 C 0,0 C 86 % 1032,0 hPa 0,0 l/m 4,3 km/h (1 Bft) W 280 0 min 0,000 mm 0,0 UV-I 8 W/m -1,8 C 0,3 C 6,4 km/h (2 Bft) 98,00 %
26.12.2018 08:08 0,3 C 4,4 C 0,0 C 86 % 1032,0 hPa 0,0 l/m 3,3 km/h (1 Bft) W 280 0 min 0,000 mm 0,0 UV-I 9 W/m -1,8 C 0,3 C 4,8 km/h (1 Bft) 97,87 %
26.12.2018 08:10 0,3 C 4,4 C 0,0 C 86 % 1032,0 hPa 0,0 l/m 3,5 km/h (1 Bft) W 281 0 min 0,000 mm 0,0 UV-I 9 W/m -1,8 C 0,3 C 4,8 km/h (1 Bft) 97,44 %
26.12.2018 08:12 0,3 C 4,4 C 0,0 C 86 % 1032,0 hPa 0,0 l/m 3,6 km/h (1 Bft) W 267 0 min 0,000 mm 0,0 UV-I 11 W/m -1,8 C 0,3 C 4,8 km/h (1 Bft) 98,00 %
26.12.2018 08:14 0,3 C 4,4 C 0,0 C 86 % 1032,0 hPa 0,0 l/m 3,6 km/h (1 Bft) W 265 0 min 0,000 mm 0,0 UV-I 11 W/m -1,8 C 0,3 C 4,8 km/h (1 Bft) 98,00 %
26.12.2018 08:16 0,3 C 4,4 C 0,0 C 86 % 1032,1 hPa 0,0 l/m 3,4 km/h (1 Bft) W 267 0 min 0,000 mm 0,0 UV-I 11 W/m -1,8 C 0,3 C 4,8 km/h (1 Bft) 97,87 %
26.12.2018 08:18 0,3 C 4,4 C 0,0 C 86 % 1032,1 hPa 0,0 l/m 2,6 km/h (1 Bft) W 271 0 min 0,000 mm 0,0 UV-I 11 W/m -1,8 C 0,3 C 4,8 km/h (1 Bft) 95,74 %
26.12.2018 08:20 0,3 C 4,4 C 0,0 C 86 % 1032,1 hPa 0,0 l/m 2,4 km/h (1 Bft) W 271 0 min 0,000 mm 0,0 UV-I 12 W/m -1,8 C 0,3 C 4,8 km/h (1 Bft) 89,36 %
26.12.2018 08:22 0,3 C 4,4 C 0,0 C 86 % 1032,0 hPa 0,0 l/m 3,5 km/h (1 Bft) W 263 0 min 0,000 mm 0,0 UV-I 12 W/m -1,8 C 0,3 C 4,8 km/h (1 Bft) 93,62 %
26.12.2018 08:24 0,2 C 4,4 C 0,0 C 86 % 1032,0 hPa 0,0 l/m 4,3 km/h (1 Bft) W 265 0 min 0,000 mm 0,0 UV-I 12 W/m -1,9 C 0,2 C 6,4 km/h (2 Bft) 95,74 %
26.12.2018 08:26 0,2 C 4,4 C 0,0 C 86 % 1032,0 hPa 0,0 l/m 4,9 km/h (1 Bft) W 262 0 min 0,000 mm 0,0 UV-I 12 W/m -1,9 C 0,2 C 6,4 km/h (2 Bft) 98,00 %
26.12.2018 08:28 0,2 C 4,4 C 0,0 C 86 % 1032,0 hPa 0,0 l/m 4,7 km/h (1 Bft) W 262 0 min 0,000 mm 0,0 UV-I 12 W/m -1,9 C 0,2 C 6,4 km/h (2 Bft) 95,74 %
26.12.2018 08:30 0,2 C 4,4 C 0,0 C 86 % 1032,0 hPa 0,0 l/m 6,1 km/h (2 Bft) W 270 0 min 0,000 mm 0,0 UV-I 12 W/m -1,9 C 0,2 C 9,7 km/h (2 Bft) 91,43 %
26.12.2018 08:32 0,2 C 4,4 C 0,0 C 86 % 1032,0 hPa 0,0 l/m 7,4 km/h (2 Bft) W 270 0 min 0,000 mm 0,0 UV-I 12 W/m -1,9 C -0,8 C 11,3 km/h (2 Bft) 94,00 %
26.12.2018 08:34 0,2 C 4,4 C 0,0 C 86 % 1032,0 hPa 0,0 l/m 7,7 km/h (2 Bft) W 263 0 min 0,000 mm 0,0 UV-I 13 W/m -1,9 C -1,1 C 11,3 km/h (2 Bft) 93,62 %
26.12.2018 08:36 0,3 C 4,4 C 0,0 C 86 % 1032,0 hPa 0,0 l/m 7,2 km/h (2 Bft) W 264 0 min 0,000 mm 0,0 UV-I 14 W/m -1,8 C -0,5 C 11,3 km/h (2 Bft) 95,74 %
26.12.2018 08:38 0,2 C 4,4 C 0,0 C 86 % 1032,0 hPa 0,0 l/m 6,1 km/h (2 Bft) W 267 0 min 0,000 mm 0,0 UV-I 14 W/m -1,9 C 0,2 C 9,7 km/h (2 Bft) 95,74 %
26.12.2018 08:40 0,2 C 4,4 C 0,0 C 86 % 1032,0 hPa 0,0 l/m 8,0 km/h (2 Bft) W 272 0 min 0,000 mm 0,0 UV-I 14 W/m -1,9 C -1,4 C 11,3 km/h (2 Bft) 93,62 %
26.12.2018 08:42 0,2 C 4,4 C 0,0 C 87 % 1032,1 hPa 0,0 l/m 9,3 km/h (2 Bft) W 263 0 min 0,000 mm 0,0 UV-I 15 W/m -1,7 C -2,6 C 11,3 km/h (2 Bft) 94,12 %
26.12.2018 08:44 0,2 C 4,4 C 0,0 C 87 % 1032,0 hPa 0,0 l/m 10,7 km/h (2 Bft) W 271 0 min 0,000 mm 0,0 UV-I 17 W/m -1,7 C -3,8 C 12,9 km/h (3 Bft) 98,00 %
26.12.2018 08:46 0,2 C 4,4 C 0,0 C 87 % 1032,0 hPa 0,0 l/m 11,5 km/h (2 Bft) W-SW 252 0 min 0,000 mm 0,0 UV-I 19 W/m -1,7 C -4,4 C 14,5 km/h (3 Bft) 97,87 %
26.12.2018 08:48 0,2 C 4,4 C 0,0 C 87 % 1031,9 hPa 0,0 l/m 11,7 km/h (2 Bft) W 264 0 min 0,000 mm 0,0 UV-I 23 W/m -1,7 C -4,6 C 14,5 km/h (3 Bft) 97,87 %
26.12.2018 08:50 0,3 C 4,4 C 0,0 C 87 % 1031,9 hPa 0,0 l/m 13,0 km/h (3 Bft) W 279 0 min 0,000 mm 0,0 UV-I 27 W/m -1,6 C -5,4 C 16,1 km/h (3 Bft) 95,74 %
26.12.2018 08:52 0,3 C 4,4 C 0,0 C 87 % 1031,9 hPa 0,0 l/m 14,2 km/h (3 Bft) W 272 0 min 0,000 mm 0,0 UV-I 33 W/m -1,6 C -6,1 C 16,1 km/h (3 Bft) 97,87 %
26.12.2018 08:54 0,3 C 4,4 C 0,6 C 87 % 1031,8 hPa 0,0 l/m 13,7 km/h (3 Bft) W 275 0 min 0,000 mm 0,0 UV-I 40 W/m -1,6 C -5,8 C 17,7 km/h (3 Bft) 95,74 %
26.12.2018 08:56 0,3 C 4,4 C 0,6 C 87 % 1031,8 hPa 0,0 l/m 13,0 km/h (3 Bft) W 263 0 min 0,000 mm 0,0 UV-I 47 W/m -1,6 C -5,4 C 19,3 km/h (3 Bft) 97,87 %
26.12.2018 08:58 0,4 C 4,4 C 0,6 C 86 % 1031,7 hPa 0,0 l/m 15,5 km/h (3 Bft) W 259 0 min 0,000 mm 0,0 UV-I 56 W/m -1,7 C -6,8 C 19,3 km/h (3 Bft) 90,24 %
26.12.2018 09:00 0,5 C 4,4 C 1,1 C 86 % 1031,7 hPa 0,0 l/m 15,1 km/h (3 Bft) W-NW 282 0 min 0,025 mm 0,0 UV-I 66 W/m -1,6 C -6,4 C 19,3 km/h (3 Bft) 93,62 %
26.12.2018 09:02 0,6 C 4,4 C 1,1 C 86 % 1031,8 hPa 0,0 l/m 13,1 km/h (3 Bft) W-SW 244 2 min 0,000 mm 0,0 UV-I 76 W/m -1,5 C -5,1 C 19,3 km/h (3 Bft) 96,00 %
26.12.2018 09:04 0,7 C 4,4 C 1,1 C 85 % 1031,8 hPa 0,0 l/m 13,4 km/h (3 Bft) W 275 2 min 0,000 mm 0,0 UV-I 84 W/m -1,5 C -5,1 C 17,7 km/h (3 Bft) 95,74 %
26.12.2018 09:06 0,7 C 4,4 C 1,1 C 85 % 1031,7 hPa 0,0 l/m 12,5 km/h (3 Bft) W 270 2 min 0,000 mm 0,0 UV-I 91 W/m -1,5 C -4,5 C 17,7 km/h (3 Bft) 97,37 %
26.12.2018 09:08 0,8 C 4,4 C 1,7 C 85 % 1031,7 hPa 0,0 l/m 15,4 km/h (3 Bft) W 279 2 min 0,000 mm 0,0 UV-I 97 W/m -1,4 C -6,2 C 20,9 km/h (4 Bft) 93,62 %
26.12.2018 09:10 0,8 C 4,4 C 1,7 C 85 % 1031,7 hPa 0,0 l/m 14,3 km/h (3 Bft) W 263 2 min 0,000 mm 0,0 UV-I 102 W/m -1,4 C -5,6 C 22,5 km/h (4 Bft) 97,87 %
26.12.2018 09:12 0,8 C 4,4 C 1,7 C 85 % 1031,7 hPa 0,0 l/m 13,6 km/h (3 Bft) W 273 2 min 0,000 mm 0,0 UV-I 107 W/m -1,4 C -5,2 C 19,3 km/h (3 Bft) 98,00 %
26.12.2018 09:14 0,9 C 4,4 C 2,2 C 85 % 1031,6 hPa 0,0 l/m 10,9 km/h (2 Bft) W-SW 254 2 min 0,000 mm 0,0 UV-I 114 W/m -1,3 C -3,2 C 17,7 km/h (3 Bft) 95,74 %
26.12.2018 09:16 0,9 C 4,4 C 2,2 C 85 % 1031,7 hPa 0,0 l/m 13,2 km/h (3 Bft) W-NW 290 2 min 0,000 mm 0,0 UV-I 115 W/m -1,3 C -4,8 C 17,7 km/h (3 Bft) 95,74 %
26.12.2018 09:18 0,9 C 4,4 C 2,2 C 85 % 1031,7 hPa 0,0 l/m 12,7 km/h (3 Bft) W-SW 248 2 min 0,000 mm 0,0 UV-I 119 W/m -1,3 C -4,4 C 17,7 km/h (3 Bft) 97,87 %
26.12.2018 09:20 1,0 C 4,4 C 2,2 C 85 % 1031,8 hPa 0,0 l/m 12,9 km/h (3 Bft) W 271 2 min 0,000 mm 0,0 UV-I 118 W/m -1,2 C -4,5 C 17,7 km/h (3 Bft) 95,74 %
26.12.2018 09:22 1,1 C 4,4 C 2,2 C 85 % 1031,8 hPa 0,0 l/m 12,1 km/h (2 Bft) W 271 2 min 0,000 mm 0,0 UV-I 126 W/m -1,1 C -3,8 C 16,1 km/h (3 Bft) 93,75 %
26.12.2018 09:24 1,1 C 4,4 C 2,2 C 85 % 1031,7 hPa 0,0 l/m 11,7 km/h (2 Bft) SW 227 2 min 0,000 mm 0,0 UV-I 124 W/m -1,1 C -3,5 C 19,3 km/h (3 Bft) 93,62 %
26.12.2018 09:26 1,1 C 4,4 C 2,2 C 85 % 1031,7 hPa 0,0 l/m 11,1 km/h (2 Bft) W 268 2 min 0,000 mm 0,0 UV-I 107 W/m -1,1 C -3,1 C 17,7 km/h (3 Bft) 94,00 %
26.12.2018 09:28 1,2 C 4,4 C 2,2 C 84 % 1031,7 hPa 0,0 l/m 11,8 km/h (2 Bft) W-SW 256 0 min 0,000 mm 0,0 UV-I 93 W/m -1,2 C -3,5 C 16,1 km/h (3 Bft) 93,62 %
26.12.2018 09:30 1,2 C 4,4 C 1,7 C 84 % 1031,8 hPa 0,0 l/m 10,3 km/h (2 Bft) W 275 0 min 0,000 mm 0,0 UV-I 86 W/m -1,2 C -2,4 C 14,5 km/h (3 Bft) 97,37 %
26.12.2018 09:32 1,2 C 4,4 C 1,7 C 84 % 1031,8 hPa 0,0 l/m 9,9 km/h (2 Bft) W 275 0 min 0,000 mm 0,0 UV-I 88 W/m -1,2 C -2,0 C 14,5 km/h (3 Bft) 95,74 %
26.12.2018 09:34 1,2 C 4,4 C 2,2 C 84 % 1031,7 hPa 0,0 l/m 10,8 km/h (2 Bft) W 263 0 min 0,000 mm 0,0 UV-I 93 W/m -1,2 C -2,7 C 16,1 km/h (3 Bft) 93,62 %
26.12.2018 09:36 1,2 C 4,4 C 2,2 C 84 % 1031,8 hPa 0,0 l/m 9,8 km/h (2 Bft) W 277 0 min 0,000 mm 0,0 UV-I 96 W/m -1,2 C -2,0 C 14,5 km/h (3 Bft) 93,62 %
26.12.2018 09:38 1,2 C 4,4 C 2,2 C 84 % 1031,8 hPa 0,0 l/m 12,1 km/h (2 Bft) W-SW 257 0 min 0,000 mm 0,0 UV-I 101 W/m -1,2 C -3,7 C 17,7 km/h (3 Bft) 95,74 %
26.12.2018 09:40 1,2 C 4,4 C 2,2 C 84 % 1031,9 hPa 0,0 l/m 8,6 km/h (2 Bft) W-SW 254 0 min 0,000 mm 0,0 UV-I 101 W/m -1,2 C -0,9 C 12,9 km/h (3 Bft) 95,74 %
26.12.2018 09:42 1,2 C 4,4 C 2,2 C 84 % 1032,0 hPa 0,0 l/m 7,6 km/h (2 Bft) W-SW 254 0 min 0,000 mm 0,0 UV-I 100 W/m -1,2 C -0,0 C 12,9 km/h (3 Bft) 98,00 %
26.12.2018 09:44 1,2 C 4,4 C 2,2 C 84 % 1032,1 hPa 0,0 l/m 8,0 km/h (2 Bft) W-SW 248 0 min 0,000 mm 0,0 UV-I 98 W/m -1,2 C -0,4 C 12,9 km/h (3 Bft) 96,23 %
26.12.2018 09:46 1,2 C 4,4 C 2,2 C 84 % 1032,1 hPa 0,0 l/m 5,5 km/h (1 Bft) W-SW 238 0 min 0,000 mm 0,0 UV-I 104 W/m -1,2 C 1,2 C 11,3 km/h (2 Bft) 97,14 %
26.12.2018 09:48 1,3 C 4,4 C 2,2 C 84 % 1032,1 hPa 0,0 l/m 4,6 km/h (1 Bft) SW 225 2 min 0,000 mm 0,0 UV-I 138 W/m -1,1 C 1,3 C 8,0 km/h (2 Bft) 98,00 %
26.12.2018 09:50 1,3 C 4,4 C 2,2 C 84 % 1032,0 hPa 0,0 l/m 5,6 km/h (1 Bft) W-SW 239 2 min 0,000 mm 0,0 UV-I 188 W/m -1,1 C 1,3 C 6,4 km/h (2 Bft) 95,74 %
26.12.2018 09:52 1,3 C 4,4 C 2,2 C 84 % 1032,0 hPa 0,0 l/m 5,6 km/h (1 Bft) W 260 2 min 0,000 mm 0,0 UV-I 202 W/m -1,1 C 1,3 C 9,7 km/h (2 Bft) 97,87 %
26.12.2018 09:54 1,4 C 4,4 C 2,2 C 84 % 1032,1 hPa 0,0 l/m 5,4 km/h (1 Bft) W-SW 242 2 min 0,000 mm 0,0 UV-I 233 W/m -1,0 C 1,4 C 8,0 km/h (2 Bft) 100,00 %
26.12.2018 09:56 1,5 C 4,4 C 2,2 C 84 % 1032,1 hPa 0,0 l/m 5,8 km/h (2 Bft) SW 232 2 min 0,000 mm 0,0 UV-I 246 W/m -0,9 C 1,5 C 9,7 km/h (2 Bft) 97,87 %
26.12.2018 09:58 1,6 C 4,4 C 2,8 C 84 % 1032,1 hPa 0,0 l/m 7,0 km/h (2 Bft) W-SW 252 2 min 0,000 mm 0,0 UV-I 249 W/m -0,8 C 1,0 C 11,3 km/h (2 Bft) 97,87 %
26.12.2018 10:00 1,6 C 4,4 C 2,8 C 84 % 1032,1 hPa 0,0 l/m 5,1 km/h (1 Bft) W-SW 242 2 min 0,000 mm 0,0 UV-I 247 W/m -0,8 C 1,6 C 9,7 km/h (2 Bft) 98,00 %
26.12.2018 10:02 1,7 C 4,4 C 2,8 C 84 % 1032,2 hPa 0,0 l/m 7,1 km/h (2 Bft) W-SW 252 2 min 0,051 mm 0,0 UV-I 231 W/m -0,7 C 1,0 C 12,9 km/h (3 Bft) 96,00 %
26.12.2018 10:04 1,8 C 4,4 C 2,8 C 83 % 1032,2 hPa 0,0 l/m 8,9 km/h (2 Bft) W 272 2 min 0,000 mm 0,0 UV-I 244 W/m -0,8 C -0,6 C 12,9 km/h (3 Bft) 91,49 %
26.12.2018 10:06 1,8 C 4,4 C 2,8 C 83 % 1032,3 hPa 0,0 l/m 8,3 km/h (2 Bft) W 280 2 min 0,000 mm 0,0 UV-I 203 W/m -0,8 C -0,0 C 11,3 km/h (2 Bft) 97,87 %
26.12.2018 10:08 1,9 C 4,4 C 2,8 C 82 % 1032,3 hPa 0,0 l/m 7,7 km/h (2 Bft) SW 236 2 min 0,000 mm 0,0 UV-I 174 W/m -0,8 C 0,6 C 9,7 km/h (2 Bft) 95,74 %
26.12.2018 10:10 1,9 C 4,4 C 2,2 C 82 % 1032,3 hPa 0,0 l/m 4,6 km/h (1 Bft) W-SW 257 2 min 0,000 mm 0,0 UV-I 166 W/m -0,8 C 1,9 C 8,0 km/h (2 Bft) 95,12 %
26.12.2018 10:12 1,9 C 4,4 C 2,2 C 82 % 1032,4 hPa 0,0 l/m 6,9 km/h (2 Bft) W-NW 292 2 min 0,000 mm 0,0 UV-I 186 W/m -0,8 C 1,4 C 12,9 km/h (3 Bft) 97,87 %
26.12.2018 10:14 1,9 C 4,4 C 2,2 C 82 % 1032,3 hPa 0,0 l/m 8,6 km/h (2 Bft) W-SW 254 2 min 0,000 mm 0,0 UV-I 204 W/m -0,8 C -0,2 C 14,5 km/h (3 Bft) 97,87 %
26.12.2018 10:16 1,9 C 4,4 C 1,7 C 82 % 1032,3 hPa 0,0 l/m 3,1 km/h (1 Bft) W-SW 256 2 min 0,000 mm 0,0 UV-I 205 W/m -0,8 C 1,9 C 6,4 km/h (2 Bft) 97,87 %
26.12.2018 10:18 2,0 C 4,4 C 1,7 C 82 % 1032,2 hPa 0,0 l/m 7,1 km/h (2 Bft) W 276 2 min 0,000 mm 0,0 UV-I 202 W/m -0,7 C 1,3 C 12,9 km/h (3 Bft) 93,62 %
26.12.2018 10:20 2,0 C 4,4 C 1,7 C 81 % 1032,0 hPa 0,0 l/m 9,2 km/h (2 Bft) W 276 2 min 0,000 mm 0,0 UV-I 207 W/m -0,9 C -0,6 C 12,9 km/h (3 Bft) 97,87 %
26.12.2018 10:22 2,1 C 4,4 C 1,7 C 81 % 1031,9 hPa 0,0 l/m 7,8 km/h (2 Bft) W-SW 253 2 min 0,000 mm 0,0 UV-I 220 W/m -0,8 C 0,7 C 12,9 km/h (3 Bft) 95,74 %
26.12.2018 10:24 2,1 C 4,4 C 1,7 C 81 % 1031,8 hPa 0,0 l/m 10,7 km/h (2 Bft) W 268 2 min 0,000 mm 0,0 UV-I 219 W/m -0,8 C -1,7 C 17,7 km/h (3 Bft) 97,87 %
26.12.2018 10:26 2,2 C 4,4 C 1,7 C 81 % 1031,8 hPa 0,0 l/m 11,4 km/h (2 Bft) W 270 2 min 0,000 mm 0,0 UV-I 223 W/m -0,7 C -2,1 C 17,7 km/h (3 Bft) 97,87 %
26.12.2018 10:28 2,2 C 4,4 C 1,7 C 81 % 1031,8 hPa 0,0 l/m 11,1 km/h (2 Bft) W 281 2 min 0,000 mm 0,0 UV-I 228 W/m -0,7 C -1,8 C 19,3 km/h (3 Bft) 95,74 %
26.12.2018 10:30 2,2 C 4,4 C 1,7 C 80 % 1031,8 hPa 0,0 l/m 8,5 km/h (2 Bft) W 260 2 min 0,000 mm 0,0 UV-I 229 W/m -0,9 C 0,2 C 12,9 km/h (3 Bft) 95,74 %
26.12.2018 10:32 2,2 C 4,4 C 1,7 C 81 % 1031,8 hPa 0,0 l/m 9,8 km/h (2 Bft) W-SW 254 2 min 0,000 mm 0,0 UV-I 232 W/m -0,7 C -0,9 C 16,1 km/h (3 Bft) 100,00 %
26.12.2018 10:34 2,2 C 4,4 C 1,7 C 80 % 1031,7 hPa 0,0 l/m 12,7 km/h (3 Bft) W-SW 257 2 min 0,000 mm 0,0 UV-I 235 W/m -0,9 C -2,9 C 20,9 km/h (4 Bft) 100,00 %
26.12.2018 10:36 2,3 C 4,4 C 2,2 C 80 % 1031,8 hPa 0,0 l/m 9,7 km/h (2 Bft) W-SW 246 2 min 0,000 mm 0,0 UV-I 238 W/m -0,8 C -0,7 C 17,7 km/h (3 Bft) 100,00 %
26.12.2018 10:38 2,3 C 4,4 C 2,2 C 80 % 1031,8 hPa 0,0 l/m 13,1 km/h (3 Bft) W 281 2 min 0,000 mm 0,0 UV-I 240 W/m -0,8 C -3,1 C 20,9 km/h (4 Bft) 100,00 %
26.12.2018 10:40 2,3 C 4,4 C 2,2 C 79 % 1031,8 hPa 0,0 l/m 13,9 km/h (3 Bft) W 269 2 min 0,000 mm 0,0 UV-I 239 W/m -1,0 C -3,6 C 20,9 km/h (4 Bft) 96,00 %
26.12.2018 10:42 2,3 C 4,4 C 2,8 C 79 % 1031,8 hPa 0,0 l/m 16,7 km/h (3 Bft) W-SW 254 2 min 0,000 mm 0,0 UV-I 243 W/m -1,0 C -5,1 C 22,5 km/h (4 Bft) 97,87 %
26.12.2018 10:44 2,3 C 4,4 C 2,8 C 79 % 1031,8 hPa 0,0 l/m 10,9 km/h (2 Bft) W 272 2 min 0,000 mm 0,0 UV-I 247 W/m -1,0 C -1,6 C 17,7 km/h (3 Bft) 95,74 %
26.12.2018 10:46 2,3 C 4,4 C 2,8 C 79 % 1031,8 hPa 0,0 l/m 8,5 km/h (2 Bft) W-SW 258 2 min 0,000 mm 0,0 UV-I 250 W/m -1,0 C 0,3 C 12,9 km/h (3 Bft) 97,87 %
26.12.2018 10:48 2,4 C 4,4 C 2,8 C 79 % 1031,8 hPa 0,0 l/m 9,6 km/h (2 Bft) W 277 2 min 0,000 mm 0,0 UV-I 252 W/m -0,9 C -0,5 C 12,9 km/h (3 Bft) 98,00 %
26.12.2018 10:50 2,5 C 4,4 C 2,8 C 79 % 1031,8 hPa 0,0 l/m 8,1 km/h (2 Bft) W-SW 240 2 min 0,000 mm 0,0 UV-I 253 W/m -0,8 C 0,9 C 12,9 km/h (3 Bft) 93,62 %
26.12.2018 10:52 2,6 C 4,4 C 3,3 C 79 % 1031,8 hPa 0,0 l/m 12,3 km/h (3 Bft) W-NW 282 2 min 0,000 mm 0,0 UV-I 258 W/m -0,7 C -2,2 C 19,3 km/h (3 Bft) 97,37 %
26.12.2018 10:54 2,6 C 4,4 C 2,8 C 79 % 1031,8 hPa 0,0 l/m 16,3 km/h (3 Bft) W-NW 285 2 min 0,000 mm 0,0 UV-I 258 W/m -0,7 C -4,5 C 20,9 km/h (4 Bft) 94,00 %
26.12.2018 10:56 2,5 C 4,4 C 2,8 C 78 % 1031,7 hPa 0,0 l/m 10,5 km/h (2 Bft) W-SW 246 2 min 0,000 mm 0,0 UV-I 258 W/m -0,9 C -1,1 C 16,1 km/h (3 Bft) 93,62 %
26.12.2018 10:58 2,5 C 4,4 C 3,3 C 78 % 1031,7 hPa 0,0 l/m 8,6 km/h (2 Bft) W 261 2 min 0,000 mm 0,0 UV-I 261 W/m -0,9 C 0,4 C 12,9 km/h (3 Bft) 97,87 %
26.12.2018 11:00 2,6 C 4,4 C 3,3 C 78 % 1031,8 hPa 0,0 l/m 9,2 km/h (2 Bft) W 279 2 min 0,102 mm 0,0 UV-I 263 W/m -0,8 C 0,1 C 14,5 km/h (3 Bft) 97,87 %
26.12.2018 11:02 2,6 C 4,4 C 3,3 C 78 % 1031,8 hPa 0,0 l/m 9,8 km/h (2 Bft) W 259 2 min 0,000 mm 0,0 UV-I 265 W/m -0,8 C -0,4 C 17,7 km/h (3 Bft) 97,87 %
26.12.2018 11:04 2,7 C 4,4 C 3,3 C 78 % 1031,8 hPa 0,0 l/m 14,2 km/h (3 Bft) W 276 2 min 0,000 mm 0,0 UV-I 267 W/m -0,7 C -3,3 C 22,5 km/h (4 Bft) 97,87 %
26.12.2018 11:06 2,7 C 4,4 C 3,3 C 77 % 1031,7 hPa 0,0 l/m 10,5 km/h (2 Bft) W 267 2 min 0,000 mm 0,1 UV-I 270 W/m -0,9 C -0,8 C 16,1 km/h (3 Bft) 97,87 %
26.12.2018 11:08 2,7 C 4,4 C 3,3 C 78 % 1031,6 hPa 0,0 l/m 12,8 km/h (3 Bft) W-SW 246 2 min 0,000 mm 0,5 UV-I 273 W/m -0,7 C -2,4 C 19,3 km/h (3 Bft) 100,00 %
26.12.2018 11:10 2,8 C 4,4 C 3,9 C 78 % 1031,6 hPa 0,0 l/m 9,6 km/h (2 Bft) W 260 2 min 0,000 mm 0,5 UV-I 275 W/m -0,6 C -0,0 C 14,5 km/h (3 Bft) 97,87 %
26.12.2018 11:12 2,8 C 4,4 C 3,9 C 78 % 1031,6 hPa 0,0 l/m 8,1 km/h (2 Bft) SW 229 2 min 0,000 mm 0,5 UV-I 275 W/m -0,6 C 1,2 C 14,5 km/h (3 Bft) 95,74 %
26.12.2018 11:14 2,9 C 4,4 C 3,9 C 78 % 1031,6 hPa 0,0 l/m 6,9 km/h (2 Bft) NW 308 2 min 0,000 mm 0,5 UV-I 281 W/m -0,5 C 2,4 C 16,1 km/h (3 Bft) 100,00 %
26.12.2018 11:16 2,9 C 4,4 C 4,4 C 77 % 1031,5 hPa 0,0 l/m 9,8 km/h (2 Bft) NW 306 2 min 0,000 mm 0,5 UV-I 280 W/m -0,7 C -0,1 C 14,5 km/h (3 Bft) 97,92 %
26.12.2018 11:18 2,9 C 4,4 C 4,4 C 77 % 1031,6 hPa 0,0 l/m 10,4 km/h (2 Bft) W 268 2 min 0,000 mm 0,5 UV-I 284 W/m -0,7 C -0,5 C 17,7 km/h (3 Bft) 100,00 %
26.12.2018 11:20 2,9 C 4,4 C 4,4 C 77 % 1031,6 hPa 0,0 l/m 7,8 km/h (2 Bft) W 278 2 min 0,000 mm 0,5 UV-I 285 W/m -0,7 C 1,6 C 11,3 km/h (2 Bft) 97,87 %
26.12.2018 11:22 3,0 C 4,4 C 5,0 C 77 % 1031,6 hPa 0,0 l/m 5,5 km/h (1 Bft) SW 232 2 min 0,000 mm 0,5 UV-I 290 W/m -0,6 C 3,0 C 8,0 km/h (2 Bft) 100,00 %
26.12.2018 11:24 3,0 C 4,4 C 4,4 C 77 % 1031,7 hPa 0,0 l/m 5,4 km/h (1 Bft) W-SW 248 2 min 0,000 mm 0,5 UV-I 290 W/m -0,6 C 3,0 C 9,7 km/h (2 Bft) 100,00 %
26.12.2018 11:26 3,1 C 4,4 C 5,0 C 77 % 1031,7 hPa 0,0 l/m 5,9 km/h (2 Bft) W 267 2 min 0,000 mm 0,5 UV-I 294 W/m -0,5 C 3,1 C 11,3 km/h (2 Bft) 100,00 %
26.12.2018 11:28 3,1 C 4,4 C 4,4 C 76 % 1031,6 hPa 0,0 l/m 7,4 km/h (2 Bft) W-SW 246 2 min 0,000 mm 0,5 UV-I 294 W/m -0,7 C 2,2 C 14,5 km/h (3 Bft) 100,00 %
26.12.2018 11:30 3,2 C 4,4 C 5,0 C 77 % 1031,6 hPa 0,0 l/m 10,8 km/h (2 Bft) W-SW 240 2 min 0,000 mm 0,5 UV-I 294 W/m -0,4 C -0,5 C 16,1 km/h (3 Bft) 100,00 %
26.12.2018 11:32 3,3 C 4,4 C 5,0 C 77 % 1031,6 hPa 0,0 l/m 4,7 km/h (1 Bft) SW 234 2 min 0,000 mm 0,5 UV-I 295 W/m -0,3 C 3,3 C 12,9 km/h (3 Bft) 100,00 %
26.12.2018 11:34 3,3 C 4,4 C 5,0 C 76 % 1031,5 hPa 0,0 l/m 9,6 km/h (2 Bft) W 259 2 min 0,000 mm 0,5 UV-I 295 W/m -0,5 C 0,5 C 14,5 km/h (3 Bft) 100,00 %
26.12.2018 11:36 3,3 C 4,4 C 4,4 C 76 % 1031,4 hPa 0,0 l/m 9,3 km/h (2 Bft) W 267 2 min 0,000 mm 0,5 UV-I 296 W/m -0,5 C 0,7 C 11,3 km/h (2 Bft) 97,87 %
26.12.2018 11:38 3,3 C 4,4 C 5,0 C 76 % 1031,4 hPa 0,0 l/m 7,0 km/h (2 Bft) W 279 2 min 0,000 mm 0,5 UV-I 296 W/m -0,5 C 2,7 C 11,3 km/h (2 Bft) 93,62 %
26.12.2018 11:40 3,3 C 4,4 C 5,0 C 77 % 1031,3 hPa 0,0 l/m 8,0 km/h (2 Bft) W-NW 282 2 min 0,000 mm 0,5 UV-I 297 W/m -0,3 C 1,8 C 12,9 km/h (3 Bft) 93,62 %
26.12.2018 11:42 3,3 C 4,4 C 5,0 C 77 % 1031,3 hPa 0,0 l/m 8,0 km/h (2 Bft) W-SW 242 2 min 0,000 mm 0,5 UV-I 299 W/m -0,3 C 1,8 C 12,9 km/h (3 Bft) 94,74 %
26.12.2018 11:44 3,4 C 4,4 C 5,0 C 76 % 1031,2 hPa 0,0 l/m 8,6 km/h (2 Bft) W-SW 249 2 min 0,000 mm 0,5 UV-I 301 W/m -0,4 C 1,4 C 12,9 km/h (3 Bft) 96,00 %
26.12.2018 11:46 3,4 C 4,4 C 5,6 C 76 % 1031,1 hPa 0,0 l/m 9,9 km/h (2 Bft) W-NW 282 2 min 0,000 mm 0,5 UV-I 305 W/m -0,4 C 0,4 C 14,5 km/h (3 Bft) 93,62 %
26.12.2018 11:48 3,5 C 4,4 C 5,6 C 76 % 1031,1 hPa 0,0 l/m 9,6 km/h (2 Bft) W-SW 246 2 min 0,000 mm 0,5 UV-I 311 W/m -0,3 C 0,7 C 16,1 km/h (3 Bft) 95,83 %
26.12.2018 11:50 3,5 C 4,4 C 5,6 C 76 % 1031,1 hPa 0,0 l/m 9,7 km/h (2 Bft) SW 225 2 min 0,000 mm 0,5 UV-I 316 W/m -0,3 C 0,6 C 14,5 km/h (3 Bft) 91,49 %
26.12.2018 11:52 3,5 C 4,4 C 5,6 C 76 % 1031,1 hPa 0,0 l/m 7,9 km/h (2 Bft) W 279 2 min 0,000 mm 0,5 UV-I 319 W/m -0,3 C 2,1 C 14,5 km/h (3 Bft) 93,62 %
26.12.2018 11:54 3,5 C 4,4 C 6,1 C 76 % 1031,1 hPa 0,0 l/m 4,6 km/h (1 Bft) W-NW 291 2 min 0,000 mm 0,5 UV-I 316 W/m -0,3 C 3,5 C 11,3 km/h (2 Bft) 93,62 %
26.12.2018 11:56 3,6 C 4,4 C 6,1 C 76 % 1031,1 hPa 0,0 l/m 3,7 km/h (1 Bft) W 265 2 min 0,000 mm 0,5 UV-I 310 W/m -0,2 C 3,6 C 11,3 km/h (2 Bft) 93,62 %
26.12.2018 11:58 3,7 C 4,4 C 6,1 C 75 % 1031,2 hPa 0,0 l/m 7,8 km/h (2 Bft) NW 305 2 min 0,000 mm 0,5 UV-I 306 W/m -0,3 C 2,4 C 16,1 km/h (3 Bft) 93,62 %
26.12.2018 12:00 3,8 C 4,4 C 5,6 C 75 % 1031,1 hPa 0,0 l/m 8,8 km/h (2 Bft) W-NW 295 2 min 0,127 mm 0,5 UV-I 297 W/m -0,2 C 1,7 C 17,7 km/h (3 Bft) 93,62 %
26.12.2018 12:02 3,7 C 4,4 C 5,6 C 75 % 1031,1 hPa 0,0 l/m 8,9 km/h (2 Bft) W-NW 291 2 min 0,000 mm 0,5 UV-I 297 W/m -0,3 C 1,5 C 16,1 km/h (3 Bft) 93,62 %
26.12.2018 12:04 3,7 C 4,4 C 5,0 C 75 % 1031,1 hPa 0,0 l/m 8,2 km/h (2 Bft) W 281 2 min 0,000 mm 0,5 UV-I 293 W/m -0,3 C 2,1 C 14,5 km/h (3 Bft) 95,74 %
26.12.2018 12:06 3,7 C 4,4 C 5,0 C 75 % 1031,0 hPa 0,0 l/m 7,4 km/h (2 Bft) W-SW 257 2 min 0,000 mm 0,5 UV-I 290 W/m -0,3 C 2,8 C 16,1 km/h (3 Bft) 91,49 %
26.12.2018 12:08 3,8 C 4,4 C 5,0 C 75 % 1031,0 hPa 0,0 l/m 12,8 km/h (3 Bft) W 261 2 min 0,000 mm 0,5 UV-I 275 W/m -0,2 C -1,1 C 20,9 km/h (4 Bft) 93,62 %
26.12.2018 12:10 3,8 C 4,4 C 5,0 C 75 % 1030,9 hPa 0,0 l/m 13,0 km/h (3 Bft) W-NW 284 2 min 0,000 mm 0,5 UV-I 263 W/m -0,2 C -1,2 C 17,7 km/h (3 Bft) 95,74 %
26.12.2018 12:12 3,7 C 4,4 C 5,0 C 74 % 1030,8 hPa 0,0 l/m 8,3 km/h (2 Bft) W 277 2 min 0,000 mm 0,5 UV-I 278 W/m -0,5 C 2,0 C 12,9 km/h (3 Bft) 98,00 %
26.12.2018 12:14 3,7 C 4,4 C 5,0 C 75 % 1030,7 hPa 0,0 l/m 10,2 km/h (2 Bft) W 273 2 min 0,000 mm 0,5 UV-I 286 W/m -0,3 C 0,5 C 19,3 km/h (3 Bft) 95,74 %
26.12.2018 12:16 3,8 C 4,4 C 5,0 C 75 % 1030,7 hPa 0,0 l/m 12,8 km/h (3 Bft) W-NW 296 2 min 0,000 mm 0,5 UV-I 287 W/m -0,2 C -1,1 C 19,3 km/h (3 Bft) 95,74 %
26.12.2018 12:18 3,8 C 4,4 C 5,0 C 76 % 1030,7 hPa 0,0 l/m 8,1 km/h (2 Bft) W 276 2 min 0,000 mm 0,5 UV-I 290 W/m -0,0 C 2,3 C 14,5 km/h (3 Bft) 97,37 %
26.12.2018 12:20 3,8 C 4,4 C 5,0 C 75 % 1030,6 hPa 0,0 l/m 13,6 km/h (3 Bft) W 269 2 min 0,000 mm 0,5 UV-I 284 W/m -0,2 C -1,6 C 19,3 km/h (3 Bft) 98,00 %
26.12.2018 12:22 3,8 C 4,4 C 5,0 C 75 % 1030,6 hPa 0,0 l/m 12,0 km/h (2 Bft) W 259 2 min 0,000 mm 0,5 UV-I 281 W/m -0,2 C -0,6 C 16,1 km/h (3 Bft) 97,87 %
26.12.2018 12:24 3,8 C 4,4 C 5,0 C 75 % 1030,6 hPa 0,0 l/m 9,2 km/h (2 Bft) W 273 2 min 0,000 mm 0,5 UV-I 282 W/m -0,2 C 1,4 C 16,1 km/h (3 Bft) 98,00 %
26.12.2018 12:26 3,9 C 4,4 C 5,0 C 75 % 1030,6 hPa 0,0 l/m 8,5 km/h (2 Bft) W 263 2 min 0,000 mm 0,5 UV-I 281 W/m -0,1 C 2,0 C 14,5 km/h (3 Bft) 97,92 %
26.12.2018 12:28 3,9 C 4,4 C 5,0 C 75 % 1030,6 hPa 0,0 l/m 9,1 km/h (2 Bft) W 277 2 min 0,000 mm 0,5 UV-I 269 W/m -0,1 C 1,5 C 17,7 km/h (3 Bft) 95,74 %
26.12.2018 12:30 3,9 C 4,4 C 5,0 C 75 % 1030,5 hPa 0,0 l/m 9,8 km/h (2 Bft) W 277 2 min 0,000 mm 0,5 UV-I 269 W/m -0,1 C 1,0 C 14,5 km/h (3 Bft) 93,62 %
26.12.2018 12:32 3,9 C 4,4 C 5,0 C 75 % 1030,5 hPa 0,0 l/m 13,7 km/h (3 Bft) W-NW 290 2 min 0,000 mm 0,5 UV-I 272 W/m -0,1 C -1,5 C 22,5 km/h (4 Bft) 97,87 %
26.12.2018 12:34 3,9 C 4,4 C 4,4 C 75 % 1030,4 hPa 0,0 l/m 11,6 km/h (2 Bft) W 262 2 min 0,000 mm 0,5 UV-I 279 W/m -0,1 C -0,3 C 17,7 km/h (3 Bft) 97,87 %
26.12.2018 12:36 3,9 C 4,4 C 4,4 C 75 % 1030,4 hPa 0,0 l/m 7,4 km/h (2 Bft) NW 306 2 min 0,000 mm 0,5 UV-I 280 W/m -0,1 C 3,0 C 14,5 km/h (3 Bft) 96,00 %
26.12.2018 12:38 3,9 C 4,4 C 4,4 C 75 % 1030,4 hPa 0,0 l/m 6,4 km/h (2 Bft) W 279 2 min 0,000 mm 0,5 UV-I 279 W/m -0,1 C 3,9 C 11,3 km/h (2 Bft) 95,74 %
26.12.2018 12:40 3,9 C 4,4 C 4,4 C 75 % 1030,3 hPa 0,0 l/m 10,0 km/h (2 Bft) W 260 2 min 0,000 mm 0,5 UV-I 276 W/m -0,1 C 0,9 C 17,7 km/h (3 Bft) 97,87 %
26.12.2018 12:42 4,0 C 4,4 C 4,4 C 75 % 1030,3 hPa 0,0 l/m 10,9 km/h (2 Bft) W 269 2 min 0,000 mm 0,5 UV-I 274 W/m -0,0 C 0,3 C 14,5 km/h (3 Bft) 95,74 %
26.12.2018 12:44 4,0 C 4,4 C 4,4 C 75 % 1030,3 hPa 0,0 l/m 11,7 km/h (2 Bft) W 278 2 min 0,000 mm 0,5 UV-I 274 W/m -0,0 C -0,2 C 16,1 km/h (3 Bft) 97,87 %
26.12.2018 12:46 4,1 C 4,4 C 4,4 C 75 % 1030,3 hPa 0,0 l/m 12,1 km/h (2 Bft) SW 233 2 min 0,000 mm 0,5 UV-I 273 W/m 0,1 C -0,3 C 20,9 km/h (4 Bft) 97,14 %
26.12.2018 12:48 4,1 C 4,4 C 4,4 C 74 % 1030,3 hPa 0,0 l/m 16,0 km/h (3 Bft) W-NW 288 2 min 0,000 mm 0,5 UV-I 272 W/m -0,1 C -2,5 C 22,5 km/h (4 Bft) 98,00 %
26.12.2018 12:50 4,0 C 4,4 C 4,4 C 74 % 1030,3 hPa 0,0 l/m 16,4 km/h (3 Bft) W-SW 237 2 min 0,000 mm 0,5 UV-I 272 W/m -0,2 C -2,8 C 22,5 km/h (4 Bft) 95,74 %
26.12.2018 12:52 4,1 C 4,4 C 5,0 C 74 % 1030,3 hPa 0,0 l/m 12,1 km/h (2 Bft) W 278 2 min 0,000 mm 0,5 UV-I 270 W/m -0,1 C -0,3 C 20,9 km/h (4 Bft) 95,74 %
26.12.2018 12:54 4,1 C 4,4 C 5,0 C 74 % 1030,3 hPa 0,0 l/m 13,1 km/h (3 Bft) W 271 2 min 0,000 mm 0,5 UV-I 269 W/m -0,1 C -1,0 C 19,3 km/h (3 Bft) 95,74 %
26.12.2018 12:56 4,2 C 4,4 C 5,0 C 74 % 1030,4 hPa 0,0 l/m 15,1 km/h (3 Bft) W 263 2 min 0,000 mm 0,5 UV-I 268 W/m -0,0 C -1,9 C 22,5 km/h (4 Bft) 97,87 %
26.12.2018 12:58 4,2 C 4,4 C 5,0 C 73 % 1030,4 hPa 0,0 l/m 16,8 km/h (3 Bft) W 277 2 min 0,000 mm 0,5 UV-I 266 W/m -0,2 C -2,8 C 24,1 km/h (4 Bft) 95,74 %
26.12.2018 13:00 4,2 C 4,4 C 5,0 C 73 % 1030,4 hPa 0,0 l/m 14,8 km/h (3 Bft) NW 308 2 min 0,127 mm 0,5 UV-I 265 W/m -0,2 C -1,8 C 22,5 km/h (4 Bft) 95,74 %
26.12.2018 13:02 4,2 C 4,4 C 4,4 C 73 % 1030,3 hPa 0,0 l/m 18,7 km/h (3 Bft) W-NW 284 2 min 0,000 mm 0,5 UV-I 261 W/m -0,2 C -3,7 C 29,0 km/h (5 Bft) 92,00 %
26.12.2018 13:04 4,2 C 4,4 C 4,4 C 73 % 1030,3 hPa 0,0 l/m 11,7 km/h (2 Bft) W-SW 247 2 min 0,000 mm 0,5 UV-I 260 W/m -0,2 C 0,0 C 19,3 km/h (3 Bft) 91,49 %
26.12.2018 13:06 4,3 C 4,4 C 4,4 C 73 % 1030,3 hPa 0,0 l/m 12,3 km/h (3 Bft) W 281 2 min 0,000 mm 0,5 UV-I 258 W/m -0,1 C -0,2 C 22,5 km/h (4 Bft) 91,67 %
26.12.2018 13:08 4,3 C 4,4 C 4,4 C 73 % 1030,3 hPa 0,0 l/m 14,2 km/h (3 Bft) W 278 2 min 0,000 mm 0,5 UV-I 257 W/m -0,1 C -1,3 C 24,1 km/h (4 Bft) 93,55 %
26.12.2018 13:10 4,3 C 4,4 C 5,0 C 72 % 1030,3 hPa 0,0 l/m 11,6 km/h (2 Bft) W-SW 254 2 min 0,000 mm 0,5 UV-I 255 W/m -0,3 C 0,2 C 16,1 km/h (3 Bft) 94,74 %
26.12.2018 13:12 4,3 C 4,4 C 5,0 C 72 % 1030,3 hPa 0,0 l/m 15,0 km/h (3 Bft) W 275 2 min 0,000 mm 0,5 UV-I 254 W/m -0,3 C -1,8 C 24,1 km/h (4 Bft) 93,62 %
26.12.2018 13:14 4,3 C 4,4 C 5,0 C 72 % 1030,3 hPa 0,0 l/m 17,2 km/h (3 Bft) W-NW 286 2 min 0,000 mm 0,0 UV-I 252 W/m -0,3 C -2,9 C 22,5 km/h (4 Bft) 92,45 %
26.12.2018 13:16 4,4 C 4,4 C 5,0 C 72 % 1030,3 hPa 0,0 l/m 16,3 km/h (3 Bft) W 271 2 min 0,000 mm 0,0 UV-I 252 W/m -0,2 C -2,3 C 29,0 km/h (5 Bft) 93,62 %
26.12.2018 13:18 4,4 C 4,4 C 5,0 C 72 % 1030,3 hPa 0,0 l/m 12,8 km/h (3 Bft) W 275 2 min 0,000 mm 0,0 UV-I 251 W/m -0,2 C -0,4 C 19,3 km/h (3 Bft) 95,74 %
26.12.2018 13:20 4,4 C 4,4 C 5,0 C 72 % 1030,3 hPa 0,0 l/m 10,9 km/h (2 Bft) W-NW 291 2 min 0,000 mm 0,0 UV-I 248 W/m -0,2 C 0,8 C 19,3 km/h (3 Bft) 94,00 %
26.12.2018 13:22 4,5 C 4,4 C 5,0 C 72 % 1030,4 hPa 0,0 l/m 8,2 km/h (2 Bft) W-NW 288 2 min 0,000 mm 0,0 UV-I 246 W/m -0,1 C 2,9 C 14,5 km/h (3 Bft) 93,62 %
26.12.2018 13:24 4,5 C 4,4 C 5,0 C 71 % 1030,4 hPa 0,0 l/m 12,5 km/h (3 Bft) W-NW 282 2 min 0,000 mm 0,0 UV-I 244 W/m -0,3 C -0,1 C 20,9 km/h (4 Bft) 94,74 %
26.12.2018 13:26 4,6 C 4,4 C 5,0 C 72 % 1030,4 hPa 0,0 l/m 10,6 km/h (2 Bft) W 272 2 min 0,000 mm 0,0 UV-I 242 W/m -0,0 C 1,2 C 17,7 km/h (3 Bft) 100,00 %
26.12.2018 13:28 4,6 C 4,4 C 5,0 C 71 % 1030,4 hPa 0,0 l/m 11,4 km/h (2 Bft) W-NW 284 2 min 0,000 mm 0,0 UV-I 240 W/m -0,2 C 0,7 C 19,3 km/h (3 Bft) 98,00 %
26.12.2018 13:30 4,6 C 4,4 C 5,0 C 71 % 1030,4 hPa 0,0 l/m 11,9 km/h (2 Bft) W-NW 293 2 min 0,000 mm 0,0 UV-I 238 W/m -0,2 C 0,4 C 19,3 km/h (3 Bft) 98,00 %
26.12.2018 13:32 4,6 C 4,4 C 5,0 C 71 % 1030,4 hPa 0,0 l/m 9,6 km/h (2 Bft) W 275 2 min 0,000 mm 0,0 UV-I 236 W/m -0,2 C 1,9 C 22,5 km/h (4 Bft) 97,87 %
26.12.2018 13:34 4,6 C 4,4 C 5,0 C 71 % 1030,4 hPa 0,0 l/m 9,6 km/h (2 Bft) W-NW 296 2 min 0,000 mm 0,0 UV-I 235 W/m -0,2 C 1,9 C 17,7 km/h (3 Bft) 100,00 %
26.12.2018 13:36 4,6 C 4,4 C 5,0 C 71 % 1030,4 hPa 0,0 l/m 8,9 km/h (2 Bft) W 269 2 min 0,000 mm 0,0 UV-I 231 W/m -0,2 C 2,5 C 16,1 km/h (3 Bft) 97,87 %
26.12.2018 13:38 4,6 C 4,4 C 5,0 C 71 % 1030,4 hPa 0,0 l/m 10,1 km/h (2 Bft) W-NW 298 2 min 0,000 mm 0,0 UV-I 230 W/m -0,2 C 1,6 C 25,7 km/h (4 Bft) 97,92 %
26.12.2018 13:40 4,6 C 4,4 C 4,4 C 70 % 1030,4 hPa 0,0 l/m 11,1 km/h (2 Bft) W-SW 252 2 min 0,000 mm 0,0 UV-I 227 W/m -0,4 C 0,9 C 24,1 km/h (4 Bft) 100,00 %
26.12.2018 13:42 4,5 C 4,4 C 4,4 C 69 % 1030,4 hPa 0,0 l/m 11,6 km/h (2 Bft) W-NW 294 2 min 0,000 mm 0,0 UV-I 224 W/m -0,7 C 0,4 C 20,9 km/h (4 Bft) 100,00 %
26.12.2018 13:44 4,5 C 4,4 C 5,0 C 70 % 1030,4 hPa 0,0 l/m 11,7 km/h (2 Bft) W 267 2 min 0,000 mm 0,0 UV-I 222 W/m -0,5 C 0,4 C 22,5 km/h (4 Bft) 97,87 %
26.12.2018 13:46 4,4 C 4,4 C 5,0 C 69 % 1030,4 hPa 0,0 l/m 10,4 km/h (2 Bft) W-NW 287 2 min 0,000 mm 0,0 UV-I 219 W/m -0,8 C 1,1 C 14,5 km/h (3 Bft) 100,00 %
26.12.2018 13:48 4,4 C 4,4 C 5,0 C 69 % 1030,4 hPa 0,0 l/m 10,8 km/h (2 Bft) W 265 2 min 0,000 mm 0,0 UV-I 217 W/m -0,8 C 0,8 C 17,7 km/h (3 Bft) 100,00 %
26.12.2018 13:50 4,4 C 4,4 C 5,0 C 69 % 1030,4 hPa 0,0 l/m 13,7 km/h (3 Bft) W 277 2 min 0,000 mm 0,0 UV-I 214 W/m -0,8 C -0,9 C 19,3 km/h (3 Bft) 97,87 %
26.12.2018 13:52 4,4 C 4,4 C 5,0 C 69 % 1030,4 hPa 0,0 l/m 9,7 km/h (2 Bft) W 263 2 min 0,000 mm 0,0 UV-I 211 W/m -0,8 C 1,6 C 14,5 km/h (3 Bft) 100,00 %
26.12.2018 13:54 4,5 C 4,4 C 5,0 C 69 % 1030,4 hPa 0,0 l/m 7,4 km/h (2 Bft) W-NW 286 2 min 0,000 mm 0,0 UV-I 208 W/m -0,7 C 3,6 C 11,3 km/h (2 Bft) 100,00 %
26.12.2018 13:56 4,5 C 4,4 C 4,4 C 69 % 1030,3 hPa 0,0 l/m 9,2 km/h (2 Bft) N-NO 14 2 min 0,000 mm 0,0 UV-I 206 W/m -0,7 C 2,1 C 14,5 km/h (3 Bft) 100,00 %
26.12.2018 13:58 4,5 C 4,4 C 4,4 C 69 % 1030,3 hPa 0,0 l/m 10,3 km/h (2 Bft) W 259 2 min 0,000 mm 0,0 UV-I 203 W/m -0,7 C 1,3 C 19,3 km/h (3 Bft) 100,00 %
26.12.2018 14:00 4,4 C 4,4 C 4,4 C 70 % 1030,3 hPa 0,0 l/m 9,3 km/h (2 Bft) W-NW 286 2 min 0,000 mm 0,0 UV-I 201 W/m -0,6 C 1,9 C 17,7 km/h (3 Bft) 100,00 %
26.12.2018 14:02 4,4 C 4,4 C 4,4 C 69 % 1030,2 hPa 0,0 l/m 12,6 km/h (3 Bft) W 280 2 min 0,127 mm 0,0 UV-I 199 W/m -0,8 C -0,3 C 20,9 km/h (4 Bft) 100,00 %
26.12.2018 14:04 4,3 C 4,4 C 4,4 C 69 % 1030,3 hPa 0,0 l/m 11,4 km/h (2 Bft) W-NW 286 2 min 0,000 mm 0,0 UV-I 195 W/m -0,9 C 0,3 C 19,3 km/h (3 Bft) 100,00 %
26.12.2018 14:06 4,3 C 4,4 C 4,4 C 70 % 1030,3 hPa 0,0 l/m 8,5 km/h (2 Bft) W-NW 297 2 min 0,000 mm 0,0 UV-I 193 W/m -0,7 C 2,5 C 16,1 km/h (3 Bft) 97,87 %
26.12.2018 14:08 4,3 C 4,4 C 4,4 C 70 % 1030,2 hPa 0,0 l/m 9,0 km/h (2 Bft) W 262 2 min 0,000 mm 0,0 UV-I 191 W/m -0,7 C 2,1 C 17,7 km/h (3 Bft) 100,00 %
26.12.2018 14:10 4,3 C 4,4 C 3,9 C 70 % 1030,3 hPa 0,0 l/m 5,6 km/h (1 Bft) W 273 2 min 0,000 mm 0,0 UV-I 188 W/m -0,7 C 4,3 C 11,3 km/h (2 Bft) 100,00 %
26.12.2018 14:12 4,3 C 4,4 C 3,9 C 70 % 1030,3 hPa 0,0 l/m 9,2 km/h (2 Bft) W-SW 255 2 min 0,000 mm 0,0 UV-I 185 W/m -0,7 C 1,9 C 16,1 km/h (3 Bft) 100,00 %
26.12.2018 14:14 4,3 C 4,4 C 3,9 C 70 % 1030,3 hPa 0,0 l/m 12,3 km/h (3 Bft) W-NW 292 2 min 0,000 mm 0,0 UV-I 182 W/m -0,7 C -0,2 C 22,5 km/h (4 Bft) 100,00 %
26.12.2018 14:16 4,3 C 4,4 C 3,9 C 69 % 1030,3 hPa 0,0 l/m 16,9 km/h (3 Bft) W 260 2 min 0,000 mm 0,0 UV-I 179 W/m -0,9 C -2,7 C 24,1 km/h (4 Bft) 97,87 %
26.12.2018 14:18 4,3 C 4,4 C 3,9 C 69 % 1030,3 hPa 0,0 l/m 16,6 km/h (3 Bft) W 276 2 min 0,000 mm 0,0 UV-I 177 W/m -0,9 C -2,6 C 27,4 km/h (4 Bft) 100,00 %
26.12.2018 14:20 4,3 C 4,4 C 3,9 C 69 % 1030,3 hPa 0,0 l/m 15,2 km/h (3 Bft) W-SW 254 2 min 0,000 mm 0,0 UV-I 174 W/m -0,9 C -1,9 C 24,1 km/h (4 Bft) 97,87 %
26.12.2018 14:22 4,3 C 4,4 C 3,9 C 69 % 1030,3 hPa 0,0 l/m 11,7 km/h (2 Bft) W 271 2 min 0,000 mm 0,0 UV-I 170 W/m -0,9 C 0,1 C 16,1 km/h (3 Bft) 97,87 %
26.12.2018 14:24 4,3 C 4,4 C 3,9 C 69 % 1030,2 hPa 0,0 l/m 12,6 km/h (3 Bft) W 263 2 min 0,000 mm 0,0 UV-I 168 W/m -0,9 C -0,4 C 17,7 km/h (3 Bft) 95,83 %
26.12.2018 14:26 4,3 C 4,4 C 3,9 C 70 % 1030,3 hPa 0,0 l/m 11,8 km/h (2 Bft) W-NW 285 2 min 0,000 mm 0,0 UV-I 164 W/m -0,7 C 0,1 C 22,5 km/h (4 Bft) 95,74 %
26.12.2018 14:28 4,3 C 4,4 C 3,9 C 69 % 1030,3 hPa 0,0 l/m 10,9 km/h (2 Bft) W 277 2 min 0,000 mm 0,0 UV-I 161 W/m -0,9 C 0,7 C 19,3 km/h (3 Bft) 95,74 %
26.12.2018 14:30 4,2 C 4,4 C 3,9 C 70 % 1030,3 hPa 0,0 l/m 12,1 km/h (2 Bft) W-NW 294 2 min 0,000 mm 0,0 UV-I 158 W/m -0,8 C -0,2 C 19,3 km/h (3 Bft) 100,00 %
26.12.2018 14:32 4,2 C 4,4 C 4,4 C 69 % 1030,3 hPa 0,0 l/m 11,1 km/h (2 Bft) W-NW 284 2 min 0,000 mm 0,0 UV-I 154 W/m -1,0 C 0,4 C 17,7 km/h (3 Bft) 98,00 %
26.12.2018 14:34 4,2 C 4,4 C 4,4 C 70 % 1030,3 hPa 0,0 l/m 12,1 km/h (2 Bft) W-NW 289 2 min 0,000 mm 0,0 UV-I 150 W/m -0,8 C -0,2 C 19,3 km/h (3 Bft) 91,49 %
26.12.2018 14:36 4,2 C 4,4 C 5,0 C 70 % 1030,3 hPa 0,0 l/m 6,8 km/h (2 Bft) W-NW 282 2 min 0,000 mm 0,0 UV-I 148 W/m -0,8 C 3,8 C 16,1 km/h (3 Bft) 93,62 %
26.12.2018 14:38 4,1 C 4,4 C 4,4 C 70 % 1030,3 hPa 0,0 l/m 10,3 km/h (2 Bft) W-SW 252 2 min 0,000 mm 0,0 UV-I 145 W/m -0,9 C 0,9 C 16,1 km/h (3 Bft) 95,74 %
26.12.2018 14:40 4,1 C 4,4 C 3,9 C 70 % 1030,3 hPa 0,0 l/m 13,1 km/h (3 Bft) W-NW 293 2 min 0,000 mm 0,0 UV-I 142 W/m -0,9 C -1,0 C 17,7 km/h (3 Bft) 95,74 %
26.12.2018 14:42 4,0 C 4,4 C 3,3 C 70 % 1030,3 hPa 0,0 l/m 11,4 km/h (2 Bft) W-NW 283 2 min 0,000 mm 0,0 UV-I 140 W/m -1,0 C -0,0 C 22,5 km/h (4 Bft) 97,87 %
26.12.2018 14:44 3,9 C 4,4 C 3,3 C 71 % 1030,4 hPa 0,0 l/m 8,5 km/h (2 Bft) W-NW 292 2 min 0,000 mm 0,0 UV-I 137 W/m -0,9 C 2,0 C 19,3 km/h (3 Bft) 95,74 %
26.12.2018 14:46 3,9 C 4,4 C 2,8 C 71 % 1030,4 hPa 0,0 l/m 9,6 km/h (2 Bft) W-NW 286 2 min 0,000 mm 0,0 UV-I 133 W/m -0,9 C 1,2 C 17,7 km/h (3 Bft) 98,00 %
26.12.2018 14:48 3,9 C 4,4 C 2,8 C 71 % 1030,4 hPa 0,0 l/m 8,2 km/h (2 Bft) W-NW 288 2 min 0,000 mm 0,0 UV-I 130 W/m -0,9 C 2,3 C 14,5 km/h (3 Bft) 95,74 %
26.12.2018 14:50 3,9 C 4,4 C 2,8 C 72 % 1030,4 hPa 0,0 l/m 10,7 km/h (2 Bft) W 275 2 min 0,000 mm 0,0 UV-I 127 W/m -0,7 C 0,4 C 16,1 km/h (3 Bft) 97,87 %
26.12.2018 14:52 3,8 C 4,4 C 2,8 C 71 % 1030,4 hPa 0,0 l/m 10,8 km/h (2 Bft) NW 305 2 min 0,000 mm 0,0 UV-I 124 W/m -1,0 C 0,2 C 16,1 km/h (3 Bft) 95,74 %
26.12.2018 14:54 3,8 C 4,4 C 2,8 C 71 % 1030,4 hPa 0,0 l/m 4,9 km/h (1 Bft) W-SW 253 2 min 0,000 mm 0,0 UV-I 120 W/m -1,0 C 3,8 C 6,4 km/h (2 Bft) 97,87 %
26.12.2018 14:56 3,8 C 4,4 C 2,8 C 72 % 1030,4 hPa 0,0 l/m 13,5 km/h (3 Bft) W 273 2 min 0,000 mm 0,0 UV-I 118 W/m -0,8 C -1,5 C 20,9 km/h (4 Bft) 97,87 %
26.12.2018 14:58 3,8 C 4,4 C 2,8 C 72 % 1030,4 hPa 0,0 l/m 10,2 km/h (2 Bft) W 268 2 min 0,000 mm 0,0 UV-I 114 W/m -0,8 C 0,6 C 19,3 km/h (3 Bft) 93,62 %
26.12.2018 15:00 3,8 C 4,4 C 2,2 C 72 % 1030,4 hPa 0,0 l/m 5,6 km/h (1 Bft) W 263 2 min 0,076 mm 0,0 UV-I 112 W/m -0,8 C 3,8 C 9,7 km/h (2 Bft) 91,49 %
26.12.2018 15:02 3,7 C 4,4 C 2,2 C 72 % 1030,4 hPa 0,0 l/m 9,6 km/h (2 Bft) W 267 2 min 0,000 mm 0,0 UV-I 109 W/m -0,9 C 0,9 C 19,3 km/h (3 Bft) 98,04 %
26.12.2018 15:04 3,7 C 4,4 C 2,2 C 72 % 1030,4 hPa 0,0 l/m 11,4 km/h (2 Bft) W 281 2 min 0,000 mm 0,0 UV-I 105 W/m -0,9 C -0,3 C 17,7 km/h (3 Bft) 100,00 %
26.12.2018 15:06 3,7 C 4,4 C 2,2 C 72 % 1030,5 hPa 0,0 l/m 5,6 km/h (1 Bft) W 266 2 min 0,000 mm 0,0 UV-I 103 W/m -0,9 C 3,7 C 11,3 km/h (2 Bft) 100,00 %
26.12.2018 15:08 3,6 C 4,4 C 2,2 C 72 % 1030,4 hPa 0,0 l/m 7,7 km/h (2 Bft) W-NW 295 2 min 0,000 mm 0,0 UV-I 100 W/m -1,0 C 2,4 C 12,9 km/h (3 Bft) 97,87 %
26.12.2018 15:10 3,6 C 4,4 C 2,2 C 72 % 1030,5 hPa 0,0 l/m 5,3 km/h (1 Bft) W 280 2 min 0,000 mm 0,0 UV-I 97 W/m -1,0 C 3,6 C 9,7 km/h (2 Bft) 95,65 %
26.12.2018 15:12 3,5 C 4,4 C 1,7 C 73 % 1030,5 hPa 0,0 l/m 7,8 km/h (2 Bft) W-NW 299 2 min 0,000 mm 0,0 UV-I 94 W/m -0,9 C 2,2 C 14,5 km/h (3 Bft) 98,39 %
26.12.2018 15:14 3,5 C 4,4 C 2,2 C 73 % 1030,4 hPa 0,0 l/m 10,0 km/h (2 Bft) W-NW 294 2 min 0,000 mm 0,0 UV-I 91 W/m -0,9 C 0,4 C 19,3 km/h (3 Bft) 100,00 %
26.12.2018 15:16 3,4 C 4,4 C 2,2 C 73 % 1030,5 hPa 0,0 l/m 12,1 km/h (2 Bft) W 273 2 min 0,000 mm 0,0 UV-I 88 W/m -1,0 C -1,2 C 17,7 km/h (3 Bft) 98,00 %
26.12.2018 15:18 3,4 C 4,4 C 1,7 C 73 % 1030,5 hPa 0,0 l/m 5,7 km/h (1 Bft) W 269 2 min 0,000 mm 0,0 UV-I 85 W/m -1,0 C 3,4 C 11,3 km/h (2 Bft) 100,00 %
26.12.2018 15:20 3,4 C 4,4 C 1,7 C 73 % 1030,6 hPa 0,0 l/m 6,8 km/h (2 Bft) NW 313 2 min 0,000 mm 0,0 UV-I 82 W/m -1,0 C 3,0 C 14,5 km/h (3 Bft) 100,00 %
26.12.2018 15:22 3,3 C 4,4 C 1,7 C 74 % 1030,6 hPa 0,0 l/m 2,5 km/h (1 Bft) N-NW 346 2 min 0,000 mm 0,0 UV-I 79 W/m -0,9 C 3,3 C 4,8 km/h (1 Bft) 97,87 %
26.12.2018 15:24 3,2 C 4,4 C 1,7 C 74 % 1030,6 hPa 0,0 l/m 3,4 km/h (1 Bft) W 276 2 min 0,000 mm 0,0 UV-I 76 W/m -1,0 C 3,2 C 6,4 km/h (2 Bft) 97,87 %
26.12.2018 15:26 3,2 C 4,4 C 1,1 C 75 % 1030,6 hPa 0,0 l/m 5,4 km/h (1 Bft) NW 316 2 min 0,000 mm 0,0 UV-I 74 W/m -0,8 C 3,2 C 12,9 km/h (3 Bft) 100,00 %
26.12.2018 15:28 3,2 C 4,4 C 1,1 C 75 % 1030,6 hPa 0,0 l/m 5,9 km/h (2 Bft) W-NW 303 2 min 0,000 mm 0,0 UV-I 71 W/m -0,8 C 3,2 C 11,3 km/h (2 Bft) 100,00 %
26.12.2018 15:30 3,2 C 4,4 C 1,1 C 75 % 1030,6 hPa 0,0 l/m 3,9 km/h (1 Bft) W 273 2 min 0,000 mm 0,0 UV-I 68 W/m -0,8 C 3,2 C 4,8 km/h (1 Bft) 97,87 %
26.12.2018 15:32 3,1 C 4,4 C 1,1 C 75 % 1030,6 hPa 0,0 l/m 7,1 km/h (2 Bft) W 265 2 min 0,000 mm 0,0 UV-I 65 W/m -0,9 C 2,4 C 12,9 km/h (3 Bft) 96,00 %
26.12.2018 15:34 3,1 C 4,4 C 1,1 C 75 % 1030,6 hPa 0,0 l/m 9,8 km/h (2 Bft) W-NW 295 2 min 0,000 mm 0,0 UV-I 63 W/m -0,9 C 0,1 C 17,7 km/h (3 Bft) 94,00 %
26.12.2018 15:36 3,0 C 4,4 C 1,1 C 75 % 1030,6 hPa 0,0 l/m 9,5 km/h (2 Bft) W 268 2 min 0,000 mm 0,0 UV-I 61 W/m -1,0 C 0,2 C 16,1 km/h (3 Bft) 91,49 %
26.12.2018 15:38 3,0 C 4,4 C 1,7 C 75 % 1030,7 hPa 0,0 l/m 11,5 km/h (2 Bft) W 281 2 min 0,000 mm 0,0 UV-I 58 W/m -1,0 C -1,2 C 19,3 km/h (3 Bft) 93,62 %
26.12.2018 15:40 2,9 C 4,4 C 1,1 C 75 % 1030,6 hPa 0,0 l/m 5,1 km/h (1 Bft) W-NW 300 2 min 0,000 mm 0,0 UV-I 55 W/m -1,1 C 2,9 C 11,3 km/h (2 Bft) 95,83 %
26.12.2018 15:42 2,9 C 4,4 C 1,1 C 76 % 1030,6 hPa 0,0 l/m 4,8 km/h (1 Bft) W 265 2 min 0,000 mm 0,0 UV-I 53 W/m -0,9 C 2,9 C 11,3 km/h (2 Bft) 93,62 %
26.12.2018 15:44 2,8 C 4,4 C 1,1 C 76 % 1030,6 hPa 0,0 l/m 7,5 km/h (2 Bft) W 271 2 min 0,000 mm 0,0 UV-I 50 W/m -1,0 C 1,8 C 17,7 km/h (3 Bft) 95,74 %
26.12.2018 15:46 2,8 C 4,4 C 1,1 C 76 % 1030,6 hPa 0,0 l/m 12,8 km/h (3 Bft) W 275 2 min 0,000 mm 0,0 UV-I 48 W/m -1,0 C -2,3 C 19,3 km/h (3 Bft) 95,74 %
26.12.2018 15:48 2,8 C 4,4 C 1,1 C 76 % 1030,7 hPa 0,0 l/m 11,0 km/h (2 Bft) W 265 2 min 0,000 mm 0,0 UV-I 45 W/m -1,0 C -1,1 C 14,5 km/h (3 Bft) 93,62 %
26.12.2018 15:50 2,8 C 4,4 C 1,1 C 76 % 1030,7 hPa 0,0 l/m 6,2 km/h (2 Bft) W 273 2 min 0,000 mm 0,0 UV-I 41 W/m -1,0 C 2,8 C 11,3 km/h (2 Bft) 93,62 %
26.12.2018 15:52 2,7 C 4,4 C 1,1 C 76 % 1030,7 hPa 0,0 l/m 8,3 km/h (2 Bft) NW 311 2 min 0,000 mm 0,0 UV-I 39 W/m -1,1 C 0,9 C 14,5 km/h (3 Bft) 100,00 %
26.12.2018 15:54 2,7 C 4,4 C 1,1 C 77 % 1030,8 hPa 0,0 l/m 7,3 km/h (2 Bft) W 272 2 min 0,000 mm 0,0 UV-I 36 W/m -0,9 C 1,8 C 14,5 km/h (3 Bft) 95,74 %
26.12.2018 15:56 2,7 C 4,4 C 1,1 C 77 % 1030,8 hPa 0,0 l/m 8,0 km/h (2 Bft) W-NW 292 2 min 0,000 mm 0,0 UV-I 33 W/m -0,9 C 1,2 C 14,5 km/h (3 Bft) 94,74 %
26.12.2018 15:58 2,7 C 4,4 C 1,1 C 77 % 1030,8 hPa 0,0 l/m 6,4 km/h (2 Bft) W-NW 288 2 min 0,000 mm 0,0 UV-I 31 W/m -0,9 C 2,7 C 14,5 km/h (3 Bft) 97,87 %
26.12.2018 16:00 2,6 C 4,4 C 0,6 C 77 % 1030,8 hPa 0,0 l/m 3,5 km/h (1 Bft) W-NW 300 2 min 0,051 mm 0,0 UV-I 29 W/m -1,0 C 2,6 C 6,4 km/h (2 Bft) 98,00 %
26.12.2018 16:02 2,5 C 4,4 C 0,6 C 77 % 1030,8 hPa 0,0 l/m 4,5 km/h (1 Bft) NW 319 2 min 0,000 mm 0,0 UV-I 17 W/m -1,1 C 2,5 C 8,0 km/h (2 Bft) 95,74 %
26.12.2018 16:04 2,4 C 4,4 C 0,6 C 78 % 1030,8 hPa 0,0 l/m 5,9 km/h (2 Bft) W 274 0 min 0,000 mm 0,0 UV-I 12 W/m -1,0 C 2,4 C 11,3 km/h (2 Bft) 96,00 %
26.12.2018 16:06 2,3 C 4,4 C 0,6 C 78 % 1030,8 hPa 0,0 l/m 5,6 km/h (1 Bft) NW 314 0 min 0,000 mm 0,0 UV-I 19 W/m -1,1 C 2,3 C 9,7 km/h (2 Bft) 98,00 %
26.12.2018 16:08 2,3 C 4,4 C 0,0 C 78 % 1030,8 hPa 0,0 l/m 4,8 km/h (1 Bft) W 266 0 min 0,000 mm 0,0 UV-I 13 W/m -1,1 C 2,3 C 9,7 km/h (2 Bft) 97,14 %
26.12.2018 16:10 2,3 C 4,4 C 0,0 C 79 % 1030,8 hPa 0,0 l/m 10,7 km/h (2 Bft) W 277 0 min 0,000 mm 0,0 UV-I 11 W/m -1,0 C -1,4 C 20,9 km/h (4 Bft) 95,74 %
26.12.2018 16:12 2,2 C 4,4 C 0,0 C 79 % 1030,8 hPa 0,0 l/m 6,5 km/h (2 Bft) W-NW 293 0 min 0,000 mm 0,0 UV-I 11 W/m -1,1 C 2,1 C 14,5 km/h (3 Bft) 95,83 %
26.12.2018 16:14 2,2 C 4,4 C 0,6 C 79 % 1030,8 hPa 0,0 l/m 11,1 km/h (2 Bft) W 265 0 min 0,000 mm 0,0 UV-I 9 W/m -1,1 C -1,8 C 19,3 km/h (3 Bft) 95,74 %
26.12.2018 16:16 2,2 C 4,4 C 0,6 C 79 % 1030,9 hPa 0,0 l/m 6,5 km/h (2 Bft) W 267 0 min 0,000 mm 0,0 UV-I 9 W/m -1,1 C 2,1 C 14,5 km/h (3 Bft) 98,00 %
26.12.2018 16:18 2,2 C 4,4 C 0,6 C 79 % 1030,9 hPa 0,0 l/m 6,9 km/h (2 Bft) W 277 0 min 0,000 mm 0,0 UV-I 8 W/m -1,1 C 1,7 C 11,3 km/h (2 Bft) 98,00 %
26.12.2018 16:20 2,2 C 4,4 C 0,6 C 79 % 1030,9 hPa 0,0 l/m 6,7 km/h (2 Bft) W-NW 294 0 min 0,000 mm 0,0 UV-I 7 W/m -1,1 C 1,9 C 14,5 km/h (3 Bft) 97,87 %
26.12.2018 16:22 2,1 C 4,4 C 0,0 C 80 % 1030,9 hPa 0,0 l/m 6,7 km/h (2 Bft) W-NW 283 0 min 0,000 mm 0,0 UV-I 7 W/m -1,0 C 1,8 C 12,9 km/h (3 Bft) 97,87 %
26.12.2018 16:24 2,1 C 4,4 C 0,0 C 80 % 1030,9 hPa 0,0 l/m 9,7 km/h (2 Bft) W-NW 292 0 min 0,000 mm 0,0 UV-I 7 W/m -1,0 C -0,9 C 16,1 km/h (3 Bft) 98,00 %
26.12.2018 16:26 2,1 C 4,4 C 0,6 C 80 % 1030,9 hPa 0,0 l/m 9,7 km/h (2 Bft) W 271 0 min 0,000 mm 0,0 UV-I 5 W/m -1,0 C -0,9 C 16,1 km/h (3 Bft) 97,87 %
26.12.2018 16:28 2,1 C 4,4 C 0,0 C 80 % 1030,9 hPa 0,0 l/m 9,6 km/h (2 Bft) W-NW 286 0 min 0,000 mm 0,0 UV-I 5 W/m -1,0 C -0,8 C 14,5 km/h (3 Bft) 95,74 %
26.12.2018 16:30 2,1 C 4,4 C 0,0 C 80 % 1031,0 hPa 0,0 l/m 4,9 km/h (1 Bft) W 271 0 min 0,000 mm 0,0 UV-I 5 W/m -1,0 C 2,1 C 11,3 km/h (2 Bft) 95,74 %
26.12.2018 16:32 2,0 C 4,4 C 0,0 C 80 % 1030,9 hPa 0,0 l/m 9,5 km/h (2 Bft) W-NW 285 0 min 0,000 mm 0,0 UV-I 5 W/m -1,1 C -0,8 C 17,7 km/h (3 Bft) 93,62 %
26.12.2018 16:34 2,0 C 4,4 C 0,0 C 80 % 1031,0 hPa 0,0 l/m 7,6 km/h (2 Bft) NW 308 0 min 0,000 mm 0,0 UV-I 2 W/m -1,1 C 0,8 C 12,9 km/h (3 Bft) 97,37 %
26.12.2018 16:36 2,0 C 4,4 C 0,0 C 80 % 1031,0 hPa 0,0 l/m 8,0 km/h (2 Bft) W 279 0 min 0,000 mm 0,0 UV-I 0 W/m -1,1 C 0,5 C 17,7 km/h (3 Bft) 93,62 %
26.12.2018 16:38 2,1 C 4,4 C 0,0 C 80 % 1031,0 hPa 0,0 l/m 8,1 km/h (2 Bft) W-NW 296 0 min 0,000 mm 0,0 UV-I 0 W/m -1,0 C 0,5 C 19,3 km/h (3 Bft) 98,00 %
26.12.2018 16:40 2,1 C 4,4 C 0,0 C 80 % 1031,0 hPa 0,0 l/m 8,0 km/h (2 Bft) W-NW 285 0 min 0,000 mm 0,0 UV-I 0 W/m -1,0 C 0,6 C 17,7 km/h (3 Bft) 97,87 %
26.12.2018 16:42 2,0 C 4,4 C 0,0 C 80 % 1031,0 hPa 0,0 l/m 9,5 km/h (2 Bft) W 267 0 min 0,000 mm 0,0 UV-I 0 W/m -1,1 C -0,8 C 19,3 km/h (3 Bft) 95,74 %
26.12.2018 16:44 2,0 C 4,4 C 0,0 C 80 % 1031,1 hPa 0,0 l/m 9,7 km/h (2 Bft) N-NW 331 0 min 0,000 mm 0,0 UV-I 0 W/m -1,1 C -1,0 C 19,3 km/h (3 Bft) 95,74 %
26.12.2018 16:46 2,0 C 4,4 C 0,0 C 80 % 1031,0 hPa 0,0 l/m 13,1 km/h (3 Bft) W-NW 299 0 min 0,000 mm 0,0 UV-I 0 W/m -1,1 C -3,4 C 20,9 km/h (4 Bft) 98,00 %
26.12.2018 16:48 1,9 C 4,4 C 0,0 C 81 % 1031,0 hPa 0,0 l/m 9,9 km/h (2 Bft) W 278 0 min 0,000 mm 0,0 UV-I 0 W/m -1,0 C -1,3 C 19,3 km/h (3 Bft) 97,87 %
26.12.2018 16:50 1,9 C 4,4 C 0,0 C 81 % 1031,1 hPa 0,0 l/m 8,5 km/h (2 Bft) W 265 0 min 0,000 mm 0,0 UV-I 0 W/m -1,0 C -0,1 C 14,5 km/h (3 Bft) 95,74 %
26.12.2018 16:52 1,8 C 4,4 C 0,0 C 81 % 1031,1 hPa 0,0 l/m 11,2 km/h (2 Bft) W 275 0 min 0,000 mm 0,0 UV-I 0 W/m -1,1 C -2,4 C 17,7 km/h (3 Bft) 97,87 %
26.12.2018 16:54 1,8 C 4,4 C 0,0 C 81 % 1031,1 hPa 0,0 l/m 14,7 km/h (3 Bft) W-NW 285 0 min 0,000 mm 0,0 UV-I 0 W/m -1,1 C -4,6 C 29,0 km/h (5 Bft) 89,74 %
26.12.2018 16:56 1,8 C 4,4 C 0,0 C 81 % 1031,1 hPa 0,0 l/m 9,0 km/h (2 Bft) W 273 0 min 0,000 mm 0,0 UV-I 0 W/m -1,1 C -0,6 C 16,1 km/h (3 Bft) 95,74 %
26.12.2018 16:58 1,8 C 4,4 C 0,0 C 81 % 1031,1 hPa 0,0 l/m 9,0 km/h (2 Bft) W 261 0 min 0,000 mm 0,0 UV-I 0 W/m -1,1 C -0,6 C 16,1 km/h (3 Bft) 96,00 %
26.12.2018 17:00 1,8 C 4,4 C 0,0 C 81 % 1031,1 hPa 0,0 l/m 11,8 km/h (2 Bft) W-NW 284 0 min 0,025 mm 0,0 UV-I 0 W/m -1,1 C -2,8 C 19,3 km/h (3 Bft) 92,00 %
26.12.2018 17:02 1,8 C 4,4 C 0,0 C 81 % 1031,1 hPa 0,0 l/m 11,5 km/h (2 Bft) W 271 0 min 0,000 mm 0,0 UV-I 0 W/m -1,1 C -2,6 C 17,7 km/h (3 Bft) 97,37 %
26.12.2018 17:04 1,9 C 4,4 C 0,0 C 81 % 1031,1 hPa 0,0 l/m 9,7 km/h (2 Bft) W 273 0 min 0,000 mm 0,0 UV-I 0 W/m -1,0 C -1,1 C 16,1 km/h (3 Bft) 89,36 %
26.12.2018 17:06 1,9 C 4,4 C 0,0 C 81 % 1031,1 hPa 0,0 l/m 12,5 km/h (3 Bft) W 265 0 min 0,000 mm 0,0 UV-I 0 W/m -1,0 C -3,1 C 17,7 km/h (3 Bft) 97,87 %
26.12.2018 17:08 1,9 C 4,4 C 0,0 C 81 % 1031,2 hPa 0,0 l/m 6,3 km/h (2 Bft) W-NW 282 0 min 0,000 mm 0,0 UV-I 0 W/m -1,0 C 1,9 C 11,3 km/h (2 Bft) 98,11 %
26.12.2018 17:10 1,8 C 4,4 C -0,6 C 81 % 1031,2 hPa 0,0 l/m 7,1 km/h (2 Bft) W-SW 254 0 min 0,000 mm 0,0 UV-I 0 W/m -1,1 C 1,1 C 11,3 km/h (2 Bft) 95,74 %
26.12.2018 17:12 1,8 C 4,4 C -0,6 C 81 % 1031,2 hPa 0,0 l/m 6,2 km/h (2 Bft) W-SW 240 0 min 0,000 mm 0,0 UV-I 0 W/m -1,1 C 1,8 C 12,9 km/h (3 Bft) 97,87 %
26.12.2018 17:14 1,7 C 4,4 C -0,6 C 81 % 1031,2 hPa 0,0 l/m 4,4 km/h (1 Bft) W-SW 257 0 min 0,000 mm 0,0 UV-I 0 W/m -1,2 C 1,7 C 6,4 km/h (2 Bft) 97,87 %
26.12.2018 17:16 1,7 C 4,4 C -0,6 C 81 % 1031,3 hPa 0,0 l/m 5,5 km/h (1 Bft) W 274 0 min 0,000 mm 0,0 UV-I 0 W/m -1,2 C 1,7 C 12,9 km/h (3 Bft) 100,00 %
26.12.2018 17:18 1,6 C 4,4 C -0,6 C 82 % 1031,3 hPa 0,0 l/m 6,6 km/h (2 Bft) W 280 0 min 0,000 mm 0,0 UV-I 0 W/m -1,1 C 1,4 C 11,3 km/h (2 Bft) 93,62 %
26.12.2018 17:20 1,6 C 4,4 C -1,1 C 82 % 1031,3 hPa 0,0 l/m 4,4 km/h (1 Bft) W-NW 285 0 min 0,000 mm 0,0 UV-I 0 W/m -1,1 C 1,6 C 9,7 km/h (2 Bft) 95,74 %
26.12.2018 17:22 1,6 C 4,4 C -1,1 C 82 % 1031,4 hPa 0,0 l/m 4,8 km/h (1 Bft) W 269 0 min 0,000 mm 0,0 UV-I 0 W/m -1,1 C 1,6 C 11,3 km/h (2 Bft) 97,87 %
26.12.2018 17:24 1,5 C 4,4 C -1,1 C 82 % 1031,4 hPa 0,0 l/m 5,8 km/h (2 Bft) W-NW 294 0 min 0,000 mm 0,0 UV-I 0 W/m -1,2 C 1,5 C 9,7 km/h (2 Bft) 97,56 %
26.12.2018 17:26 1,5 C 4,4 C -1,1 C 82 % 1031,4 hPa 0,0 l/m 4,4 km/h (1 Bft) W-NW 282 0 min 0,000 mm 0,0 UV-I 0 W/m -1,2 C 1,5 C 11,3 km/h (2 Bft) 95,74 %
26.12.2018 17:28 1,4 C 4,4 C -1,1 C 82 % 1031,4 hPa 0,0 l/m 3,8 km/h (1 Bft) NW 311 0 min 0,000 mm 0,0 UV-I 0 W/m -1,3 C 1,4 C 8,0 km/h (2 Bft) 97,87 %
26.12.2018 17:30 1,4 C 4,4 C -1,1 C 83 % 1031,4 hPa 0,0 l/m 5,9 km/h (2 Bft) W-SW 256 0 min 0,000 mm 0,0 UV-I 0 W/m -1,2 C 1,4 C 12,9 km/h (3 Bft) 96,00 %
26.12.2018 17:32 1,4 C 4,4 C -1,1 C 83 % 1031,4 hPa 0,0 l/m 5,2 km/h (1 Bft) W-SW 248 0 min 0,000 mm 0,0 UV-I 0 W/m -1,2 C 1,4 C 12,9 km/h (3 Bft) 95,83 %
26.12.2018 17:34 1,4 C 4,4 C -1,1 C 83 % 1031,4 hPa 0,0 l/m 5,5 km/h (1 Bft) W-NW 297 0 min 0,000 mm 0,0 UV-I 0 W/m -1,2 C 1,4 C 9,7 km/h (2 Bft) 97,87 %
26.12.2018 17:36 1,4 C 4,4 C -1,1 C 83 % 1031,4 hPa 0,0 l/m 10,7 km/h (2 Bft) NW 306 0 min 0,000 mm 0,0 UV-I 0 W/m -1,2 C -2,4 C 17,7 km/h (3 Bft) 97,87 %
26.12.2018 17:38 1,4 C 4,4 C -0,6 C 83 % 1031,4 hPa 0,0 l/m 9,6 km/h (2 Bft) NW 308 0 min 0,000 mm 0,0 UV-I 0 W/m -1,2 C -1,6 C 16,1 km/h (3 Bft) 97,87 %
26.12.2018 17:40 1,5 C 4,4 C -0,6 C 83 % 1031,4 hPa 0,0 l/m 8,0 km/h (2 Bft) W 277 0 min 0,000 mm 0,0 UV-I 0 W/m -1,1 C -0,1 C 12,9 km/h (3 Bft) 97,87 %
26.12.2018 17:42 1,4 C 4,4 C -0,6 C 83 % 1031,4 hPa 0,0 l/m 6,8 km/h (2 Bft) W-NW 286 0 min 0,000 mm 0,0 UV-I 0 W/m -1,2 C 1,0 C 12,9 km/h (3 Bft) 100,00 %
26.12.2018 17:44 1,4 C 4,4 C -0,6 C 83 % 1031,4 hPa 0,0 l/m 9,7 km/h (2 Bft) W 277 0 min 0,000 mm 0,0 UV-I 0 W/m -1,2 C -1,7 C 16,1 km/h (3 Bft) 100,00 %
26.12.2018 17:46 1,4 C 4,4 C -0,6 C 83 % 1031,4 hPa 0,0 l/m 6,5 km/h (2 Bft) W 265 0 min 0,000 mm 0,0 UV-I 0 W/m -1,2 C 1,3 C 9,7 km/h (2 Bft) 100,00 %
26.12.2018 17:48 1,4 C 4,4 C -0,6 C 83 % 1031,4 hPa 0,0 l/m 8,3 km/h (2 Bft) W 271 0 min 0,000 mm 0,0 UV-I 0 W/m -1,2 C -0,5 C 12,9 km/h (3 Bft) 100,00 %
26.12.2018 17:50 1,4 C 4,4 C -0,6 C 83 % 1031,4 hPa 0,0 l/m 6,2 km/h (2 Bft) W-NW 288 0 min 0,000 mm 0,0 UV-I 0 W/m -1,2 C 1,4 C 11,3 km/h (2 Bft) 100,00 %
26.12.2018 17:52 1,4 C 4,4 C -0,6 C 83 % 1031,4 hPa 0,0 l/m 8,4 km/h (2 Bft) W 267 0 min 0,000 mm 0,0 UV-I 0 W/m -1,2 C -0,5 C 12,9 km/h (3 Bft) 100,00 %
26.12.2018 17:54 1,3 C 4,4 C -1,1 C 84 % 1031,4 hPa 0,0 l/m 7,7 km/h (2 Bft) W 277 0 min 0,000 mm 0,0 UV-I 0 W/m -1,1 C 0,0 C 11,3 km/h (2 Bft) 100,00 %
26.12.2018 17:56 1,3 C 4,4 C -1,1 C 84 % 1031,4 hPa 0,0 l/m 10,0 km/h (2 Bft) W 273 0 min 0,000 mm 0,0 UV-I 0 W/m -1,1 C -2,0 C 14,5 km/h (3 Bft) 100,00 %
26.12.2018 17:58 1,3 C 4,4 C -1,1 C 84 % 1031,4 hPa 0,0 l/m 11,0 km/h (2 Bft) W 275 0 min 0,000 mm 0,0 UV-I 0 W/m -1,1 C -2,8 C 16,1 km/h (3 Bft) 97,87 %
26.12.2018 18:00 1,3 C 4,4 C -0,6 C 84 % 1031,4 hPa 0,0 l/m 7,2 km/h (2 Bft) W 275 0 min 0,000 mm 0,0 UV-I 0 W/m -1,1 C 0,5 C 11,3 km/h (2 Bft) 97,87 %
26.12.2018 18:02 1,3 C 4,4 C -1,1 C 84 % 1031,5 hPa 0,0 l/m 6,8 km/h (2 Bft) W 267 0 min 0,000 mm 0,0 UV-I 0 W/m -1,1 C 0,9 C 11,3 km/h (2 Bft) 97,37 %
26.12.2018 18:04 1,3 C 4,4 C -1,1 C 84 % 1031,5 hPa 0,0 l/m 5,6 km/h (1 Bft) W-NW 294 0 min 0,000 mm 0,0 UV-I 0 W/m -1,1 C 1,3 C 9,7 km/h (2 Bft) 95,74 %
26.12.2018 18:06 1,3 C 4,4 C -1,1 C 84 % 1031,5 hPa 0,0 l/m 4,9 km/h (1 Bft) W 272 0 min 0,000 mm 0,0 UV-I 0 W/m -1,1 C 1,3 C 6,4 km/h (2 Bft) 92,00 %
26.12.2018 18:08 1,2 C 4,4 C -1,1 C 84 % 1031,5 hPa 0,0 l/m 4,1 km/h (1 Bft) W-NW 287 0 min 0,000 mm 0,0 UV-I 0 W/m -1,2 C 1,2 C 6,4 km/h (2 Bft) 93,75 %
26.12.2018 18:10 1,1 C 4,4 C -1,1 C 84 % 1031,5 hPa 0,0 l/m 5,2 km/h (1 Bft) W-NW 292 0 min 0,000 mm 0,0 UV-I 0 W/m -1,3 C 1,1 C 9,7 km/h (2 Bft) 97,87 %
26.12.2018 18:12 1,1 C 4,4 C -1,7 C 84 % 1031,6 hPa 0,0 l/m 5,0 km/h (1 Bft) W-NW 291 0 min 0,000 mm 0,0 UV-I 0 W/m -1,3 C 1,1 C 9,7 km/h (2 Bft) 97,87 %
26.12.2018 18:14 0,9 C 4,4 C -1,7 C 85 % 1031,6 hPa 0,0 l/m 5,2 km/h (1 Bft) NW 317 0 min 0,000 mm 0,0 UV-I 0 W/m -1,3 C 0,9 C 8,0 km/h (2 Bft) 97,87 %
26.12.2018 18:16 0,9 C 4,4 C -1,7 C 85 % 1031,5 hPa 0,0 l/m 7,7 km/h (2 Bft) W 272 0 min 0,000 mm 0,0 UV-I 0 W/m -1,3 C -0,4 C 11,3 km/h (2 Bft) 100,00 %
26.12.2018 18:18 0,9 C 4,4 C -1,7 C 85 % 1031,4 hPa 0,0 l/m 7,9 km/h (2 Bft) W 262 0 min 0,000 mm 0,0 UV-I 0 W/m -1,3 C -0,6 C 12,9 km/h (3 Bft) 100,00 %
26.12.2018 18:20 0,9 C 4,4 C -1,7 C 85 % 1031,5 hPa 0,0 l/m 8,2 km/h (2 Bft) W 263 0 min 0,000 mm 0,0 UV-I 0 W/m -1,3 C -0,9 C 16,1 km/h (3 Bft) 100,00 %
26.12.2018 18:22 0,9 C 4,4 C -1,1 C 85 % 1031,5 hPa 0,0 l/m 9,4 km/h (2 Bft) W 277 0 min 0,000 mm 0,0 UV-I 0 W/m -1,3 C -2,0 C 12,9 km/h (3 Bft) 95,74 %
26.12.2018 18:24 0,9 C 4,4 C -1,1 C 85 % 1031,5 hPa 0,0 l/m 9,6 km/h (2 Bft) W 272 0 min 0,000 mm 0,0 UV-I 0 W/m -1,3 C -2,1 C 12,9 km/h (3 Bft) 100,00 %
26.12.2018 18:26 0,9 C 4,4 C -1,1 C 85 % 1031,4 hPa 0,0 l/m 9,5 km/h (2 Bft) W 267 0 min 0,000 mm 0,0 UV-I 0 W/m -1,3 C -2,0 C 11,3 km/h (2 Bft) 95,74 %
26.12.2018 18:28 0,8 C 4,4 C -1,1 C 86 % 1031,4 hPa 0,0 l/m 9,8 km/h (2 Bft) W-NW 284 0 min 0,000 mm 0,0 UV-I 0 W/m -1,3 C -2,4 C 14,5 km/h (3 Bft) 100,00 %
26.12.2018 18:30 0,8 C 4,4 C -1,7 C 86 % 1031,4 hPa 0,0 l/m 9,4 km/h (2 Bft) W 274 0 min 0,000 mm 0,0 UV-I 0 W/m -1,3 C -2,1 C 16,1 km/h (3 Bft) 100,00 %
26.12.2018 18:32 0,7 C 4,4 C -1,7 C 86 % 1031,5 hPa 0,0 l/m 9,4 km/h (2 Bft) W 274 0 min 0,000 mm 0,0 UV-I 0 W/m -1,4 C -2,2 C 14,5 km/h (3 Bft) 97,87 %
26.12.2018 18:34 0,7 C 4,4 C -1,7 C 86 % 1031,5 hPa 0,0 l/m 9,2 km/h (2 Bft) W 278 0 min 0,000 mm 0,0 UV-I 0 W/m -1,4 C -2,0 C 11,3 km/h (2 Bft) 100,00 %
26.12.2018 18:36 0,7 C 4,4 C -1,7 C 87 % 1031,5 hPa 0,0 l/m 9,4 km/h (2 Bft) W-NW 284 0 min 0,000 mm 0,0 UV-I 0 W/m -1,2 C -2,2 C 14,5 km/h (3 Bft) 97,87 %
26.12.2018 18:38 0,7 C 4,4 C -1,1 C 87 % 1031,5 hPa 0,0 l/m 11,0 km/h (2 Bft) W 281 0 min 0,000 mm 0,0 UV-I 0 W/m -1,2 C -3,5 C 17,7 km/h (3 Bft) 97,87 %
26.12.2018 18:40 0,7 C 4,4 C -1,1 C 87 % 1031,4 hPa 0,0 l/m 10,8 km/h (2 Bft) W 269 0 min 0,000 mm 0,0 UV-I 0 W/m -1,2 C -3,3 C 17,7 km/h (3 Bft) 97,87 %
26.12.2018 18:42 0,7 C 4,4 C -1,1 C 87 % 1031,4 hPa 0,0 l/m 10,2 km/h (2 Bft) W-NW 285 0 min 0,000 mm 0,0 UV-I 0 W/m -1,2 C -2,8 C 16,1 km/h (3 Bft) 97,87 %
26.12.2018 18:44 0,8 C 4,4 C -1,1 C 87 % 1031,4 hPa 0,0 l/m 12,1 km/h (2 Bft) W-NW 282 0 min 0,000 mm 0,0 UV-I 0 W/m -1,1 C -4,2 C 19,3 km/h (3 Bft) 97,87 %
26.12.2018 18:46 0,8 C 4,4 C -1,1 C 87 % 1031,4 hPa 0,0 l/m 9,5 km/h (2 Bft) W 267 0 min 0,000 mm 0,0 UV-I 0 W/m -1,1 C -2,2 C 14,5 km/h (3 Bft) 100,00 %
26.12.2018 18:48 0,8 C 4,4 C -1,1 C 87 % 1031,3 hPa 0,0 l/m 8,9 km/h (2 Bft) W 281 0 min 0,000 mm 0,0 UV-I 0 W/m -1,1 C -1,6 C 12,9 km/h (3 Bft) 97,87 %
26.12.2018 18:50 0,8 C 4,4 C -1,1 C 87 % 1031,3 hPa 0,0 l/m 9,2 km/h (2 Bft) W-NW 286 0 min 0,000 mm 0,0 UV-I 0 W/m -1,1 C -1,9 C 14,5 km/h (3 Bft) 100,00 %
26.12.2018 18:52 0,7 C 4,4 C -1,1 C 87 % 1031,4 hPa 0,0 l/m 9,7 km/h (2 Bft) W-NW 298 0 min 0,000 mm 0,0 UV-I 0 W/m -1,2 C -2,4 C 14,5 km/h (3 Bft) 100,00 %
26.12.2018 18:54 0,7 C 4,4 C -1,1 C 87 % 1031,4 hPa 0,0 l/m 8,0 km/h (2 Bft) W 272 0 min 0,000 mm 0,0 UV-I 0 W/m -1,2 C -0,9 C 12,9 km/h (3 Bft) 91,49 %
26.12.2018 18:56 0,7 C 4,4 C -1,1 C 87 % 1031,4 hPa 0,0 l/m 6,3 km/h (2 Bft) W-NW 284 0 min 0,000 mm 0,0 UV-I 0 W/m -1,2 C 0,7 C 11,3 km/h (2 Bft) 100,00 %
26.12.2018 18:58 0,7 C 4,4 C -1,1 C 87 % 1031,4 hPa 0,0 l/m 5,4 km/h (1 Bft) W 275 0 min 0,000 mm 0,0 UV-I 0 W/m -1,2 C 0,7 C 11,3 km/h (2 Bft) 100,00 %
26.12.2018 19:00 0,7 C 4,4 C -1,1 C 87 % 1031,4 hPa 0,0 l/m 11,8 km/h (2 Bft) W-NW 298 0 min 0,000 mm 0,0 UV-I 0 W/m -1,2 C -4,1 C 16,1 km/h (3 Bft) 100,00 %
26.12.2018 19:02 0,7 C 4,4 C -1,1 C 87 % 1031,4 hPa 0,0 l/m 7,3 km/h (2 Bft) W-NW 290 0 min 0,000 mm 0,0 UV-I 0 W/m -1,2 C -0,2 C 12,9 km/h (3 Bft) 97,87 %
26.12.2018 19:04 0,7 C 4,4 C -1,1 C 87 % 1031,4 hPa 0,0 l/m 7,2 km/h (2 Bft) W-SW 257 0 min 0,000 mm 0,0 UV-I 0 W/m -1,2 C -0,1 C 12,9 km/h (3 Bft) 98,00 %
26.12.2018 19:06 0,7 C 4,4 C -1,1 C 87 % 1031,3 hPa 0,0 l/m 9,3 km/h (2 Bft) W 265 0 min 0,000 mm 0,0 UV-I 0 W/m -1,2 C -2,1 C 16,1 km/h (3 Bft) 100,00 %
26.12.2018 19:08 0,7 C 4,4 C -0,6 C 87 % 1031,4 hPa 0,0 l/m 9,0 km/h (2 Bft) W-NW 293 0 min 0,000 mm 0,0 UV-I 0 W/m -1,2 C -1,8 C 12,9 km/h (3 Bft) 95,74 %
26.12.2018 19:10 0,7 C 4,4 C -0,6 C 87 % 1031,4 hPa 0,0 l/m 10,9 km/h (2 Bft) W-NW 288 0 min 0,000 mm 0,0 UV-I 0 W/m -1,2 C -3,4 C 19,3 km/h (3 Bft) 95,74 %
26.12.2018 19:12 0,7 C 4,4 C -0,6 C 87 % 1031,3 hPa 0,0 l/m 10,1 km/h (2 Bft) W 277 0 min 0,000 mm 0,0 UV-I 0 W/m -1,2 C -2,8 C 14,5 km/h (3 Bft) 93,62 %
26.12.2018 19:14 0,8 C 4,4 C 0,0 C 87 % 1031,4 hPa 0,0 l/m 8,6 km/h (2 Bft) W-NW 293 0 min 0,000 mm 0,0 UV-I 0 W/m -1,1 C -1,4 C 14,5 km/h (3 Bft) 93,62 %
26.12.2018 19:16 0,8 C 4,4 C 0,0 C 87 % 1031,3 hPa 0,0 l/m 12,0 km/h (2 Bft) W 263 0 min 0,000 mm 0,0 UV-I 0 W/m -1,1 C -4,1 C 17,7 km/h (3 Bft) 95,74 %
26.12.2018 19:18 0,8 C 4,4 C 0,0 C 87 % 1031,3 hPa 0,0 l/m 13,5 km/h (3 Bft) W-NW 296 0 min 0,000 mm 0,0 UV-I 0 W/m -1,1 C -5,1 C 20,9 km/h (4 Bft) 93,62 %
26.12.2018 19:20 0,8 C 4,4 C 0,6 C 87 % 1031,4 hPa 0,0 l/m 7,5 km/h (2 Bft) W-SW 258 0 min 0,000 mm 0,0 UV-I 0 W/m -1,1 C -0,3 C 11,3 km/h (2 Bft) 95,74 %
26.12.2018 19:22 0,9 C 4,4 C 0,6 C 87 % 1031,4 hPa 0,0 l/m 6,1 km/h (2 Bft) W-NW 294 0 min 0,000 mm 0,0 UV-I 0 W/m -1,0 C 0,9 C 9,7 km/h (2 Bft) 95,74 %
26.12.2018 19:24 0,9 C 4,4 C 0,6 C 86 % 1031,4 hPa 0,0 l/m 10,9 km/h (2 Bft) W-NW 294 0 min 0,000 mm 0,0 UV-I 0 W/m -1,2 C -3,2 C 16,1 km/h (3 Bft) 93,62 %
26.12.2018 19:26 0,9 C 4,4 C 0,6 C 86 % 1031,4 hPa 0,0 l/m 8,4 km/h (2 Bft) W-NW 297 0 min 0,000 mm 0,0 UV-I 0 W/m -1,2 C -1,1 C 17,7 km/h (3 Bft) 95,74 %
26.12.2018 19:28 0,9 C 4,4 C 0,6 C 86 % 1031,6 hPa 0,0 l/m 10,3 km/h (2 Bft) W-NW 298 0 min 0,000 mm 0,0 UV-I 0 W/m -1,2 C -2,7 C 14,5 km/h (3 Bft) 95,74 %
26.12.2018 19:30 0,9 C 4,4 C 0,6 C 86 % 1031,5 hPa 0,0 l/m 8,4 km/h (2 Bft) W 266 0 min 0,000 mm 0,0 UV-I 0 W/m -1,2 C -1,1 C 16,1 km/h (3 Bft) 93,75 %
26.12.2018 19:32 1,0 C 4,4 C 0,6 C 86 % 1031,5 hPa 0,0 l/m 12,1 km/h (2 Bft) W-NW 301 0 min 0,000 mm 0,0 UV-I 0 W/m -1,1 C -3,9 C 22,5 km/h (4 Bft) 97,37 %
26.12.2018 19:34 1,0 C 4,4 C 0,6 C 86 % 1031,5 hPa 0,0 l/m 10,3 km/h (2 Bft) W 277 0 min 0,000 mm 0,0 UV-I 0 W/m -1,1 C -2,6 C 16,1 km/h (3 Bft) 97,87 %
26.12.2018 19:36 1,1 C 4,4 C 0,6 C 86 % 1031,5 hPa 0,0 l/m 10,2 km/h (2 Bft) W-NW 286 0 min 0,000 mm 0,0 UV-I 0 W/m -1,0 C -2,4 C 19,3 km/h (3 Bft) 95,74 %
26.12.2018 19:38 1,1 C 4,4 C 0,6 C 85 % 1031,4 hPa 0,0 l/m 10,0 km/h (2 Bft) W-NW 282 0 min 0,000 mm 0,0 UV-I 0 W/m -1,1 C -2,2 C 19,3 km/h (3 Bft) 93,62 %
26.12.2018 19:40 1,1 C 4,4 C 0,6 C 85 % 1031,4 hPa 0,0 l/m 12,4 km/h (3 Bft) W 264 0 min 0,000 mm 0,0 UV-I 0 W/m -1,1 C -4,0 C 19,3 km/h (3 Bft) 93,62 %
26.12.2018 19:42 1,1 C 4,4 C 0,6 C 85 % 1031,4 hPa 0,0 l/m 11,4 km/h (2 Bft) W 268 0 min 0,000 mm 0,0 UV-I 0 W/m -1,1 C -3,3 C 16,1 km/h (3 Bft) 95,74 %
26.12.2018 19:44 1,2 C 4,4 C 0,6 C 85 % 1031,4 hPa 0,0 l/m 11,5 km/h (2 Bft) W 273 0 min 0,000 mm 0,0 UV-I 0 W/m -1,0 C -3,3 C 17,7 km/h (3 Bft) 95,74 %
26.12.2018 19:46 1,2 C 4,4 C 0,6 C 85 % 1031,5 hPa 0,0 l/m 8,2 km/h (2 Bft) W 265 0 min 0,000 mm 0,0 UV-I 0 W/m -1,0 C -0,6 C 14,5 km/h (3 Bft) 93,62 %
26.12.2018 19:48 1,2 C 4,4 C 0,6 C 85 % 1031,5 hPa 0,0 l/m 7,2 km/h (2 Bft) W-NW 288 0 min 0,000 mm 0,0 UV-I 0 W/m -1,0 C 0,4 C 14,5 km/h (3 Bft) 94,00 %
26.12.2018 19:50 1,2 C 4,4 C 0,6 C 85 % 1031,5 hPa 0,0 l/m 7,3 km/h (2 Bft) W-NW 300 0 min 0,000 mm 0,0 UV-I 0 W/m -1,0 C 0,3 C 14,5 km/h (3 Bft) 95,74 %
26.12.2018 19:52 1,2 C 4,4 C 1,1 C 85 % 1031,5 hPa 0,0 l/m 8,2 km/h (2 Bft) W-SW 252 0 min 0,000 mm 0,0 UV-I 0 W/m -1,0 C -0,6 C 16,1 km/h (3 Bft) 97,87 %
26.12.2018 19:54 1,2 C 4,4 C 1,1 C 85 % 1031,6 hPa 0,0 l/m 5,0 km/h (1 Bft) W 265 0 min 0,000 mm 0,0 UV-I 0 W/m -1,0 C 1,2 C 9,7 km/h (2 Bft) 96,00 %
26.12.2018 19:56 1,2 C 4,4 C 1,1 C 84 % 1031,7 hPa 0,0 l/m 7,9 km/h (2 Bft) NW 306 0 min 0,000 mm 0,0 UV-I 0 W/m -1,2 C -0,3 C 12,9 km/h (3 Bft) 97,37 %
26.12.2018 19:59 1,2 C 4,4 C 1,1 C 84 % 1031,7 hPa 0,0 l/m 10,5 km/h (2 Bft) NW 307 0 min 0,000 mm 0,0 UV-I 0 W/m -1,2 C -2,5 C 16,1 km/h (3 Bft) 97,18 %
26.12.2018 20:00 1,2 C 4,4 C 1,1 C 84 % 1031,7 hPa 0,0 l/m 15,1 km/h (3 Bft) W 275 0 min 0,000 mm 0,0 UV-I 0 W/m -1,2 C -5,6 C 20,9 km/h (4 Bft) 100,00 %
26.12.2018 20:02 1,2 C 4,4 C 1,1 C 84 % 1031,7 hPa 0,0 l/m 6,8 km/h (2 Bft) W-NW 293 0 min 0,000 mm 0,0 UV-I 0 W/m -1,2 C 0,8 C 12,9 km/h (3 Bft) 97,87 %
26.12.2018 20:04 1,3 C 4,4 C 0,6 C 84 % 1031,7 hPa 0,0 l/m 11,4 km/h (2 Bft) W-NW 285 0 min 0,000 mm 0,0 UV-I 0 W/m -1,1 C -3,1 C 17,7 km/h (3 Bft) 96,00 %
26.12.2018 20:06 1,3 C 4,4 C 0,6 C 83 % 1031,7 hPa 0,0 l/m 10,6 km/h (2 Bft) W 271 0 min 0,000 mm 0,0 UV-I 0 W/m -1,3 C -2,5 C 14,5 km/h (3 Bft) 97,92 %
26.12.2018 20:08 1,3 C 4,4 C 0,6 C 83 % 1031,6 hPa 0,0 l/m 10,0 km/h (2 Bft) W 275 0 min 0,000 mm 0,0 UV-I 0 W/m -1,3 C -2,0 C 16,1 km/h (3 Bft) 96,00 %
26.12.2018 20:10 1,3 C 4,4 C 0,6 C 83 % 1031,7 hPa 0,0 l/m 6,7 km/h (2 Bft) W-NW 291 0 min 0,000 mm 0,0 UV-I 0 W/m -1,3 C 1,0 C 11,3 km/h (2 Bft) 95,74 %
26.12.2018 20:12 1,2 C 4,4 C 0,6 C 83 % 1031,7 hPa 0,0 l/m 7,3 km/h (2 Bft) W 269 0 min 0,000 mm 0,0 UV-I 0 W/m -1,4 C 0,3 C 14,5 km/h (3 Bft) 97,37 %
26.12.2018 20:14 1,2 C 4,4 C 0,6 C 83 % 1031,7 hPa 0,0 l/m 8,5 km/h (2 Bft) W-NW 284 0 min 0,000 mm 0,0 UV-I 0 W/m -1,4 C -0,8 C 14,5 km/h (3 Bft) 97,87 %
26.12.2018 20:16 1,2 C 4,4 C 0,6 C 83 % 1031,7 hPa 0,0 l/m 7,6 km/h (2 Bft) W-NW 288 0 min 0,000 mm 0,0 UV-I 0 W/m -1,4 C -0,0 C 12,9 km/h (3 Bft) 98,00 %
26.12.2018 20:18 1,2 C 4,4 C 0,6 C 83 % 1031,6 hPa 0,0 l/m 8,0 km/h (2 Bft) W-NW 300 0 min 0,000 mm 0,0 UV-I 0 W/m -1,4 C -0,4 C 14,5 km/h (3 Bft) 97,87 %
26.12.2018 20:20 1,1 C 4,4 C 0,6 C 83 % 1031,6 hPa 0,0 l/m 7,9 km/h (2 Bft) NW 308 0 min 0,000 mm 0,0 UV-I 0 W/m -1,5 C -0,4 C 12,9 km/h (3 Bft) 97,87 %
26.12.2018 20:22 1,1 C 4,4 C 0,6 C 83 % 1031,6 hPa 0,0 l/m 8,0 km/h (2 Bft) W-SW 254 0 min 0,000 mm 0,0 UV-I 0 W/m -1,5 C -0,5 C 12,9 km/h (3 Bft) 95,74 %
26.12.2018 20:24 1,1 C 4,4 C 0,6 C 84 % 1031,6 hPa 0,0 l/m 6,8 km/h (2 Bft) W 272 0 min 0,000 mm 0,0 UV-I 0 W/m -1,3 C 0,7 C 9,7 km/h (2 Bft) 91,49 %
26.12.2018 20:26 1,1 C 4,4 C 0,6 C 84 % 1031,6 hPa 0,0 l/m 6,8 km/h (2 Bft) W 272 0 min 0,000 mm 0,0 UV-I 0 W/m -1,3 C 0,7 C 11,3 km/h (2 Bft) 93,62 %
26.12.2018 20:29 1,0 C 4,4 C 0,6 C 84 % 1031,6 hPa 0,0 l/m 10,2 km/h (2 Bft) W 267 0 min 0,000 mm 0,0 UV-I 0 W/m -1,4 C -2,5 C 16,1 km/h (3 Bft) 92,96 %
26.12.2018 20:30 1,0 C 4,4 C 0,6 C 84 % 1031,6 hPa 0,0 l/m 12,3 km/h (3 Bft) W 281 0 min 0,000 mm 0,0 UV-I 0 W/m -1,4 C -4,1 C 16,1 km/h (3 Bft) 92,31 %
26.12.2018 20:32 1,0 C 4,4 C 0,6 C 84 % 1031,5 hPa 0,0 l/m 9,5 km/h (2 Bft) W-NW 294 0 min 0,000 mm 0,0 UV-I 0 W/m -1,4 C -1,9 C 14,5 km/h (3 Bft) 93,62 %
26.12.2018 20:34 1,0 C 4,4 C 0,6 C 84 % 1031,5 hPa 0,0 l/m 11,1 km/h (2 Bft) W 269 0 min 0,000 mm 0,0 UV-I 0 W/m -1,4 C -3,2 C 16,1 km/h (3 Bft) 95,74 %
26.12.2018 20:36 1,0 C 4,4 C 0,6 C 84 % 1031,5 hPa 0,0 l/m 9,0 km/h (2 Bft) W 281 0 min 0,000 mm 0,0 UV-I 0 W/m -1,4 C -1,5 C 14,5 km/h (3 Bft) 95,74 %
26.12.2018 20:38 1,0 C 4,4 C 0,6 C 84 % 1031,5 hPa 0,0 l/m 6,9 km/h (2 Bft) W 267 0 min 0,000 mm 0,0 UV-I 0 W/m -1,4 C 0,5 C 11,3 km/h (2 Bft) 95,74 %
26.12.2018 20:40 1,0 C 4,4 C 0,6 C 84 % 1031,4 hPa 0,0 l/m 9,0 km/h (2 Bft) W-NW 284 0 min 0,000 mm 0,0 UV-I 0 W/m -1,4 C -1,5 C 14,5 km/h (3 Bft) 95,74 %
26.12.2018 20:42 1,0 C 4,4 C 0,6 C 84 % 1031,4 hPa 0,0 l/m 7,1 km/h (2 Bft) W 266 0 min 0,000 mm 0,0 UV-I 0 W/m -1,4 C 0,3 C 14,5 km/h (3 Bft) 97,22 %
26.12.2018 20:44 1,0 C 4,4 C 0,6 C 84 % 1031,5 hPa 0,0 l/m 6,4 km/h (2 Bft) W 281 0 min 0,000 mm 0,0 UV-I 0 W/m -1,4 C 1,0 C 11,3 km/h (2 Bft) 98,11 %
26.12.2018 20:46 1,0 C 4,4 C 0,6 C 85 % 1031,5 hPa 0,0 l/m 7,5 km/h (2 Bft) W 278 0 min 0,000 mm 0,0 UV-I 0 W/m -1,2 C -0,1 C 16,1 km/h (3 Bft) 96,23 %
26.12.2018 20:48 1,0 C 4,4 C 0,6 C 85 % 1031,5 hPa 0,0 l/m 6,9 km/h (2 Bft) W 265 0 min 0,000 mm 0,0 UV-I 0 W/m -1,2 C 0,5 C 14,5 km/h (3 Bft) 97,87 %
26.12.2018 20:50 1,0 C 4,4 C 0,6 C 85 % 1031,4 hPa 0,0 l/m 7,4 km/h (2 Bft) W 275 0 min 0,000 mm 0,0 UV-I 0 W/m -1,2 C -0,0 C 12,9 km/h (3 Bft) 94,74 %
26.12.2018 20:52 1,0 C 4,4 C 1,1 C 84 % 1031,4 hPa 0,0 l/m 9,7 km/h (2 Bft) W 270 0 min 0,000 mm 0,0 UV-I 0 W/m -1,4 C -2,1 C 14,5 km/h (3 Bft) 97,87 %
26.12.2018 20:54 1,0 C 4,4 C 1,1 C 84 % 1031,4 hPa 0,0 l/m 6,3 km/h (2 Bft) W 272 0 min 0,000 mm 0,0 UV-I 0 W/m -1,4 C 1,0 C 11,3 km/h (2 Bft) 96,00 %
26.12.2018 20:56 1,1 C 4,4 C 1,1 C 85 % 1031,4 hPa 0,0 l/m 10,4 km/h (2 Bft) W-NW 288 0 min 0,000 mm 0,0 UV-I 0 W/m -1,1 C -2,6 C 17,7 km/h (3 Bft) 100,00 %
26.12.2018 20:58 1,1 C 4,4 C 1,1 C 84 % 1031,4 hPa 0,0 l/m 7,9 km/h (2 Bft) W 277 0 min 0,000 mm 0,0 UV-I 0 W/m -1,3 C -0,4 C 11,3 km/h (2 Bft) 100,00 %
26.12.2018 21:00 1,1 C 4,4 C 1,1 C 84 % 1031,4 hPa 0,0 l/m 8,7 km/h (2 Bft) W-NW 299 0 min 0,000 mm 0,0 UV-I 0 W/m -1,3 C -1,1 C 14,5 km/h (3 Bft) 97,87 %
26.12.2018 21:02 1,1 C 4,4 C 1,1 C 84 % 1031,4 hPa 0,0 l/m 8,7 km/h (2 Bft) W 277 0 min 0,000 mm 0,0 UV-I 0 W/m -1,3 C -1,1 C 14,5 km/h (3 Bft) 97,87 %
26.12.2018 21:04 1,1 C 4,4 C 1,1 C 84 % 1031,4 hPa 0,0 l/m 11,6 km/h (2 Bft) W-SW 242 0 min 0,000 mm 0,0 UV-I 0 W/m -1,3 C -3,5 C 14,5 km/h (3 Bft) 100,00 %
26.12.2018 21:06 1,1 C 4,4 C 0,6 C 84 % 1031,4 hPa 0,0 l/m 11,5 km/h (2 Bft) W 275 0 min 0,000 mm 0,0 UV-I 0 W/m -1,3 C -3,4 C 16,1 km/h (3 Bft) 100,00 %
26.12.2018 21:08 1,1 C 4,4 C 0,6 C 84 % 1031,4 hPa 0,0 l/m 9,6 km/h (2 Bft) W 268 0 min 0,000 mm 0,0 UV-I 0 W/m -1,3 C -1,9 C 14,5 km/h (3 Bft) 97,87 %
26.12.2018 21:10 1,1 C 4,4 C 0,6 C 84 % 1031,3 hPa 0,0 l/m 12,3 km/h (3 Bft) W-SW 254 0 min 0,000 mm 0,0 UV-I 0 W/m -1,3 C -3,9 C 19,3 km/h (3 Bft) 100,00 %
26.12.2018 21:12 1,0 C 4,4 C 0,6 C 84 % 1031,3 hPa 0,0 l/m 6,1 km/h (2 Bft) W 271 0 min 0,000 mm 0,0 UV-I 0 W/m -1,4 C 1,0 C 11,3 km/h (2 Bft) 97,87 %
26.12.2018 21:14 1,0 C 4,4 C 0,6 C 84 % 1031,4 hPa 0,0 l/m 10,3 km/h (2 Bft) W-SW 258 0 min 0,000 mm 0,0 UV-I 0 W/m -1,4 C -2,6 C 16,1 km/h (3 Bft) 97,87 %
26.12.2018 21:16 1,0 C 4,4 C 0,6 C 84 % 1031,4 hPa 0,0 l/m 11,5 km/h (2 Bft) W 275 0 min 0,000 mm 0,0 UV-I 0 W/m -1,4 C -3,5 C 14,5 km/h (3 Bft) 100,00 %
26.12.2018 21:18 1,0 C 4,4 C 0,6 C 84 % 1031,4 hPa 0,0 l/m 6,4 km/h (2 Bft) W-NW 286 0 min 0,000 mm 0,0 UV-I 0 W/m -1,4 C 1,0 C 12,9 km/h (3 Bft) 98,11 %
26.12.2018 21:20 0,9 C 4,4 C 0,6 C 84 % 1031,4 hPa 0,0 l/m 10,0 km/h (2 Bft) NW 312 0 min 0,000 mm 0,0 UV-I 0 W/m -1,5 C -2,5 C 16,1 km/h (3 Bft) 95,74 %
26.12.2018 21:22 0,9 C 4,4 C 0,6 C 85 % 1031,4 hPa 0,0 l/m 6,2 km/h (2 Bft) W 261 0 min 0,000 mm 0,0 UV-I 0 W/m -1,3 C 0,9 C 11,3 km/h (2 Bft) 95,83 %
26.12.2018 21:24 0,9 C 4,4 C 0,6 C 85 % 1031,4 hPa 0,0 l/m 3,6 km/h (1 Bft) W-SW 254 0 min 0,000 mm 0,0 UV-I 0 W/m -1,3 C 0,9 C 8,0 km/h (2 Bft) 97,87 %
26.12.2018 21:26 0,9 C 4,4 C 0,6 C 85 % 1031,4 hPa 0,0 l/m 4,4 km/h (1 Bft) W-NW 290 0 min 0,000 mm 0,0 UV-I 0 W/m -1,3 C 0,9 C 11,3 km/h (2 Bft) 96,00 %
26.12.2018 21:28 0,9 C 4,4 C 0,6 C 85 % 1031,4 hPa 0,0 l/m 5,2 km/h (1 Bft) W-NW 286 0 min 0,000 mm 0,0 UV-I 0 W/m -1,3 C 0,9 C 12,9 km/h (3 Bft) 97,14 %
26.12.2018 21:30 0,9 C 4,4 C 0,6 C 85 % 1031,4 hPa 0,0 l/m 9,1 km/h (2 Bft) W 275 0 min 0,000 mm 0,0 UV-I 0 W/m -1,3 C -1,7 C 14,5 km/h (3 Bft) 100,00 %
26.12.2018 21:32 0,9 C 4,4 C 0,0 C 85 % 1031,4 hPa 0,0 l/m 6,8 km/h (2 Bft) W-NW 290 0 min 0,000 mm 0,0 UV-I 0 W/m -1,3 C 0,5 C 9,7 km/h (2 Bft) 98,00 %
26.12.2018 21:34 0,8 C 4,4 C 0,0 C 85 % 1031,4 hPa 0,0 l/m 7,8 km/h (2 Bft) W 273 0 min 0,000 mm 0,0 UV-I 0 W/m -1,4 C -0,6 C 12,9 km/h (3 Bft) 95,74 %
26.12.2018 21:36 0,8 C 4,4 C 0,0 C 85 % 1031,4 hPa 0,0 l/m 8,6 km/h (2 Bft) W 274 0 min 0,000 mm 0,0 UV-I 0 W/m -1,4 C -1,4 C 14,5 km/h (3 Bft) 92,45 %
26.12.2018 21:38 0,8 C 4,4 C 0,0 C 85 % 1031,4 hPa 0,0 l/m 5,5 km/h (1 Bft) W 275 0 min 0,000 mm 0,0 UV-I 0 W/m -1,4 C 0,8 C 11,3 km/h (2 Bft) 89,36 %
26.12.2018 21:40 0,8 C 4,4 C 0,0 C 85 % 1031,4 hPa 0,0 l/m 6,5 km/h (2 Bft) W-NW 298 0 min 0,000 mm 0,0 UV-I 0 W/m -1,4 C 0,7 C 11,3 km/h (2 Bft) 91,49 %
26.12.2018 21:42 0,8 C 4,4 C 0,0 C 85 % 1031,4 hPa 0,0 l/m 8,6 km/h (2 Bft) W 279 0 min 0,000 mm 0,0 UV-I 0 W/m -1,4 C -1,4 C 12,9 km/h (3 Bft) 91,49 %
26.12.2018 21:44 0,8 C 4,4 C 0,0 C 85 % 1031,4 hPa 0,0 l/m 7,8 km/h (2 Bft) W 277 0 min 0,000 mm 0,0 UV-I 0 W/m -1,4 C -0,6 C 12,9 km/h (3 Bft) 95,74 %
26.12.2018 21:46 0,8 C 4,4 C 0,0 C 85 % 1031,4 hPa 0,0 l/m 6,9 km/h (2 Bft) W 277 0 min 0,000 mm 0,0 UV-I 0 W/m -1,4 C 0,3 C 11,3 km/h (2 Bft) 97,37 %
26.12.2018 21:48 0,8 C 4,4 C 0,0 C 85 % 1031,4 hPa 0,0 l/m 7,0 km/h (2 Bft) W 277 0 min 0,000 mm 0,0 UV-I 0 W/m -1,4 C 0,2 C 12,9 km/h (3 Bft) 91,49 %
26.12.2018 21:50 0,7 C 4,4 C 0,0 C 85 % 1031,4 hPa 0,0 l/m 11,3 km/h (2 Bft) W 278 0 min 0,000 mm 0,0 UV-I 0 W/m -1,5 C -3,7 C 16,1 km/h (3 Bft) 93,62 %
26.12.2018 21:52 0,7 C 4,4 C 0,0 C 85 % 1031,4 hPa 0,0 l/m 10,9 km/h (2 Bft) W 267 0 min 0,000 mm 0,0 UV-I 0 W/m -1,5 C -3,4 C 12,9 km/h (3 Bft) 93,62 %
26.12.2018 21:54 0,7 C 4,4 C 0,0 C 85 % 1031,4 hPa 0,0 l/m 10,0 km/h (2 Bft) W 271 0 min 0,000 mm 0,0 UV-I 0 W/m -1,5 C -2,7 C 14,5 km/h (3 Bft) 95,74 %
26.12.2018 21:56 0,7 C 4,4 C 0,0 C 85 % 1031,4 hPa 0,0 l/m 10,8 km/h (2 Bft) W 274 0 min 0,000 mm 0,0 UV-I 0 W/m -1,5 C -3,3 C 14,5 km/h (3 Bft) 94,00 %
26.12.2018 21:58 0,7 C 4,4 C 0,0 C 86 % 1031,4 hPa 0,0 l/m 10,4 km/h (2 Bft) W 280 0 min 0,000 mm 0,0 UV-I 0 W/m -1,4 C -3,0 C 14,5 km/h (3 Bft) 93,75 %
26.12.2018 22:00 0,6 C 4,4 C 0,0 C 86 % 1031,4 hPa 0,0 l/m 10,6 km/h (2 Bft) W 265 0 min 0,000 mm 0,0 UV-I 0 W/m -1,5 C -3,3 C 16,1 km/h (3 Bft) 97,87 %
26.12.2018 22:02 0,6 C 4,4 C 0,0 C 86 % 1031,4 hPa 0,0 l/m 9,1 km/h (2 Bft) W 273 0 min 0,000 mm 0,0 UV-I 0 W/m -1,5 C -2,0 C 14,5 km/h (3 Bft) 100,00 %
26.12.2018 22:04 0,6 C 4,4 C -0,6 C 86 % 1031,3 hPa 0,0 l/m 8,9 km/h (2 Bft) W 271 0 min 0,000 mm 0,0 UV-I 0 W/m -1,5 C -1,8 C 14,5 km/h (3 Bft) 100,00 %
26.12.2018 22:06 0,6 C 4,4 C -0,6 C 86 % 1031,3 hPa 0,0 l/m 10,0 km/h (2 Bft) W 276 0 min 0,000 mm 0,0 UV-I 0 W/m -1,5 C -2,8 C 16,1 km/h (3 Bft) 97,87 %
26.12.2018 22:08 0,6 C 4,4 C -0,6 C 86 % 1031,3 hPa 0,0 l/m 11,7 km/h (2 Bft) W-SW 257 0 min 0,000 mm 0,0 UV-I 0 W/m -1,5 C -4,1 C 16,1 km/h (3 Bft) 97,87 %
26.12.2018 22:10 0,6 C 4,4 C -0,6 C 86 % 1031,3 hPa 0,0 l/m 8,9 km/h (2 Bft) W 275 0 min 0,000 mm 0,0 UV-I 0 W/m -1,5 C -1,8 C 17,7 km/h (3 Bft) 97,56 %
26.12.2018 22:12 0,6 C 4,4 C -0,6 C 86 % 1031,4 hPa 0,0 l/m 13,1 km/h (3 Bft) W 274 0 min 0,000 mm 0,0 UV-I 0 W/m -1,5 C -5,1 C 17,7 km/h (3 Bft) 100,00 %
26.12.2018 22:14 0,5 C 4,4 C -0,6 C 86 % 1031,4 hPa 0,0 l/m 8,6 km/h (2 Bft) NW 319 0 min 0,000 mm 0,0 UV-I 0 W/m -1,6 C -1,7 C 12,9 km/h (3 Bft) 97,87 %
26.12.2018 22:16 0,4 C 4,4 C -0,6 C 86 % 1031,4 hPa 0,0 l/m 10,2 km/h (2 Bft) W 261 0 min 0,000 mm 0,0 UV-I 0 W/m -1,7 C -3,2 C 14,5 km/h (3 Bft) 97,87 %
26.12.2018 22:18 0,4 C 4,4 C -0,6 C 86 % 1031,4 hPa 0,0 l/m 7,8 km/h (2 Bft) W 259 0 min 0,000 mm 0,0 UV-I 0 W/m -1,7 C -1,0 C 12,9 km/h (3 Bft) 100,00 %
26.12.2018 22:20 0,5 C 4,4 C 0,0 C 86 % 1031,3 hPa 0,0 l/m 9,0 km/h (2 Bft) W-SW 258 0 min 0,000 mm 0,0 UV-I 0 W/m -1,6 C -2,0 C 19,3 km/h (3 Bft) 100,00 %
26.12.2018 22:22 0,5 C 4,4 C 0,0 C 86 % 1031,3 hPa 0,0 l/m 9,0 km/h (2 Bft) W-SW 246 0 min 0,000 mm 0,0 UV-I 0 W/m -1,6 C -2,0 C 14,5 km/h (3 Bft) 100,00 %
26.12.2018 22:24 0,5 C 4,4 C 0,0 C 86 % 1031,3 hPa 0,0 l/m 10,2 km/h (2 Bft) SW 234 0 min 0,000 mm 0,0 UV-I 0 W/m -1,6 C -3,1 C 14,5 km/h (3 Bft) 97,14 %
26.12.2018 22:26 0,5 C 4,4 C 0,0 C 86 % 1031,3 hPa 0,0 l/m 7,0 km/h (2 Bft) W 269 0 min 0,000 mm 0,0 UV-I 0 W/m -1,6 C -0,1 C 11,3 km/h (2 Bft) 100,00 %
26.12.2018 22:28 0,6 C 4,4 C 0,0 C 86 % 1031,4 hPa 0,0 l/m 9,9 km/h (2 Bft) W 263 0 min 0,000 mm 0,0 UV-I 0 W/m -1,5 C -2,7 C 16,1 km/h (3 Bft) 95,74 %
26.12.2018 22:30 0,6 C 4,4 C 0,0 C 86 % 1031,4 hPa 0,0 l/m 9,3 km/h (2 Bft) W 263 0 min 0,000 mm 0,0 UV-I 0 W/m -1,5 C -2,2 C 14,5 km/h (3 Bft) 95,74 %
26.12.2018 22:32 0,6 C 4,4 C 0,0 C 86 % 1031,4 hPa 0,0 l/m 6,3 km/h (2 Bft) W 261 0 min 0,000 mm 0,0 UV-I 0 W/m -1,5 C 0,6 C 11,3 km/h (2 Bft) 100,00 %
26.12.2018 22:34 0,6 C 4,4 C 0,0 C 86 % 1031,4 hPa 0,0 l/m 7,0 km/h (2 Bft) W 276 0 min 0,000 mm 0,0 UV-I 0 W/m -1,5 C -0,0 C 11,3 km/h (2 Bft) 100,00 %
26.12.2018 22:36 0,6 C 4,4 C 0,0 C 86 % 1031,4 hPa 0,0 l/m 10,6 km/h (2 Bft) W 267 0 min 0,000 mm 0,0 UV-I 0 W/m -1,5 C -3,3 C 14,5 km/h (3 Bft) 100,00 %
26.12.2018 22:38 0,6 C 4,4 C 0,0 C 86 % 1031,4 hPa 0,0 l/m 7,3 km/h (2 Bft) W 261 0 min 0,000 mm 0,0 UV-I 0 W/m -1,5 C -0,3 C 12,9 km/h (3 Bft) 100,00 %
26.12.2018 22:40 0,6 C 4,4 C 0,0 C 86 % 1031,4 hPa 0,0 l/m 7,0 km/h (2 Bft) W 275 0 min 0,000 mm 0,0 UV-I 0 W/m -1,5 C -0,0 C 11,3 km/h (2 Bft) 100,00 %
26.12.2018 22:42 0,6 C 4,4 C 0,6 C 86 % 1031,4 hPa 0,0 l/m 6,4 km/h (2 Bft) W 264 0 min 0,000 mm 0,0 UV-I 0 W/m -1,5 C 0,6 C 9,7 km/h (2 Bft) 98,21 %
26.12.2018 22:44 0,6 C 4,4 C 0,6 C 86 % 1031,4 hPa 0,0 l/m 4,3 km/h (1 Bft) W 267 0 min 0,000 mm 0,0 UV-I 0 W/m -1,5 C 0,6 C 6,4 km/h (2 Bft) 97,87 %
26.12.2018 22:46 0,6 C 4,4 C 0,6 C 86 % 1031,4 hPa 0,0 l/m 5,1 km/h (1 Bft) W-SW 254 0 min 0,000 mm 0,0 UV-I 0 W/m -1,5 C 0,6 C 9,7 km/h (2 Bft) 94,29 %
26.12.2018 22:48 0,6 C 4,4 C 0,6 C 86 % 1031,4 hPa 0,0 l/m 4,1 km/h (1 Bft) W-SW 243 0 min 0,000 mm 0,0 UV-I 0 W/m -1,5 C 0,6 C 6,4 km/h (2 Bft) 100,00 %
26.12.2018 22:50 0,6 C 4,4 C 0,6 C 86 % 1031,4 hPa 0,0 l/m 3,5 km/h (1 Bft) W-SW 253 0 min 0,000 mm 0,0 UV-I 0 W/m -1,5 C 0,6 C 4,8 km/h (1 Bft) 100,00 %
26.12.2018 22:52 0,6 C 4,4 C 0,6 C 86 % 1031,3 hPa 0,0 l/m 4,2 km/h (1 Bft) W 263 0 min 0,000 mm 0,0 UV-I 0 W/m -1,5 C 0,6 C 6,4 km/h (2 Bft) 95,74 %
26.12.2018 22:54 0,6 C 4,4 C 0,6 C 86 % 1031,3 hPa 0,0 l/m 5,6 km/h (1 Bft) W 268 0 min 0,000 mm 0,0 UV-I 0 W/m -1,5 C 0,6 C 9,7 km/h (2 Bft) 97,87 %
26.12.2018 22:56 0,6 C 4,4 C 0,6 C 86 % 1031,4 hPa 0,0 l/m 6,0 km/h (2 Bft) W 269 0 min 0,000 mm 0,0 UV-I 0 W/m -1,5 C 0,6 C 8,0 km/h (2 Bft) 97,87 %
26.12.2018 22:58 0,6 C 4,4 C 0,6 C 86 % 1031,3 hPa 0,0 l/m 5,3 km/h (1 Bft) W 263 0 min 0,000 mm 0,0 UV-I 0 W/m -1,5 C 0,6 C 6,4 km/h (2 Bft) 98,00 %
26.12.2018 23:00 0,5 C 4,4 C 0,6 C 86 % 1031,3 hPa 0,0 l/m 4,3 km/h (1 Bft) W-SW 256 0 min 0,000 mm 0,0 UV-I 0 W/m -1,6 C 0,5 C 6,4 km/h (2 Bft) 97,87 %
26.12.2018 23:02 0,6 C 4,4 C 0,6 C 86 % 1031,3 hPa 0,0 l/m 6,1 km/h (2 Bft) W 266 0 min 0,000 mm 0,0 UV-I 0 W/m -1,5 C 0,6 C 9,7 km/h (2 Bft) 97,56 %
26.12.2018 23:04 0,6 C 4,4 C 0,6 C 86 % 1031,3 hPa 0,0 l/m 5,0 km/h (1 Bft) W 275 0 min 0,000 mm 0,0 UV-I 0 W/m -1,5 C 0,6 C 9,7 km/h (2 Bft) 94,00 %
26.12.2018 23:06 0,6 C 4,4 C 0,6 C 86 % 1031,3 hPa 0,0 l/m 4,9 km/h (1 Bft) W-SW 248 0 min 0,000 mm 0,0 UV-I 0 W/m -1,5 C 0,6 C 8,0 km/h (2 Bft) 92,00 %
26.12.2018 23:08 0,6 C 4,4 C 0,6 C 86 % 1031,2 hPa 0,0 l/m 5,6 km/h (1 Bft) W 266 0 min 0,000 mm 0,0 UV-I 0 W/m -1,5 C 0,6 C 9,7 km/h (2 Bft) 95,74 %
26.12.2018 23:10 0,6 C 4,4 C 0,6 C 86 % 1031,2 hPa 0,0 l/m 4,5 km/h (1 Bft) W-SW 254 0 min 0,000 mm 0,0 UV-I 0 W/m -1,5 C 0,6 C 6,4 km/h (2 Bft) 96,00 %
26.12.2018 23:12 0,6 C 4,4 C 0,6 C 86 % 1031,2 hPa 0,0 l/m 5,0 km/h (1 Bft) W 272 0 min 0,000 mm 0,0 UV-I 0 W/m -1,5 C 0,6 C 9,7 km/h (2 Bft) 100,00 %
26.12.2018 23:14 0,6 C 4,4 C 0,6 C 87 % 1031,2 hPa 0,0 l/m 6,1 km/h (2 Bft) W-SW 252 0 min 0,000 mm 0,0 UV-I 0 W/m -1,3 C 0,6 C 9,7 km/h (2 Bft) 100,00 %
26.12.2018 23:16 0,5 C 4,4 C 0,6 C 87 % 1031,2 hPa 0,0 l/m 7,6 km/h (2 Bft) W-SW 238 0 min 0,000 mm 0,0 UV-I 0 W/m -1,4 C -0,7 C 12,9 km/h (3 Bft) 95,74 %
26.12.2018 23:18 0,5 C 4,4 C 0,6 C 87 % 1031,1 hPa 0,0 l/m 8,3 km/h (2 Bft) W-SW 247 0 min 0,000 mm 0,0 UV-I 0 W/m -1,4 C -1,4 C 12,9 km/h (3 Bft) 100,00 %
26.12.2018 23:20 0,4 C 4,4 C 0,6 C 87 % 1031,1 hPa 0,0 l/m 5,6 km/h (1 Bft) W-SW 252 0 min 0,000 mm 0,0 UV-I 0 W/m -1,5 C 0,4 C 9,7 km/h (2 Bft) 100,00 %
26.12.2018 23:22 0,4 C 4,4 C 0,6 C 87 % 1031,1 hPa 0,0 l/m 6,4 km/h (2 Bft) W-SW 252 0 min 0,000 mm 0,0 UV-I 0 W/m -1,5 C 0,4 C 11,3 km/h (2 Bft) 97,56 %
26.12.2018 23:24 0,4 C 4,4 C 0,6 C 87 % 1031,1 hPa 0,0 l/m 6,1 km/h (2 Bft) W 260 0 min 0,000 mm 0,0 UV-I 0 W/m -1,5 C 0,4 C 9,7 km/h (2 Bft) 95,74 %
26.12.2018 23:26 0,4 C 4,4 C 0,6 C 87 % 1031,1 hPa 0,0 l/m 8,7 km/h (2 Bft) W-SW 250 0 min 0,000 mm 0,0 UV-I 0 W/m -1,5 C -1,9 C 12,9 km/h (3 Bft) 98,00 %
26.12.2018 23:29 0,3 C 4,4 C 0,6 C 87 % 1031,1 hPa 0,0 l/m 6,9 km/h (2 Bft) W-SW 240 0 min 0,000 mm 0,0 UV-I 0 W/m -1,6 C -0,2 C 11,3 km/h (2 Bft) 98,63 %
26.12.2018 23:30 0,3 C 4,4 C 0,6 C 87 % 1031,1 hPa 0,0 l/m 8,3 km/h (2 Bft) W-SW 246 0 min 0,000 mm 0,0 UV-I 0 W/m -1,6 C -1,6 C 12,9 km/h (3 Bft) 95,83 %
26.12.2018 23:32 0,3 C 4,4 C 0,6 C 87 % 1031,1 hPa 0,0 l/m 7,3 km/h (2 Bft) W-SW 249 0 min 0,000 mm 0,0 UV-I 0 W/m -1,6 C -0,6 C 11,3 km/h (2 Bft) 97,87 %
26.12.2018 23:34 0,3 C 4,4 C 0,6 C 87 % 1031,1 hPa 0,0 l/m 5,8 km/h (2 Bft) W-SW 254 0 min 0,000 mm 0,0 UV-I 0 W/m -1,6 C 0,3 C 9,7 km/h (2 Bft) 95,74 %
26.12.2018 23:36 0,3 C 4,4 C 0,6 C 87 % 1031,1 hPa 0,0 l/m 6,4 km/h (2 Bft) W-SW 254 0 min 0,000 mm 0,0 UV-I 0 W/m -1,6 C 0,3 C 11,3 km/h (2 Bft) 95,74 %
26.12.2018 23:39 0,3 C 4,4 C 0,6 C 88 % 1031,2 hPa 0,0 l/m 6,3 km/h (2 Bft) W 261 0 min 0,000 mm 0,0 UV-I 0 W/m -1,4 C 0,3 C 9,7 km/h (2 Bft) 97,18 %
26.12.2018 23:40 0,3 C 4,4 C 0,6 C 88 % 1031,2 hPa 0,0 l/m 6,0 km/h (2 Bft) W 260 0 min 0,000 mm 0,0 UV-I 0 W/m -1,4 C 0,3 C 9,7 km/h (2 Bft) 86,96 %
26.12.2018 23:42 0,3 C 4,4 C 0,6 C 88 % 1031,1 hPa 0,0 l/m 4,8 km/h (1 Bft) W 276 0 min 0,000 mm 0,0 UV-I 0 W/m -1,4 C 0,3 C 11,3 km/h (2 Bft) 94,74 %
26.12.2018 23:44 0,3 C 4,4 C 0,6 C 88 % 1031,2 hPa 0,0 l/m 4,5 km/h (1 Bft) W 278 0 min 0,000 mm 0,0 UV-I 0 W/m -1,4 C 0,3 C 6,4 km/h (2 Bft) 98,00 %
26.12.2018 23:46 0,4 C 4,4 C 0,6 C 87 % 1031,1 hPa 0,0 l/m 4,2 km/h (1 Bft) W 273 0 min 0,000 mm 0,0 UV-I 0 W/m -1,5 C 0,4 C 6,4 km/h (2 Bft) 91,49 %
26.12.2018 23:48 0,4 C 4,4 C 0,6 C 87 % 1031,1 hPa 0,0 l/m 4,9 km/h (1 Bft) W 269 0 min 0,000 mm 0,0 UV-I 0 W/m -1,5 C 0,4 C 6,4 km/h (2 Bft) 97,87 %
26.12.2018 23:50 0,4 C 4,4 C 0,6 C 87 % 1031,1 hPa 0,0 l/m 5,1 km/h (1 Bft) W-SW 254 0 min 0,000 mm 0,0 UV-I 0 W/m -1,5 C 0,4 C 6,4 km/h (2 Bft) 96,23 %
26.12.2018 23:52 0,4 C 4,4 C 0,6 C 87 % 1031,1 hPa 0,0 l/m 3,7 km/h (1 Bft) W 264 0 min 0,000 mm 0,0 UV-I 0 W/m -1,5 C 0,4 C 4,8 km/h (1 Bft) 93,62 %
26.12.2018 23:54 0,4 C 4,4 C 0,6 C 87 % 1031,1 hPa 0,0 l/m 4,6 km/h (1 Bft) W-SW 243 0 min 0,000 mm 0,0 UV-I 0 W/m -1,5 C 0,4 C 6,4 km/h (2 Bft) 91,49 %
26.12.2018 23:56 0,4 C 4,4 C 0,6 C 87 % 1031,0 hPa 0,0 l/m 5,9 km/h (2 Bft) W 259 0 min 0,000 mm 0,0 UV-I 0 W/m -1,5 C 0,4 C 9,7 km/h (2 Bft) 91,49 %
26.12.2018 23:58 0,4 C 4,4 C 0,6 C 87 % 1031,0 hPa 0,0 l/m 5,7 km/h (1 Bft) W 260 0 min 0,000 mm 0,0 UV-I 0 W/m -1,5 C 0,4 C 11,3 km/h (2 Bft) 97,92 %
_ Min-Zeit 08:24 00:00 18:12 13:42 14:02 - 07:50 - - - - - - 04:34 03:18 07:50 23:40
Minimum _ 0,2 C 4,4 C -1,7 C 69 % 1030,2 hPa - 2,3 km/h (1 Bft) - - - - - - -1,9 C -8,2 C 3,2 km/h (1 Bft) 86,96 %
_ Max-Zeit 13:26 00:00 11:54 23:39 01:08 00:00 13:02 - - 09:02 12:00 11:08 11:52 12:46 14:10 13:02 00:02
Maximum _ 4,6 C 4,4 C 6,1 C 88 % 1033,2 hPa 0,0 l/m 18,7 km/h
W-NW (3 Bft)
- - 2 min 0,127 mm 0,5 UV-I 319 W/m 0,1 C 4,3 C 29,0 km/h
W (5 Bft)
100,00 %
Durchschnitt _ 1,5 C 4,4 C 0,9 C 82 % 1031,6 hPa #0,0 l/m 9,9 km/h (2 Bft) W - #6:42 h #0,889 mm 0,5 UV-I 158 W/m -1,2 C -1,7 C 15,7 km/h (3 Bft) 96,80 %